[[{"header":{"parameterUnit":"m.s-1","parameterCategory":1,"la1":30.6,"la2":29.2853,"lo1":-89.7004,"lo2":-87.6739,"dy":0.0162,"dx":0.0183,"nx":112,"ny":82,"refTime":"2024-09-29T18:00:00:Z","depth":0,"parameterNumber":2,"parameterNumberName":"U-component_of_WINDS"},"data":[0.0,0.0,0.0,0.0,0.0,0.0,0.0,0.0,0.0,0.0,0.0,0.0,0.0,0.0,0.0,0.0,0.0,0.0,0.0,0.0,0.0,0.0,0.0,0.0,0.0,0.0,0.0,0.0,0.0,0.0,0.0,0.0,0.0,0.0,0.0,0.0,0.0,0.0,0.0,0.0,0.0,0.0,0.0,0.0,0.0,0.0,0.0,0.0,0.0,0.0,0.0,0.0,0.0,0.0,0.0,0.0,0.0,0.0,0.0,0.0,0.0,0.0,0.0,0.0,0.0,0.0,0.0,0.0,0.0,0.0,0.0,0.0,0.0,0.0,0.0,0.0,0.0,0.0,0.0,0.0,0.0,0.0,0.0,0.0,0.0,0.0,0.0,0.0,0.0,0.0,2.6351,2.9533,3.3198,3.5062,3.4251,3.3815,3.1269,2.5738,0.0,0.0,0.0,0.0,0.0,0.0,0.0,0.0,0.0,0.0,0.0,0.0,0.0,0.0,0.0,0.0,0.0,0.0,0.0,0.0,0.0,0.0,0.0,0.0,0.0,0.0,0.0,0.0,0.0,0.0,0.0,0.0,0.0,0.0,0.0,0.0,0.0,0.0,0.0,0.0,0.0,0.0,0.0,0.0,0.0,0.0,0.0,0.0,0.0,0.0,0.0,0.0,0.0,0.0,0.0,0.0,0.0,0.0,0.0,0.0,0.0,0.0,0.0,0.0,0.0,0.0,0.0,0.0,0.0,0.0,0.0,0.0,0.0,0.0,0.0,0.0,0.0,0.0,0.0,0.0,0.0,0.0,0.0,0.0,0.0,0.0,0.0,0.0,0.0,0.0,0.0,0.0,0.0,0.0,0.0,0.0,0.0,0.0,0.0,0.0,0.0,0.0,0.0,0.0,2.6631,3.2699,3.4567,3.5277,3.5054,3.3089,3.0261,2.6453,0.0,0.0,0.0,0.0,0.0,0.0,0.0,0.0,0.0,0.0,0.0,0.0,0.0,0.0,0.0,0.0,0.0,0.0,0.0,0.0,0.0,0.0,0.0,0.0,0.0,0.0,0.0,0.0,0.0,0.0,0.0,0.0,0.0,0.0,0.0,0.0,0.0,0.0,0.0,0.0,0.0,0.0,0.0,0.0,0.0,0.0,0.0,0.0,0.0,0.0,0.0,0.0,0.0,0.0,0.0,0.0,0.0,0.0,0.0,0.0,0.0,0.0,0.0,0.0,0.0,0.0,0.0,0.0,0.0,0.0,0.0,0.0,0.0,0.0,0.0,0.0,0.0,0.0,0.0,0.0,0.0,0.0,0.0,0.0,0.0,0.0,0.0,0.0,0.0,0.0,0.0,0.0,0.0,0.0,0.0,0.0,0.0,0.0,0.0,0.0,0.0,0.0,0.0,2.5429,2.8956,3.4276,3.5239,3.5388,3.5207,3.3318,3.0529,2.6632,2.2811,0.0,0.0,0.0,0.0,0.0,0.0,0.0,0.0,0.0,0.0,0.0,0.0,0.0,0.0,0.0,0.0,0.0,0.0,0.0,0.0,0.0,0.0,0.0,0.0,0.0,0.0,0.0,0.0,0.0,0.0,0.0,0.0,0.0,0.0,0.0,0.0,0.0,0.0,0.0,0.0,0.0,0.0,0.0,0.0,0.0,0.0,0.0,0.0,0.0,0.0,0.0,0.0,0.0,0.0,0.0,0.0,0.0,0.0,0.0,0.0,0.0,0.0,0.0,0.0,0.0,0.0,0.0,0.0,0.0,0.0,0.0,0.0,0.0,0.0,0.0,0.0,0.0,0.0,0.0,0.0,0.0,0.0,0.0,0.0,0.0,0.0,0.0,0.0,0.0,0.0,0.0,0.0,0.0,0.0,0.0,0.0,0.0,0.0,0.0,0.0,0.0,0.0,2.9093,3.1602,3.5156,3.5507,3.5341,3.4986,3.3028,3.0095,2.6058,2.1664,0.0,0.0,0.0,0.0,0.0,0.0,0.0,0.0,0.0,0.0,0.0,0.0,0.0,0.0,0.0,0.0,0.0,0.0,0.0,0.0,0.0,0.0,0.0,0.0,0.0,0.0,0.0,0.0,0.0,0.0,0.0,0.0,0.0,0.0,0.0,0.0,0.0,0.0,0.0,0.0,0.0,0.0,0.0,0.0,0.0,0.0,0.0,0.0,0.0,0.0,0.0,0.0,0.0,0.0,0.0,0.0,0.0,0.0,0.0,0.0,0.0,0.0,0.0,0.0,0.0,0.0,0.0,0.0,0.0,0.0,0.0,0.0,0.0,0.0,0.0,0.0,0.0,0.0,0.0,0.0,0.0,0.0,0.0,0.0,0.0,0.0,0.0,0.0,0.0,0.0,0.0,0.0,0.0,0.0,0.0,0.0,0.0,0.0,0.0,0.0,0.0,0.0,2.9986,3.3688,3.5475,3.5593,3.5149,3.426,3.1082,2.7688,2.4301,1.941,0.0,0.0,0.0,0.0,0.0,0.0,0.0,0.0,0.0,0.0,0.0,0.0,0.0,0.0,0.0,0.0,0.0,0.0,0.0,0.0,0.0,0.0,0.0,0.0,0.0,0.0,0.0,0.0,0.0,0.0,0.0,0.0,0.0,0.0,0.0,0.0,0.0,0.0,0.0,0.0,0.0,0.0,0.0,0.0,0.0,0.0,0.0,0.0,0.0,0.0,0.0,0.0,0.0,0.0,0.0,0.0,0.0,0.0,0.0,0.0,0.0,0.0,0.0,0.0,0.0,0.0,0.0,0.0,0.0,0.0,0.0,0.0,0.0,0.0,0.0,0.0,0.0,0.0,0.0,0.0,0.0,0.0,0.0,0.0,0.0,0.0,0.0,0.0,0.0,0.0,0.0,0.0,0.0,0.0,0.0,0.0,0.0,0.0,0.0,0.0,0.0,0.0,2.914,3.2726,0.0,3.5173,3.4654,3.4212,3.1506,2.8153,2.4206,0.0,0.0,0.0,0.0,0.0,0.0,0.0,0.0,0.0,0.0,0.0,0.0,0.0,0.0,0.0,0.0,0.0,0.0,0.0,0.0,0.0,0.0,0.0,0.0,0.0,0.0,0.0,0.0,0.0,0.0,0.0,0.0,0.0,0.0,0.0,0.0,0.0,0.0,0.0,0.0,0.0,0.0,0.0,0.0,0.0,0.0,0.0,0.0,0.0,0.0,0.0,0.0,0.0,0.0,0.0,0.0,0.0,0.0,0.0,0.0,0.0,0.0,0.0,0.0,0.0,0.0,0.0,0.0,0.0,0.0,0.0,0.0,0.0,0.0,0.0,0.0,0.0,0.0,0.0,0.0,0.0,0.0,0.0,0.0,0.0,0.0,0.0,0.0,0.0,0.0,0.0,0.0,0.0,0.0,0.0,0.0,0.0,0.0,0.0,0.0,0.0,0.0,2.4508,2.8597,3.2113,0.0,3.4362,3.3857,3.3484,3.0827,2.7479,2.3475,0.0,0.0,0.0,0.0,0.0,0.0,0.0,0.0,0.0,0.0,0.0,0.0,0.0,0.0,0.0,0.0,0.0,0.0,0.0,0.0,0.0,0.0,0.0,0.0,0.0,0.0,0.0,0.0,0.0,0.0,0.0,0.0,0.0,0.0,0.0,0.0,0.0,0.0,0.0,0.0,0.0,0.0,0.0,0.0,0.0,0.0,0.0,0.0,0.0,0.0,0.0,0.0,0.0,0.0,0.0,0.0,0.0,0.0,0.0,0.0,0.0,0.0,0.0,0.0,0.0,0.0,0.0,0.0,0.0,0.0,0.0,0.0,0.0,0.0,0.0,0.0,0.0,0.0,0.0,0.0,0.0,0.0,0.0,0.0,0.0,0.0,0.0,0.0,0.0,0.0,0.0,0.0,0.0,0.0,0.0,0.0,0.0,0.0,0.0,0.0,0.0,0.0,2.3883,2.8766,3.2322,3.3215,3.3158,3.2725,3.1873,2.8598,2.5194,0.0,0.0,0.0,0.0,0.0,0.0,0.0,0.0,0.0,0.0,0.0,0.0,0.0,0.0,0.0,0.0,0.0,0.0,0.0,0.0,0.0,0.0,0.0,0.0,0.0,0.0,0.0,0.0,0.0,0.0,0.0,0.0,0.0,0.0,0.0,0.0,0.0,0.0,0.0,0.0,0.0,0.0,0.0,0.0,0.0,0.0,0.0,0.0,0.0,0.0,0.0,0.0,0.0,0.0,0.0,0.0,0.0,0.0,0.0,0.0,0.0,0.0,0.0,0.0,0.0,0.0,0.0,0.0,0.0,0.0,0.0,0.0,0.0,0.0,0.0,0.0,0.0,0.0,0.0,0.0,0.0,0.0,0.0,0.0,0.0,0.0,0.0,0.0,0.0,0.0,0.0,0.0,0.0,0.0,0.0,0.0,0.0,0.0,0.0,0.0,0.0,0.0,0.0,2.3883,2.8766,3.2322,3.3215,3.2695,3.2213,3.1942,2.9326,2.6202,2.2811,0.0,0.0,0.0,0.0,0.0,0.0,0.0,0.0,0.0,0.0,0.0,0.0,0.0,0.0,0.0,0.0,0.0,0.0,0.0,0.0,0.0,0.0,0.0,0.0,0.0,0.0,0.0,0.0,0.0,0.0,0.0,0.0,0.0,0.0,0.0,0.0,0.0,0.0,0.0,0.0,0.0,0.0,0.0,0.0,0.0,0.0,0.0,0.0,0.0,0.0,0.0,0.0,0.0,0.0,0.0,0.0,0.0,0.0,0.0,0.0,0.0,0.0,0.0,0.0,0.0,0.0,0.0,0.0,0.0,0.0,0.0,0.0,0.0,0.0,0.0,0.0,0.0,0.0,0.0,0.0,0.0,0.0,0.0,0.0,0.0,0.0,0.0,0.0,0.0,0.0,0.0,0.0,0.0,0.0,0.0,0.0,0.0,0.0,0.0,0.0,0.0,0.0,2.3436,2.8268,3.1661,3.2205,3.1778,3.1467,3.1467,2.9401,2.6638,2.3209,0.0,0.0,0.0,0.0,0.0,0.0,0.0,0.0,0.0,0.0,0.0,0.0,0.0,0.0,0.0,0.0,0.0,0.0,0.0,0.0,0.0,0.0,0.0,0.0,0.0,0.0,0.0,0.0,0.0,0.0,0.0,0.0,0.0,0.0,0.0,0.0,0.0,0.0,0.0,0.0,0.0,0.0,0.0,0.0,0.0,0.0,0.0,0.0,0.0,0.0,0.0,0.0,0.0,0.0,0.0,0.0,0.0,0.0,0.0,0.0,0.0,0.0,0.0,0.0,0.0,0.0,0.0,0.0,0.0,0.0,0.0,0.0,0.0,0.0,0.0,0.0,0.0,0.0,0.0,0.0,0.0,0.0,0.0,0.0,0.0,0.0,0.0,0.0,0.0,0.0,0.0,0.0,0.0,0.0,0.0,0.0,0.0,0.0,0.0,0.0,0.0,0.0,2.2765,2.7505,3.069,3.069,3.069,3.069,3.069,2.9097,2.6689,2.332,0.0,0.0,0.0,0.0,0.0,0.0,0.0,0.0,0.0,0.0,0.0,0.0,0.0,0.0,0.0,0.0,0.0,0.0,0.0,0.0,0.0,0.0,0.0,0.0,0.0,0.0,0.0,0.0,0.0,0.0,0.0,0.0,0.0,0.0,0.0,0.0,0.0,0.0,0.0,0.0,0.0,0.0,0.0,0.0,0.0,0.0,0.0,0.0,0.0,0.0,0.0,0.0,0.0,0.0,0.0,0.0,0.0,0.0,0.0,0.0,2.0556,1.8913,0.0,0.0,0.0,0.0,0.0,0.0,0.0,0.0,0.0,0.0,0.0,0.0,0.0,0.0,0.0,0.0,0.0,0.0,0.0,0.0,0.0,0.0,0.0,0.0,0.0,0.0,0.0,0.0,0.0,0.0,0.0,0.0,0.0,0.0,0.0,0.0,0.0,0.0,0.0,0.0,2.2765,2.7505,3.069,3.069,3.069,3.069,3.069,2.9097,2.6934,2.4218,2.1457,0.0,0.0,0.0,0.0,0.0,0.0,0.0,0.0,0.0,0.0,0.0,0.0,0.0,0.0,0.0,0.0,0.0,0.0,0.0,0.0,0.0,0.0,0.0,0.0,0.0,0.0,0.0,0.0,0.0,0.0,0.0,0.0,0.0,0.0,0.0,0.0,0.0,0.0,0.0,0.0,0.0,0.0,0.0,0.0,0.0,0.0,0.0,0.0,0.0,0.0,0.0,0.0,0.0,0.0,0.0,0.0,0.0,0.0,0.0,2.3957,2.262,0.0,0.0,0.0,0.0,0.0,0.0,0.0,0.0,0.0,0.0,0.0,0.0,0.0,0.0,0.0,0.0,0.0,0.0,0.0,0.0,0.0,0.0,0.0,0.0,0.0,0.0,0.0,0.0,0.0,0.0,0.0,0.0,0.0,0.0,0.0,0.0,0.0,0.0,0.0,0.0,2.3396,2.777,3.074,3.074,3.074,3.074,3.074,2.9537,2.7831,2.5704,2.3179,0.0,0.0,0.0,0.0,0.0,0.0,0.0,0.0,0.0,0.0,0.0,0.0,0.0,0.0,0.0,0.0,0.0,0.0,0.0,0.0,0.0,0.0,0.0,0.0,0.0,0.0,0.0,0.0,0.0,0.0,0.0,0.0,0.0,0.0,0.0,0.0,0.0,0.0,0.0,0.0,0.0,0.0,0.0,0.0,0.0,0.0,0.0,0.0,0.0,0.0,0.0,0.0,0.0,2.7319,2.7856,2.8403,2.8488,2.9407,3.072,2.7944,2.7166,2.7701,2.4721,0.0,0.0,0.0,0.0,0.0,0.0,0.0,0.0,0.0,0.0,0.0,0.0,0.0,0.0,0.0,0.0,0.0,0.0,0.0,0.0,0.0,0.0,0.0,0.0,2.5975,2.5543,2.1826,0.0,0.0,0.0,0.0,0.0,0.0,0.0,0.0,0.0,0.0,0.0,2.43,2.8215,3.0801,3.0801,3.0801,3.0801,3.0801,2.9984,2.8815,2.7216,2.4878,2.2459,0.0,0.0,0.0,0.0,0.0,0.0,0.0,0.0,0.0,0.0,0.0,0.0,0.0,0.0,0.0,0.0,0.0,0.0,0.0,0.0,0.0,0.0,0.0,0.0,0.0,0.0,0.0,0.0,0.0,0.0,0.0,0.0,1.8878,2.1463,0.0,0.0,0.0,0.0,0.0,0.0,0.0,0.0,0.0,0.0,0.0,0.0,0.0,2.5943,2.6889,2.9023,2.9872,2.9418,3.1648,3.2458,3.1917,3.1971,3.2515,3.3471,3.3012,0.0,2.8643,2.751,0.0,0.0,0.0,0.0,0.0,0.0,0.0,0.0,0.0,0.0,0.0,0.0,0.0,0.0,0.0,0.0,0.0,0.0,0.0,0.0,0.0,0.0,2.9517,2.9012,2.9529,2.9765,0.0,2.4726,2.1287,2.0075,1.8748,0.0,0.0,0.0,0.0,0.0,0.0,0.0,2.5223,2.8576,3.0801,3.0801,3.0801,3.0801,3.0801,2.9984,2.9093,2.8085,2.6367,2.4531,2.2655,2.0233,0.0,0.0,0.0,0.0,0.0,0.0,0.0,0.0,0.0,0.0,0.0,0.0,0.0,0.0,0.0,0.0,0.0,0.0,0.0,0.0,0.0,0.0,0.0,0.0,0.0,0.0,0.0,0.0,0.0,1.7467,2.025,2.2352,2.1596,2.0403,0.0,0.0,0.0,0.0,0.0,0.0,0.0,0.0,0.0,2.8261,2.9166,3.0431,3.2146,3.3258,3.3617,3.3295,3.4431,3.4604,3.3828,3.3937,3.4234,3.4628,3.4741,3.3647,3.1675,3.0376,2.8428,2.6058,0.0,0.0,0.0,0.0,2.3514,2.4152,2.5994,2.6684,2.6474,2.5093,0.0,0.0,0.0,0.0,0.0,0.0,0.0,0.0,0.0,0.0,2.9552,3.0138,3.0536,3.0697,3.0305,2.8431,2.6169,0.0,2.3242,2.1992,1.8671,0.0,0.0,0.0,0.0,2.5742,2.6953,2.9258,3.0781,3.0781,3.0781,3.0781,3.0781,3.0468,2.9881,2.9058,2.7846,2.6361,2.464,2.2569,2.0226,0.0,0.0,0.0,0.0,0.0,0.0,0.0,0.0,0.0,0.0,0.0,0.0,0.0,0.0,0.0,0.0,0.0,0.0,0.0,0.0,0.0,0.0,0.0,0.0,0.0,0.0,0.0,0.0,1.985,2.2331,2.4033,2.3999,2.3176,0.0,0.0,0.0,0.0,0.0,0.0,2.6088,2.7954,2.9883,3.1845,3.2974,3.4384,3.6197,3.6197,3.6197,3.6197,3.6249,3.5899,3.5169,3.5325,3.5321,3.5196,3.5339,3.5,3.4251,3.2766,3.1199,2.956,2.7659,2.6476,2.5931,2.6844,2.7188,2.7546,2.9727,3.0494,3.0242,2.8701,2.7382,2.6015,2.406,0.0,0.0,0.0,0.0,2.6169,2.8317,2.8902,2.9214,3.0466,3.0746,3.0752,3.0752,3.0796,2.9988,0.0,2.703,2.6012,2.1914,0.0,0.0,0.0,0.0,2.7651,2.8511,2.991,3.0801,3.0801,3.0801,3.0801,3.0801,3.0801,3.0528,2.9943,2.8886,2.7715,2.6427,2.4473,2.2244,1.9663,0.0,0.0,0.0,0.0,0.0,0.0,0.0,0.0,0.0,0.0,0.0,0.0,0.0,0.0,0.0,0.0,0.0,0.0,0.0,0.0,0.0,0.0,0.0,0.0,0.0,0.0,0.0,0.0,0.0,2.8376,2.7756,0.0,0.0,0.0,0.0,2.4643,2.6964,2.8709,2.9491,3.1883,3.3559,3.4417,3.6032,3.6934,3.7024,3.7024,3.7024,3.7024,3.7047,3.6745,3.6139,3.6139,3.5872,3.5398,3.5398,3.543,3.5367,3.4378,3.2993,3.1482,3.1399,3.0917,3.0388,3.1328,3.167,3.1802,3.2781,3.3141,3.3047,3.2148,3.0154,2.8149,2.7991,2.7345,0.0,0.0,2.8479,2.9253,3.0231,3.0471,3.051,3.0587,3.0675,3.0711,3.0711,3.0742,3.0528,0.0,2.8774,2.7876,2.6782,0.0,2.5806,2.655,2.7563,2.8537,2.9437,3.0294,3.0801,3.0801,3.0801,3.0801,3.0801,3.0801,3.0762,3.0723,2.9196,2.8257,2.8179,2.5718,2.3098,2.0475,1.9585,0.0,0.0,0.0,0.0,0.0,0.0,0.0,0.0,0.0,0.0,0.0,0.0,0.0,0.0,0.0,0.0,0.0,0.0,0.0,0.0,0.0,0.0,0.0,0.0,0.0,0.0,0.0,0.0,2.8713,2.9421,0.0,2.8275,2.8574,2.9053,2.9619,3.1412,3.2841,3.3686,3.5039,3.6167,3.6948,3.7549,3.815,3.87,3.8737,3.8413,3.785,3.8011,3.7402,3.6139,3.6344,3.6051,3.535,3.5521,3.5558,3.5456,3.5222,3.477,3.4202,3.3633,3.3316,3.3083,3.2882,3.319,3.3643,3.3459,3.3748,3.4101,3.318,3.187,3.0763,3.1304,3.0425,2.9479,3.0328,3.0354,3.0224,3.0535,3.0613,3.0613,3.0613,3.0633,3.0652,3.0652,3.067,3.0603,3.0292,3.0069,2.9474,2.8069,2.8459,2.8732,2.7952,2.9006,3.0021,3.0333,3.0606,3.0794,3.0735,3.0732,3.072,3.0686,3.0681,3.0453,2.9946,2.8763,2.7629,2.6554,2.5065,2.33,2.1255,2.0409,1.7987,0.0,0.0,0.0,0.0,0.0,0.0,0.0,0.0,0.0,0.0,0.0,0.0,0.0,0.0,0.0,0.0,0.0,0.0,0.0,0.0,0.0,0.0,0.0,0.0,0.0,0.0,2.8624,2.9497,3.1214,3.1919,3.0804,3.1902,3.2899,3.3463,3.4701,3.5709,3.6273,3.7061,3.7737,3.83,3.8601,3.9062,3.9684,3.9684,3.9467,3.8931,3.9081,3.8403,3.711,3.7031,3.6594,3.5817,3.572,3.5637,3.5615,3.5679,3.5747,3.567,3.5059,3.4883,3.4899,3.4358,3.4549,3.4973,3.4453,3.445,3.4604,3.3964,3.3156,3.2527,3.3068,3.2369,3.1538,3.2119,3.1629,3.0953,3.0953,3.0759,3.0527,3.0527,3.0552,3.0576,3.0576,3.0598,3.0613,3.0613,3.0686,3.0377,2.9285,2.9987,3.0342,2.9263,3.0033,3.0732,3.0746,3.0735,3.072,3.0686,3.0681,3.0664,3.062,3.0069,2.9648,2.9415,2.7725,2.6353,2.5511,2.4108,2.266,2.1235,1.9823,1.8053,1.5956,0.0,0.0,0.0,0.0,0.0,0.0,0.0,0.0,0.0,0.0,0.0,0.0,0.0,0.0,0.0,0.0,0.0,0.0,0.0,0.0,0.0,0.0,0.0,2.6374,2.8518,3.0364,3.1121,3.3375,3.4222,3.2618,3.4572,3.5957,3.5995,3.6708,3.7159,3.722,3.7948,3.8362,3.8362,3.9188,3.9684,3.9895,3.9895,4.0,4.0196,4.0214,3.983,3.9073,3.823,3.7507,3.6868,3.6002,3.5718,3.5784,3.581,3.5818,3.581,3.5747,3.5779,3.5889,3.5894,3.591,3.5898,3.5962,3.5447,3.4739,3.4652,3.4047,3.3334,3.3293,3.3131,3.2986,3.3024,3.2408,3.1698,3.1698,3.1044,3.0379,3.0379,3.0441,3.0511,3.0511,3.0552,3.0605,3.0605,3.0605,3.0605,3.0613,3.0613,3.0639,3.0701,3.0658,0.0,3.0701,3.0658,3.0613,3.0613,3.0574,3.0574,3.0605,2.9059,2.8437,2.9253,2.612,2.4587,2.5376,2.2965,2.1247,2.0437,1.7902,1.6893,1.753,0.0,0.0,0.0,0.0,0.0,0.0,0.0,0.0,0.0,0.0,0.0,0.0,0.0,0.0,0.0,0.0,0.0,0.0,0.0,0.0,0.0,2.5925,2.8017,2.8048,3.1107,3.3487,3.3676,3.5493,3.6518,3.6063,3.6711,3.7433,3.8023,3.829,3.867,3.9317,3.9546,3.9698,3.9698,3.9926,4.006,4.012,4.012,4.0158,4.0214,4.0339,3.9983,3.9154,3.9083,3.8272,3.6964,3.6735,3.63,3.5793,3.5833,3.5866,3.5859,3.5846,3.5866,3.5899,3.5882,3.5937,3.5964,3.5996,3.5822,3.5554,3.5444,3.48,3.4139,3.472,3.3966,3.3056,3.3672,3.28,3.1698,3.1698,3.1044,3.0379,3.0379,3.0414,3.0436,3.0436,3.0419,3.0441,3.0441,3.0441,3.0492,3.0591,3.0613,3.062,3.0601,3.0626,0.0,3.0639,3.0626,3.0591,3.0527,2.9945,2.9833,3.0413,2.8907,2.7788,2.7412,2.589,2.4562,2.3493,2.2774,2.1952,2.0986,1.9097,1.8127,0.0,0.0,0.0,0.0,0.0,0.0,0.0,0.0,0.0,0.0,0.0,0.0,0.0,0.0,0.0,0.0,0.0,0.0,0.0,0.0,0.0,0.0,2.9158,3.1389,3.1782,3.3526,3.5057,3.5756,3.7128,3.8023,3.8023,3.8478,3.8953,3.9411,3.945,3.9679,4.0157,4.0196,4.0196,4.0196,4.0196,4.0251,4.0321,4.0321,4.0356,4.0438,4.0569,4.0381,3.9879,3.9598,3.8977,3.802,3.7327,3.6793,3.634,3.6027,3.5909,0.0,0.0,0.0,0.0,0.0,3.5966,3.5991,3.5978,3.5914,3.5878,3.5724,3.5291,3.4947,3.5355,3.4776,3.4007,3.416,3.3237,3.2122,3.1775,3.1044,3.0379,3.0379,3.0379,3.0379,3.0379,3.0379,3.0379,3.0379,3.0379,0.0,3.0482,3.05,3.0518,3.056,3.0527,3.0518,3.056,3.0527,3.0482,3.0462,2.9988,2.988,3.034,2.8841,0.0,0.0,0.0,2.3809,2.2015,2.1954,0.0,0.0,0.0,0.0,0.0,0.0,0.0,0.0,1.7955,1.7708,0.0,0.0,0.0,0.0,0.0,0.0,0.0,0.0,0.0,0.0,0.0,0.0,0.0,0.0,0.0,0.0,3.2355,3.5282,3.633,3.5837,3.5894,3.7394,3.8442,3.9103,3.9103,3.9809,4.0269,4.0269,4.0269,4.0269,4.0269,0.0,0.0,0.0,0.0,4.0356,4.0539,4.0539,4.0612,4.081,4.081,4.081,4.0771,4.001,3.9623,3.9429,3.7992,3.7259,3.7053,3.6333,3.5981,3.5923,3.5882,3.5893,3.5937,3.5962,3.5991,3.5981,3.5904,0.0,0.0,3.565,3.5577,3.5581,3.5495,3.5493,3.5315,3.443,3.3583,3.2699,3.1929,3.1044,3.0379,3.0379,3.0379,3.0379,3.0379,3.0379,3.0379,3.0379,3.0379,3.0379,3.0379,3.0379,3.0425,3.0482,3.0458,3.0425,3.0492,3.0447,3.0379,3.0379,0.0,0.0,3.0304,2.8779,2.7711,2.7494,2.5259,2.3207,2.1522,2.1545,2.1545,2.1442,2.2114,2.28,2.3449,2.4893,2.5189,2.4373,2.0731,1.9782,0.0,0.0,0.0,0.0,0.0,0.0,0.0,0.0,0.0,0.0,0.0,0.0,0.0,0.0,0.0,3.2144,3.4393,3.6319,3.7902,3.8137,3.8249,3.8555,3.9555,4.0191,4.0191,4.0468,4.0693,4.0693,4.0693,4.0693,4.0693,4.0693,4.0693,4.0693,4.0693,4.0706,4.0733,4.0733,4.0746,4.081,0.0,0.0,4.0771,4.0616,4.0203,3.9545,3.9232,3.8373,3.718,3.7009,3.6562,3.597,3.5937,3.5936,3.596,3.5994,3.5974,3.5904,3.5894,3.5779,3.565,3.5599,3.5558,3.5534,3.5507,3.5493,0.0,3.443,3.3583,3.2699,3.1929,3.1044,3.0379,3.0379,3.0379,3.0379,3.0379,3.0379,3.0379,3.0379,3.0379,3.0379,3.0379,3.0379,3.039,3.0414,3.0402,3.039,3.0414,3.0402,3.0379,3.0379,2.9775,2.961,3.0227,2.8791,2.7762,2.7504,2.6216,2.5271,2.4853,2.5543,2.5514,2.4723,2.4817,2.493,2.4983,2.5277,2.5698,2.6098,2.4686,2.4191,0.0,0.0,0.0,0.0,0.0,0.0,0.0,0.0,0.0,0.0,0.0,2.6314,2.8379,0.0,3.3106,3.5173,3.6576,3.7887,3.9337,3.9635,3.9704,3.9704,4.0269,4.0626,4.0626,4.0733,4.081,4.081,4.081,4.081,4.081,4.081,4.081,4.081,4.081,4.081,4.081,4.081,4.081,4.081,4.081,4.081,4.0848,4.0848,4.0667,4.028,3.9867,3.9248,3.8433,3.7615,3.6749,3.5994,3.5968,3.5964,3.5991,3.5974,3.5914,3.5883,3.5772,3.5679,3.5577,3.5558,3.5522,3.543,3.4968,3.4853,3.4584,3.3314,3.2622,3.2122,3.1275,3.0737,3.0379,3.0379,3.0379,3.0379,3.0379,3.0379,3.0367,3.0267,3.0343,3.0367,3.0267,3.0343,3.0379,3.0379,3.0292,3.0254,3.0254,3.0188,3.0147,3.0147,2.9765,2.9636,2.9984,2.8806,2.7994,2.7867,2.6894,2.6265,2.6209,2.6636,2.6597,2.6093,2.6499,2.668,2.6576,2.7016,2.742,2.7765,2.7383,2.6979,0.0,0.0,0.0,0.0,0.0,0.0,0.0,0.0,2.569,2.6899,2.917,3.1206,3.1951,3.4415,3.6611,3.7526,3.8421,3.9357,4.0361,4.0508,4.0523,4.0554,4.0706,4.081,4.081,4.081,4.081,4.081,4.081,4.081,4.081,4.081,4.081,4.081,4.081,4.081,4.081,4.081,4.081,4.081,4.081,4.0848,4.09,4.0909,4.0936,4.0977,4.0167,3.9707,3.9433,3.793,3.6774,3.5978,3.5978,3.5978,3.5931,3.5899,3.5872,3.5833,3.565,3.5577,3.557,3.5534,3.5493,3.5391,3.4661,3.4301,3.3813,3.2314,3.1751,3.1392,3.0573,3.0343,3.0355,3.0379,3.0367,3.0343,3.0343,3.033,3.0241,3.0095,3.0202,3.0241,3.008,3.0202,3.0318,3.0343,3.0215,3.0095,3.0066,2.9962,2.9921,2.9921,2.9921,2.9851,2.9767,2.8933,2.8427,2.8428,2.7635,2.7153,2.709,2.709,2.709,2.709,2.7714,2.8044,2.8044,2.8622,2.8929,2.8905,2.8858,2.8516,2.3766,2.304,2.3269,2.6135,2.5867,2.6414,0.0,0.0,3.1172,3.357,3.422,3.4643,3.5571,3.646,3.7419,3.8459,3.9275,3.9946,4.0438,4.0508,4.0569,4.0733,4.081,4.081,4.081,4.081,4.081,4.081,4.081,4.081,4.081,4.081,4.081,4.081,4.081,4.081,4.081,4.081,4.081,4.081,4.0848,4.09,4.09,4.0943,4.1042,4.104,4.0257,3.945,3.867,3.7695,3.6738,3.5911,3.5911,3.5846,3.5733,3.5872,3.5772,3.562,3.5599,3.5558,3.552,3.5507,3.5493,3.5468,3.5391,3.4693,3.3746,3.2851,3.192,3.0988,3.0324,3.0136,3.0163,3.0355,3.0254,3.0136,3.0136,3.0037,2.9969,2.9953,2.9915,2.9969,2.9953,2.9915,2.9977,3.0109,3.0122,3.0066,2.9931,2.9921,2.9921,2.9921,2.9921,2.9867,2.9867,2.9495,2.9265,2.9287,2.8984,2.8809,2.8741,2.8718,2.8718,2.8718,2.8792,2.8888,2.8865,2.8713,2.8626,2.8626,2.8334,2.8324,2.816,2.8045,2.8083,0.0,3.0452,3.1637,3.3968,3.4344,3.4504,3.5623,3.6444,3.7095,3.7499,3.8146,3.881,0.0,3.9871,4.0214,4.0612,4.0229,3.9934,4.0036,3.9611,3.9688,4.0694,4.081,4.081,4.081,4.081,4.081,4.081,4.081,4.081,4.081,4.081,4.081,4.0848,4.0848,4.0887,4.0938,4.0938,4.0977,4.1016,4.1042,4.1077,4.1154,4.0746,4.0096,3.924,3.8311,3.743,3.6565,3.6059,3.5741,3.566,3.5706,3.567,3.5577,3.5546,3.5509,3.5493,3.5493,3.5493,3.5364,3.4755,3.3915,3.3012,3.2026,3.1108,3.0354,3.0076,3.0052,3.0109,3.0118,3.0095,3.008,2.9992,2.9931,2.9888,2.9732,2.9801,2.9851,2.9732,2.9801,2.9867,2.9834,2.9817,2.9801,2.9715,2.9663,2.9589,2.9589,2.9551,2.9551,2.9626,2.9451,2.9328,2.9291,2.9222,2.9112,2.8998,2.8858,2.8785,2.8785,2.8601,2.8464,2.8464,2.836,2.8308,2.8308,2.8174,2.8093,3.0873,0.0,0.0,3.2371,3.3996,3.5484,3.5353,3.6121,3.6976,3.7223,3.7894,3.8478,3.8501,3.8968,3.946,3.9814,4.0098,4.0389,4.0746,4.0036,3.9507,3.9507,3.8721,3.8721,3.9959,4.0307,4.0539,4.0771,4.1003,4.1119,4.1119,4.1351,4.139,4.1119,4.1158,4.1081,4.09,4.092,4.0953,4.0992,4.1001,4.1054,4.1093,4.1111,4.112,4.1175,4.1121,4.0578,3.9676,3.8771,3.7851,3.6957,3.6076,3.5679,3.557,3.557,3.557,3.5558,3.5534,3.5493,3.5493,3.5493,3.5353,3.4979,3.4144,3.315,3.208,3.1252,3.0447,2.9787,2.9822,2.9899,2.9962,2.9899,2.9931,2.9946,2.9834,2.9805,2.9735,2.957,2.9663,2.9717,2.957,2.9663,2.9717,2.957,2.9551,2.9551,2.9551,2.9451,2.9407,2.9407,2.9344,2.9323,2.9386,2.9344,2.928,2.92,2.92,2.9134,2.9035,2.8725,2.8601,2.8601,2.8281,2.8084,2.8084,2.8037,2.801,2.801,2.7926,2.7789,0.0,0.0,3.3058,3.4598,3.5645,3.6692,3.8226,3.8499,3.8697,3.9624,3.8991,3.8348,3.8463,3.8575,3.8705,3.8917,3.9819,4.0569,4.0759,4.0036,3.9507,3.9507,3.8721,3.8218,0.0,3.903,3.9894,4.0732,4.1506,4.197,4.197,4.2744,4.286,4.197,4.2035,4.1699,4.09,4.0952,4.0987,4.0981,4.108,4.1093,4.1105,4.1168,4.1168,4.1117,4.1093,4.0578,3.9637,3.876,3.7822,3.682,3.5945,3.556,3.5507,3.5507,3.5507,3.5507,3.5507,3.5493,3.5493,3.5493,3.493,3.4211,3.3953,3.2613,3.1101,3.096,3.0206,2.9468,2.9589,2.9607,2.9644,2.9834,2.975,2.9607,2.9589,2.9531,2.9427,2.9407,2.9407,2.9427,2.9407,2.9407,2.9427,2.9407,2.9407,2.9407,2.9407,2.9407,2.9407,2.9407,2.9344,2.9323,2.9386,2.9344,2.928,2.92,2.92,2.9134,2.9035,2.8725,2.8601,2.8601,2.8281,2.8084,2.8084,2.784,2.773,2.7701,2.7434,2.7313,0.0,0.0,3.6365,3.8098,3.8671,3.9107,4.019,3.9851,3.9203,3.9022,3.8192,3.737,3.6982,3.6952,3.7243,3.8098,3.9,3.9914,4.0681,4.0036,3.9301,3.8721,3.8373,0.0,0.0,0.0,0.0,3.9881,4.0732,4.1429,4.197,4.286,4.3221,4.295,4.2447,4.2073,4.1841,4.133,4.1101,4.1121,4.1179,4.1128,4.109,4.1123,4.1116,4.1021,4.1009,4.0771,4.0384,3.8876,3.8054,3.7565,3.6151,3.556,3.5493,3.5493,3.5436,3.5308,3.5308,3.5308,3.5308,3.5308,3.5117,3.4703,3.3946,3.2893,3.1803,3.0937,3.0064,2.9427,2.9451,2.9532,2.957,2.9551,2.9589,2.9589,2.9491,2.9411,2.9407,2.9407,2.9407,2.9407,2.9407,2.9407,2.9407,2.9407,2.9407,2.9407,2.9407,2.9407,2.9407,2.9407,2.9386,2.9386,2.9407,2.9386,2.9323,2.92,2.9007,2.8808,2.8725,2.8291,2.7982,2.7982,2.7701,2.7587,2.7587,2.7465,2.7434,2.7404,2.7345,2.7282,3.5907,3.7414,3.8839,4.0532,4.068,4.0539,4.101,4.0117,3.8945,3.8177,3.7062,3.605,3.5342,3.5286,3.5747,3.6848,3.7767,3.8852,4.014,3.9572,3.8953,3.8682,3.8411,3.8218,0.0,0.0,0.0,3.9881,4.1054,4.1944,4.2473,4.3686,4.4228,4.3896,4.3117,4.2563,4.2318,4.1529,4.1136,4.1159,4.1159,4.1143,4.1062,4.1052,4.102,4.0943,4.092,4.09,4.0732,3.8953,3.8143,3.7926,3.6228,3.5573,3.5493,3.5398,3.5324,3.519,3.519,3.5141,3.5107,3.5174,3.477,3.4127,3.3456,3.2438,3.1348,3.0468,2.982,2.9407,2.9407,2.9471,2.9531,2.9427,2.9471,2.9493,2.9427,2.9407,2.9407,2.9407,2.9407,2.9407,2.9407,2.9407,2.9407,2.9407,2.9407,2.9407,2.9407,2.9407,2.9407,2.9407,2.9407,2.9407,2.9407,2.9386,2.9323,2.92,2.8892,2.8664,2.8601,2.8045,2.7701,2.7701,2.7434,2.7282,2.7282,2.7282,2.7282,2.7282,2.7282,2.7282,3.8251,3.9499,4.045,4.1906,4.1655,4.1028,4.0829,3.9464,3.8,3.7099,3.5673,3.4339,3.3449,3.3677,3.4263,3.5136,3.6253,3.756,3.9313,3.8876,3.8682,0.0,0.0,0.0,0.0,0.0,0.0,4.0834,0.0,4.3389,4.3479,4.5156,4.5723,4.4908,4.4079,4.3247,4.2377,4.1534,4.1081,4.0951,4.0938,4.0936,4.0935,4.0925,4.0938,4.09,4.09,4.0848,4.0655,3.8902,3.8131,3.7926,3.6228,3.556,3.5479,3.5293,3.519,3.5174,3.5157,3.5054,3.4927,3.5107,3.405,3.2714,3.273,3.1492,2.9948,2.9719,2.9531,2.9407,2.9407,2.9407,2.9407,2.9407,2.9407,2.9407,2.9407,2.9407,2.9407,2.9407,2.9407,2.9407,2.9407,2.9407,2.9407,2.9407,2.9407,2.9407,2.9407,2.9407,2.9407,2.9407,2.9407,2.9386,2.9386,2.9323,2.928,2.9156,2.8845,2.8626,2.8551,2.8017,2.7672,2.7672,2.7404,2.7282,2.7282,2.7282,2.7282,2.7282,2.7282,2.7282,3.9987,4.151,4.271,4.3199,4.2597,4.158,4.0349,3.8672,3.6798,3.4771,3.3146,3.1442,2.9497,3.0841,3.2543,3.3512,3.6029,0.0,4.023,4.0771,0.0,4.05,0.0,4.1828,4.1183,4.1772,0.0,0.0,4.2615,4.307,4.437,4.5541,4.6073,4.5828,4.5053,4.4217,4.3339,4.1201,3.9801,3.9077,3.9081,3.9375,3.9945,3.9956,4.028,4.081,4.081,4.081,4.0655,3.8747,3.7998,3.7858,3.6056,3.536,3.533,3.5254,3.5086,3.4964,3.4811,3.473,3.4689,3.473,3.4449,3.3978,3.3504,3.2522,3.1412,3.0753,2.9999,2.9407,2.9407,2.9407,2.9407,2.9407,2.9407,2.9407,2.9407,2.9407,2.9407,2.9407,2.9407,2.9407,2.9407,2.9407,2.9407,2.9407,2.9407,2.9407,2.9407,2.9407,2.9407,2.9407,2.9407,2.9265,2.8971,2.9178,2.9067,2.8489,2.8386,2.8201,2.7926,2.7587,2.7407,2.7407,2.7345,2.7282,2.7282,2.7282,2.7282,2.7282,2.7282,2.7282,4.1652,4.3014,4.3879,4.3605,4.2536,4.1054,3.9058,3.6979,3.4545,3.1354,3.0069,2.8707,2.5907,2.7934,3.0335,0.0,0.0,0.0,3.9379,4.0384,4.1003,0.0,4.2215,0.0,4.2723,4.3228,4.37,0.0,4.3676,4.3807,4.4802,4.5741,4.6224,4.6224,4.5078,4.3643,4.2011,4.0117,3.8908,3.8369,3.8373,3.8771,3.9545,3.9545,3.9973,4.0668,4.0668,4.064,4.0429,3.8562,3.7824,3.774,3.5921,3.5184,3.5152,3.5051,3.4889,3.4751,3.4517,3.4427,3.445,3.4561,3.4358,3.3987,3.3787,3.2747,3.16,3.1235,3.0411,2.9589,2.9531,2.9491,2.9471,2.9427,2.9407,2.9407,2.9407,2.9407,2.9407,2.9407,2.9407,2.9407,2.9407,2.9407,2.9407,2.9407,2.9407,2.9407,2.9407,2.9407,2.9365,2.9302,2.92,2.903,2.87,2.8761,2.8639,2.8228,2.8065,2.7897,2.7701,2.7434,2.7282,2.7282,2.7282,2.7282,2.7282,2.7282,2.7282,2.7282,2.7282,2.7218,4.3139,4.3966,4.412,4.3182,4.1717,3.9802,3.7211,3.4583,3.1616,2.7674,0.0,2.5843,2.2811,2.5226,2.8045,2.9128,0.0,3.5317,3.7986,3.9108,4.023,4.1816,4.2176,4.2621,4.3413,4.3568,4.3956,4.4766,4.4781,4.4849,4.5082,4.5629,4.5898,4.5781,4.4214,4.2167,3.9641,3.8662,3.8175,3.8114,3.8114,3.8617,3.9507,3.9482,3.9857,4.0492,4.0477,4.0338,3.9994,3.8265,3.758,3.7424,3.5678,3.4999,3.4963,3.4735,3.463,3.4561,3.4274,3.4179,3.4264,3.4473,3.403,3.3456,3.3747,3.259,3.1235,3.1333,3.0624,2.9817,2.9662,2.9607,2.9589,2.9451,2.9427,2.9407,2.9407,2.9407,2.9407,2.9407,2.9407,2.9407,2.9407,2.9407,2.9407,2.9407,2.9407,2.9407,2.9386,2.9386,2.9323,2.9112,2.8938,2.87,2.8453,2.8272,2.8174,2.8093,2.784,2.7672,2.7642,2.7404,2.7282,2.7282,2.7282,2.7282,2.7282,2.7282,2.7282,2.7282,2.7282,2.712,4.4247,4.4003,4.3144,4.1605,3.999,3.7925,3.4771,3.1579,0.0,0.0,2.3676,2.1998,2.0738,2.3493,2.6652,2.8934,3.2184,3.5549,3.8798,3.9997,4.0965,0.0,4.2756,4.3349,4.3557,4.3647,0.0,0.0,4.3899,4.456,4.5966,4.4842,4.3828,4.3086,4.2064,4.0593,3.8662,3.7721,3.7196,3.7135,3.7135,3.7986,3.9495,3.9405,3.9774,4.0477,4.0383,0.0,3.9227,3.7909,3.7034,3.6368,3.5171,3.4695,3.4753,3.4634,3.4609,3.4561,3.4274,3.4179,3.4216,3.4227,3.4176,3.3962,3.3535,3.261,3.1607,3.1273,3.0444,2.9662,2.9801,2.9715,2.957,2.9589,2.9491,2.9407,2.9407,2.9407,2.9407,2.9407,2.9407,2.9407,2.9407,2.9407,2.9407,2.9407,2.9407,2.9386,2.9323,2.9365,2.9323,2.9112,2.8938,2.8603,2.8147,2.8174,2.7982,2.7496,2.7582,2.7582,2.7376,2.7313,2.7282,2.7282,2.7282,2.7282,2.7282,2.7282,2.7282,2.7282,2.7282,2.725,4.3879,4.3649,4.2881,4.1229,3.9239,3.6573,3.2405,0.0,0.0,0.0,2.0683,1.9468,1.7805,2.0804,0.0,2.5685,2.9205,3.3112,3.698,3.8218,0.0,4.1841,4.2543,4.302,0.0,4.3665,4.3704,4.3711,4.3281,4.3594,4.4883,4.3711,4.2609,4.1758,4.0828,3.9723,3.8369,3.7893,3.7611,3.7599,3.7599,3.8257,3.9495,3.9353,3.9692,4.0345,3.9753,3.9204,3.867,3.7112,3.6293,3.5886,3.4867,3.4524,3.4545,3.4502,3.4435,3.4381,3.4227,3.4311,3.433,3.3881,3.3939,3.4102,3.3614,3.2763,3.1853,3.1276,3.0461,2.975,2.9732,2.9662,2.9589,2.9493,2.9511,2.9513,2.9626,2.9645,2.9626,2.9513,2.9493,2.9491,2.9427,2.9407,2.9407,2.9407,2.9407,2.9386,2.9365,2.9344,2.9222,2.8929,2.8737,2.8453,2.8045,2.7904,2.7701,2.7404,2.7465,2.7434,2.7282,2.7282,2.7282,2.7282,2.7282,2.7282,2.7282,2.7282,2.7282,2.7282,2.7282,2.7154,4.301,4.2908,4.2355,4.0666,3.8413,3.5296,3.049,2.7223,0.0,0.0,1.8211,1.7428,1.5666,0.0,2.1346,0.0,2.6304,3.025,3.4543,3.6168,3.7897,0.0,4.1557,0.0,4.2731,4.2846,0.0,4.2891,4.207,4.1953,4.2851,4.2578,4.1846,4.0583,3.9993,3.9246,3.8307,3.8218,3.8295,3.8489,3.8489,3.8953,3.9765,3.9469,3.9585,4.0027,3.8956,3.8325,3.7936,3.6437,3.5732,3.549,3.472,3.4404,3.4358,3.4358,3.4311,3.4179,3.4179,3.4358,3.4367,3.3564,3.3649,3.3941,3.3223,3.2468,3.1674,3.0976,3.0309,2.9801,2.968,2.9626,2.957,2.9411,2.9491,2.9608,2.977,2.9839,2.9767,2.9608,2.9589,2.957,2.9427,2.9386,2.9386,2.9386,2.9365,2.9365,2.9344,2.9302,2.9134,2.8761,2.859,2.8386,2.8025,2.7736,2.7526,2.7465,2.7376,2.7282,2.7282,2.7282,2.7282,2.7282,2.7282,2.7282,2.7282,2.7282,2.7282,2.7282,2.7282,2.7057,4.2084,4.1669,4.0628,3.8939,3.6648,3.3719,2.9458,0.0,0.0,1.9075,1.6762,1.5429,1.6086,1.7207,1.9406,0.0,0.0,2.8423,3.2754,3.5394,3.7046,3.7409,0.0,0.0,4.0228,4.0194,4.0234,4.0234,3.9453,3.9336,4.0195,4.1601,4.1293,3.8825,3.9364,3.9259,3.8322,3.8206,3.8605,3.9379,3.9379,3.9843,4.0655,3.9739,3.9321,3.9345,3.8235,3.7385,0.0,3.6348,3.5666,3.4806,3.4663,3.445,3.4203,3.4203,3.4203,3.4179,3.4179,3.424,3.4139,3.3505,3.3446,3.3318,3.16,3.0978,3.0733,2.9945,2.9682,2.9662,2.9817,2.9732,2.957,2.9411,2.9407,2.9427,2.9448,2.9532,2.9589,2.9431,2.9513,2.957,2.9427,2.9344,2.9302,2.9302,2.928,2.9178,2.9134,2.9178,2.9089,2.881,2.8737,2.8474,2.7954,2.7789,2.7587,2.7313,2.7313,2.7282,2.7282,2.7282,2.7282,2.7282,2.7282,2.7282,2.7282,2.7282,2.7282,2.7282,2.7282,2.725,4.0427,4.0378,3.969,3.8,3.5709,3.2668,2.8012,0.0,2.1441,1.8399,1.6224,1.5041,1.5506,1.631,1.7998,0.0,2.29,2.5376,3.0133,3.2145,3.3914,3.6033,3.7693,0.0,0.0,0.0,3.9101,3.9101,3.8789,3.8516,3.8359,3.9453,3.9591,3.8469,3.875,3.8682,3.8245,3.8721,3.9146,3.9507,3.9507,3.97,3.9959,3.8979,3.8537,3.8445,3.7343,3.6687,0.0,3.5703,3.4812,3.3857,3.3815,3.3365,3.2804,3.3287,3.3473,3.3547,3.403,3.3939,3.3537,3.2814,3.2355,3.1972,3.122,3.0958,3.0807,3.0031,2.9767,2.9784,2.9905,2.9817,2.9784,2.9817,2.9817,2.9851,2.9984,3.006,3.003,2.9753,2.9753,2.9699,2.937,2.9323,2.9302,2.9259,2.92,2.9178,2.9156,2.9134,2.9089,2.8975,2.8881,2.8676,2.8344,2.821,2.8073,2.7961,2.7707,2.7557,2.7557,2.7407,2.7282,2.7282,2.7282,2.7282,2.7282,2.7282,2.7282,2.7282,2.7282,2.7186,3.7859,3.8112,3.7774,3.6348,3.432,3.1429,0.0,2.3694,2.0952,1.7648,1.5819,1.4925,1.5078,1.56,1.6894,0.0,2.0966,2.3294,2.789,2.994,3.1864,0.0,0.0,3.6968,0.0,3.8003,3.8125,3.7851,3.7812,3.7695,3.7305,3.811,3.8541,3.841,3.8908,3.8992,3.8605,3.9185,3.9379,3.9108,3.9108,3.9134,3.9096,3.8092,3.7651,3.7574,3.6511,3.5916,0.0,3.4954,3.4053,3.3072,3.3072,3.2616,3.2035,3.2857,3.3007,3.2932,3.3754,3.3564,3.2861,3.2071,3.1522,3.1124,3.0896,3.0788,3.0608,3.0007,2.9834,2.9921,2.9921,2.9921,2.9915,3.0022,3.0037,3.0066,3.0215,3.0292,3.0202,2.9915,2.9883,2.9801,2.9431,2.9328,2.9286,2.9178,2.9156,2.9134,2.9134,2.9089,2.9067,2.9067,2.8975,2.8834,2.8637,2.85,2.837,2.821,2.7904,2.7672,2.7552,2.7407,2.7282,2.7282,2.7282,2.7282,2.7282,2.7282,2.7282,2.7282,2.7282,2.7186,3.4229,3.4658,3.447,3.3644,3.218,2.9852,0.0,2.2792,2.0089,1.6784,1.5423,1.484,1.5064,1.5092,1.5996,1.8666,2.0502,2.2784,2.6218,2.966,3.1835,0.0,0.0,3.5825,3.5908,3.6785,3.6953,3.6094,3.6016,0.0,3.7266,3.8074,3.8451,3.8403,4.0072,4.0513,3.9507,3.9507,3.9069,3.8218,3.8221,3.8208,3.817,3.7244,3.6807,3.6768,3.5881,3.5021,0.0,3.4212,3.3566,3.2615,3.2615,3.2466,3.2409,3.3279,3.3052,3.2446,3.3317,3.3052,3.2181,3.1366,3.1255,3.1226,3.0362,3.0007,2.9872,2.9644,2.9732,2.9921,2.9921,2.9921,2.9921,2.9883,2.9883,2.9883,2.9883,3.0015,3.0045,2.9834,2.9915,2.9883,2.9551,2.9434,2.9312,2.9134,2.9021,2.8998,2.8998,2.8975,2.8975,2.8975,2.8975,2.8881,2.8626,2.8601,2.8344,2.776,2.7701,2.7587,2.7313,2.7282,2.7282,2.7282,2.7282,2.7282,2.7282,2.7282,2.7282,2.7282,2.7282,2.7282,2.9544,3.0092,3.0054,2.8077,2.714,2.5769,2.2171,2.0753,1.9413,1.6672,1.5423,1.484,1.5064,1.5092,1.638,2.0257,2.1282,0.0,0.0,0.0,0.0,3.1681,3.4193,3.582,0.0,0.0,3.6289,3.6016,3.6016,3.6367,3.7266,3.6969,3.7538,3.9228,3.919,3.9004,3.8605,3.8025,3.7599,3.7328,3.7293,3.732,3.7281,3.6344,3.5894,3.5856,3.5008,3.4456,3.4148,3.3558,3.2697,3.179,3.179,3.1318,3.0776,3.1593,3.1707,3.1593,3.2409,3.2144,3.1442,3.1176,3.0772,3.0326,3.0076,3.0104,3.0215,3.0161,3.0188,3.0228,3.0228,3.0228,3.0228,3.0228,3.0215,3.0163,3.0163,3.0202,3.0199,2.9977,2.9977,2.9915,2.9681,2.9626,2.9532,2.927,2.9228,2.9141,2.8998,2.8975,2.8975,2.8975,2.8975,2.8952,2.8881,2.8881,2.881,2.8601,2.8422,2.8291,2.821,2.7789,2.7587,2.7587,2.7407,2.7282,2.7282,2.7282,2.7282,2.7282,2.7282,2.7186,0.0,2.5876,2.5876,2.4327,2.3681,2.2674,1.9974,1.9099,1.8237,1.6071,1.5198,1.484,1.5064,1.5092,1.6227,1.9677,2.0734,2.2513,0.0,0.0,0.0,3.1584,0.0,0.0,0.0,3.5742,3.5859,3.5547,3.5508,3.5742,3.6289,3.5783,3.6345,3.8229,3.7674,3.7135,3.6725,3.6195,3.5759,3.5438,3.5415,3.543,3.5391,3.4802,3.4507,3.4507,3.3943,3.3545,0.0,3.266,3.1879,3.1033,3.1033,3.0633,3.0204,3.1005,3.1104,3.0952,3.179,3.1524,3.0837,3.0837,3.0509,3.009,3.009,3.0188,3.0279,3.0367,3.0379,3.0379,3.0379,3.0379,3.0367,3.0367,3.0343,3.0292,3.0292,3.0292,3.024,3.0118,3.009,3.0015,2.9822,2.9717,2.957,2.9353,2.9249,2.9119,2.8998,2.8975,2.8975,2.8975,2.8975,2.8975,2.8975,2.8975,2.8952,2.8858,2.8676,2.85,2.8291,2.7904,2.7642,2.7557,2.7407,2.7282,2.7282,2.7282,2.7282,2.7282,2.7282,2.7152,0.0,2.196,2.2036,2.1922,2.1331,2.0313,1.8693,1.7756,0.0,1.5085,1.471,1.4849,1.5216,1.5176,1.5805,1.8009,1.9651,2.1855,0.0,2.7194,0.0,0.0,3.339,0.0,3.4485,3.5234,3.5391,3.4648,3.4609,3.4648,3.4687,3.4529,3.484,3.5698,3.5546,3.5095,3.4318,3.4229,3.3793,3.2987,3.3003,3.2979,3.2979,3.2942,3.2891,0.0,3.2852,3.2391,3.1698,3.1621,3.1121,3.0379,3.0379,3.0379,3.0494,3.1314,3.1121,3.0533,3.1352,3.1083,3.0379,3.0379,3.0379,3.0379,3.0379,3.0254,3.015,3.0343,3.0379,3.0379,3.0379,3.0355,3.0304,3.0304,3.0318,3.0292,3.0292,3.0253,3.0188,3.0188,3.0213,3.0142,2.9937,2.9787,2.957,2.9357,2.9163,2.9021,2.9021,2.8998,2.8975,2.8975,2.8975,2.8975,2.8975,2.8975,2.8881,2.8626,2.8626,2.8396,2.7818,2.7789,2.7642,2.7407,2.7345,2.7313,2.7313,2.7313,2.7282,2.7282,2.7282,2.7218,1.6611,0.0,1.8402,1.7136,1.7101,1.715,0.0,1.6166,1.5979,1.43,0.0,1.4576,1.6658,1.6007,1.7048,2.2701,2.3434,2.4508,2.7915,0.0,0.0,3.1748,3.2821,3.3519,3.3541,3.3796,3.3906,3.3711,3.3711,3.3984,3.4677,3.3424,3.3102,3.3977,3.2678,3.2757,3.4362,3.3661,3.3191,3.2987,3.3003,3.2979,3.2979,3.2942,3.2891,3.2852,3.2237,3.1891,3.166,3.0968,3.0571,3.0379,3.0379,3.0379,3.0417,3.0621,3.0571,3.0417,3.0609,3.0571,3.0379,3.0379,3.0367,3.0316,3.0316,3.0292,3.0279,3.0304,3.033,3.0318,3.0318,3.0305,3.0305,3.0305,3.0279,3.0202,3.0202,3.0226,3.0199,3.0199,3.0199,3.0171,3.0142,3.0098,2.9984,2.9805,2.9608,2.9377,2.9249,2.9112,2.8975,2.8975,2.8975,2.8975,2.8975,2.8975,2.8952,2.8905,2.8905,2.8858,2.8676,2.85,2.837,2.8291,2.7847,2.7617,2.7617,2.7407,2.725,2.7152,2.7152,2.712,1.5092,1.6323,1.7393,1.6476,1.6551,1.6747,1.6252,0.0,0.0,0.0,0.0,1.4803,1.6633,1.6559,1.7815,2.2786,2.389,0.0,0.0,0.0,3.1797,3.1845,3.2619,3.3151,0.0,3.3258,3.3171,3.2812,3.2812,3.2849,3.2959,3.2055,3.1769,3.2221,3.1265,3.137,3.2679,3.221,3.1923,3.1873,3.1851,3.1857,3.18,3.1775,3.1737,3.1737,3.1275,3.1121,3.1083,3.0571,3.0379,3.0379,3.0379,3.0379,3.0379,3.0379,3.0379,3.0379,3.0379,3.0379,3.0379,3.0379,3.0379,3.0328,3.0316,3.0292,3.0279,3.0279,3.0305,3.0292,3.0292,3.0279,3.0266,3.0266,3.024,3.0213,3.0213,3.0199,3.0185,3.0185,3.0185,3.0185,3.0185,3.0128,3.0038,2.9905,2.9735,2.9551,2.9436,2.9353,2.927,2.927,2.9185,2.9156,2.9156,2.9044,2.8975,2.8975,2.8975,2.8929,2.8834,2.8676,2.8525,2.836,2.801,2.7847,2.7847,2.7557,2.7341,2.731,2.7152,2.7023,1.5054,1.6605,1.7971,1.7385,1.7369,1.7449,1.7183,0.0,0.0,0.0,0.0,0.0,0.0,1.7434,0.0,0.0,0.0,0.0,2.9012,3.0704,3.1622,3.17,3.228,0.0,3.2812,3.2812,3.2558,3.1953,3.1911,3.1634,3.0931,3.0884,3.0919,3.088,3.0774,3.0701,3.0703,3.0678,3.063,3.05,3.05,3.0492,3.0436,3.0436,3.0436,3.0436,3.0436,0.0,3.0436,3.0436,3.0436,3.0436,3.0436,3.0436,3.0436,3.0436,3.0436,3.0436,3.0436,3.0436,3.0436,3.0436,3.0425,3.0425,3.0364,3.0328,3.033,3.033,3.0305,3.0279,3.0305,3.0241,3.0215,3.0241,3.0228,3.0253,3.0253,3.024,3.0226,3.0226,3.0199,3.0185,3.0185,3.0068,2.9937,2.9937,2.9787,2.9663,2.9663,2.9607,2.9589,2.9589,2.9436,2.9373,2.9373,2.9185,2.9089,2.9089,2.9021,2.8905,2.8651,2.8651,2.8525,2.8255,2.812,2.8037,2.8037,2.773,2.7557,2.7557,2.7247,2.7055,1.4901,1.7785,1.9736,1.6322,1.6544,1.7194,1.5773,0.0,0.0,0.0,0.0,0.0,0.0,2.0079,2.1308,0.0,0.0,2.8879,0.0,0.0,3.0629,3.0732,0.0,3.0926,3.0994,3.1067,3.1065,3.0984,3.1054,3.1038,3.0921,3.0919,3.088,3.0801,3.0796,3.0794,3.0788,3.0675,3.0613,3.0598,3.0598,3.0591,3.0576,3.0576,3.0576,3.0576,0.0,3.0576,3.0576,3.0576,3.0576,3.0576,3.0576,3.0576,3.0576,3.0576,3.0576,3.0576,3.0576,3.0576,3.0576,3.0552,3.0574,3.0548,3.0491,3.0463,3.0482,3.0482,3.034,3.0226,3.0304,3.029,3.0314,3.0413,3.0433,3.0433,3.0433,3.0359,3.0278,3.0278,3.0228,3.0185,3.0185,3.0171,3.0157,3.0157,2.9969,2.9855,2.9855,2.9717,2.9589,2.9589,2.9551,2.9533,2.9533,2.9551,2.9494,2.9494,2.9185,2.8975,2.8929,2.8881,2.8834,2.8773,2.85,2.8344,2.8344,2.7982,2.7818,2.776,2.7701,2.7491,1.4182,1.6421,1.8194,1.6704,1.8882,2.1066,1.9847,0.0,0.0,0.0,0.0,0.0,0.0,0.0,2.3296,2.7561,0.0,3.0006,3.0337,3.039,3.0402,0.0,0.0,3.052,3.0535,3.0637,3.0703,3.0724,3.0771,3.082,3.0841,3.0841,3.0841,3.0801,3.0801,3.0801,3.0801,3.0732,3.0701,3.0631,3.0631,3.0633,3.0552,3.0598,3.0568,3.0511,0.0,3.0591,3.0552,3.0598,3.0613,3.0613,3.0613,3.0613,3.0613,3.0613,3.0613,3.0613,3.0613,3.0605,3.0598,3.0583,3.0607,3.0582,3.0527,3.0509,3.05,3.0482,3.0451,3.0375,3.0392,3.0402,3.0413,3.0511,3.052,3.052,3.052,3.0443,3.0402,3.0402,3.0359,3.034,3.0267,3.0254,3.0228,3.0199,3.0128,3.0068,3.0068,2.9969,2.9921,2.9921,2.9839,2.977,2.977,2.9644,2.9533,2.9377,2.9206,2.903,2.8881,2.8858,2.8858,2.8858,2.8662,2.8551,2.8551,2.8174,2.801,2.7954,2.7818,2.7552,1.3838,1.5323,1.6742,1.748,2.0339,2.2899,2.2832,2.1965,0.0,0.0,0.0,0.0,0.0,2.3554,0.0,2.8449,2.9702,3.0328,3.034,3.0355,3.0355,3.0364,3.043,3.0443,3.0492,3.0582,3.0691,3.0664,3.0721,3.0739,3.081,3.0804,3.0801,3.0801,3.0801,3.0801,3.0801,3.0801,3.0752,3.0724,3.0724,3.0681,3.0576,3.0639,3.0598,3.0511,3.0613,3.0633,3.0583,3.0639,3.0664,3.0664,3.0664,3.0664,3.0664,3.0664,3.0658,3.0658,3.0631,3.0664,3.0646,3.0658,3.0639,3.0651,3.0598,3.0583,3.0576,3.0568,3.0568,3.056,3.0527,3.0518,3.0518,3.0582,3.0582,3.0582,3.0582,3.0565,3.0518,3.0518,3.05,3.0453,3.037,3.0348,3.0314,3.0267,3.0253,3.024,3.024,3.0213,3.0185,3.0185,3.0083,2.9953,2.9937,2.9822,2.9589,2.9316,2.9312,2.9185,2.8998,2.8905,2.8858,2.8858,2.87,2.8687,2.8687,2.836,2.8228,2.8228,2.8017,2.776,1.4558,1.6035,1.7367,1.8226,1.8214,0.0,2.0549,1.9798,0.0,2.2525,0.0,0.0,0.0,2.6851,2.8416,2.9607,2.9939,3.008,3.0199,0.0,3.0226,3.0292,3.0304,3.0348,3.0384,3.0521,3.0631,3.0603,3.0733,3.0781,3.0781,3.0811,3.0801,3.0801,3.0801,3.0801,3.0801,3.0801,3.0799,3.0799,3.0799,3.0796,3.0791,3.0794,3.0794,3.0788,3.0794,3.0794,3.0791,3.0794,3.0794,3.0794,3.0794,3.0794,3.0794,3.0794,3.0791,3.0791,3.0808,3.081,3.0806,3.0775,3.0808,3.0791,3.0785,3.0763,3.0779,3.0774,3.0781,3.0767,3.0639,3.0605,3.062,3.0759,3.0769,3.0769,3.0769,3.0691,3.0605,3.0605,3.0543,3.052,3.0511,3.0511,3.0463,3.0501,3.037,3.029,3.029,3.0228,3.0185,3.0185,3.0185,3.0157,3.0075,3.006,2.9953,2.9699,2.9551,2.9454,2.9434,2.9148,2.8993,2.8993,2.8725,2.8612,2.8612,2.8587,2.8562,2.8562,2.8562,2.837,1.2376,1.4166,1.6003,1.731,1.7807,0.0,0.0,2.3214,2.4025,2.5838,2.6228,0.0,0.0,0.0,2.8612,2.942,2.9662,2.9817,2.9984,3.0,3.0083,3.0213,3.0267,3.0302,3.0332,3.0424,3.0521,3.0592,3.0633,3.0707,3.0811,3.0818,3.0781,3.0818,3.0818,3.0814,3.0801,3.0801,3.0801,3.0801,3.0801,3.0791,3.0735,3.0794,3.0739,3.0691,3.0746,3.0791,3.0735,3.0794,3.0801,3.0801,3.0801,3.0799,3.0796,3.0808,3.0801,3.0788,3.0808,3.0804,3.0785,3.0791,3.0781,3.081,3.0788,3.0785,3.0781,3.0806,3.081,3.0806,3.0749,3.0703,3.0746,3.0796,3.0799,3.0799,3.0799,3.0778,3.0715,3.0715,3.0714,3.0658,3.0576,3.0568,3.0552,3.053,3.0443,3.0423,3.0423,3.0381,3.0364,3.0279,3.0174,3.0128,3.0098,3.0068,2.9969,2.9888,2.9717,2.9551,2.9394,2.9233,2.9169,2.9169,2.9097,2.8984,2.8858,2.8858,2.8761,2.8587,2.8587,2.8422,1.2045,1.3437,1.5057,1.6828,0.0,0.0,2.3118,2.4652,2.581,2.7669,2.7919,2.7911,2.8132,0.0,0.0,0.0,2.9397,2.957,2.9787,2.9855,2.9937,3.0098,3.0188,3.0254,3.0254,3.0352,3.0423,3.0505,3.0552,3.0619,3.0732,3.0746,3.0762,3.0818,3.0818,3.0781,3.0818,3.0818,3.0818,3.0818,3.0818,3.0769,3.0732,3.0762,3.0755,3.0667,3.0767,3.0774,3.0723,3.0775,3.0817,3.0814,3.0811,3.081,3.0808,3.0817,3.0813,3.0799,3.0814,3.0811,3.0796,3.0804,3.0799,3.0791,3.0806,3.0806,3.0806,3.0818,3.0819,3.0781,3.0781,3.0819,3.0817,3.0817,3.0817,3.0817,3.0817,3.081,3.0801,3.0801,3.0788,3.0763,3.0681,3.067,3.0652,3.0614,3.0543,3.0527,3.0527,3.05,3.0443,3.0348,3.0254,3.0185,3.0166,3.0083,3.0038,2.9991,2.9839,2.9699,2.9475,2.9416,2.9377,2.9377,2.9291,2.9141,2.9021,2.8892,2.8785,2.8587,2.8587,2.833,1.4262,1.4389,1.4839,0.0,0.0,0.0,2.2723,2.2948,2.3574,2.7352,2.7723,2.7671,2.8431,2.8177,0.0,2.9122,2.9312,2.9357,2.9551,2.977,2.9888,2.9888,3.0083,3.0185,3.0185,3.0241,3.0304,3.0304,3.0424,3.0545,3.0601,3.0619,3.0657,3.0799,3.0799,3.0799,3.0801,3.0799,3.0799,3.0801,3.0799,3.0818,3.0801,3.0818,3.0781,3.0781,3.081,3.0801,3.0801,3.0799,3.0808,3.0817,3.0781,3.0781,3.0781,3.0781,3.0781,3.0781,3.0818,3.0818,3.0818,3.0806,3.0811,3.0818,3.0818,3.0781,3.0818,3.0781,3.0818,3.0817,3.0804,3.0818,3.0817,3.0817,3.0817,3.0817,3.0817,3.0817,3.0817,3.0817,3.0817,3.0813,3.0796,3.0794,3.0785,3.0789,3.0697,3.0613,3.0613,3.0543,3.0463,3.0413,3.0386,3.033,3.0199,3.0185,3.0128,2.9905,2.9888,2.9888,2.9888,2.9717,2.9589,2.9589,2.9228,2.9021,2.9021,2.8761,2.8612,2.8612,2.8612,2.8178,1.2004,1.3917,0.0,1.6574,0.0,0.0,0.0,2.4186,0.0,0.0,2.796,2.7968,2.8183,2.8092,0.0,2.8417,2.8453,2.8628,2.9045,2.9153,2.9319,2.9644,2.9872,2.9969,2.9969,3.0118,3.0266,3.0304,3.0325,3.0402,3.0443,3.047,3.049,3.0601,3.0601,3.0598,3.0657,3.0598,3.0598,3.0657,3.0594,3.0661,3.0817,3.0813,3.081,3.0771,3.071,3.0657,3.0657,3.0594,3.0589,3.0598,3.065,3.0661,3.0664,3.065,3.0664,3.0643,3.0657,3.0664,3.0677,3.0671,3.0674,3.0677,3.0657,3.0657,3.0657,3.0662,3.0653,3.0653,3.0675,3.0653,3.0685,3.0769,3.0814,3.0814,3.0814,3.0818,3.0781,3.0781,3.0819,3.0816,3.0811,3.0811,3.0806,3.0785,3.0771,3.0711,3.0697,3.0622,3.0539,3.0472,3.0375,3.0292,3.0266,3.0266,3.024,3.0199,3.0075,2.9984,2.9905,2.9839,2.9822,2.9822,2.968,2.9551,2.9416,2.9336,2.8915,2.819,2.8072,2.7565,1.2323,1.4453,0.0,1.7463,1.9633,2.1977,2.3274,0.0,0.0,0.0,2.7138,2.7093,2.7437,2.7315,0.0,2.7606,2.7515,2.7558,2.7861,2.7851,2.7978,2.8331,2.8839,2.9207,2.9276,2.9779,2.9975,2.9664,3.0023,3.0138,2.9886,3.0194,3.0402,3.0461,3.0461,3.0466,3.051,3.0474,3.0474,3.051,3.0474,3.0535,3.0637,3.0658,3.0667,3.0667,3.0574,3.051,3.051,3.0489,3.0489,3.0496,3.0562,3.058,3.0598,3.0613,3.0592,3.0619,3.0592,3.0603,3.0585,3.0585,3.0585,3.0619,3.0592,3.058,3.0613,3.0587,3.0613,3.0613,3.0613,3.0613,3.0633,3.0706,3.0735,3.0746,3.0746,3.0765,3.0814,3.0814,3.0818,3.0781,3.0781,3.0781,3.0818,3.0808,3.0804,3.0794,3.0759,3.0709,3.0644,3.0586,3.049,3.0414,3.0355,3.0355,3.033,3.0292,2.9882,2.9622,2.955,2.9763,2.9888,2.9888,2.9519,2.9245,2.9138,2.8708,2.8146,2.7526,2.7442,2.6938,1.4039,1.5526,0.0,1.9026,2.0169,0.0,2.3096,2.4671,2.573,2.587,0.0,2.5379,2.6218,2.5939,2.5853,2.6599,2.6393,2.6177,2.6205,2.6111,2.6145,2.6365,2.7261,2.796,2.8201,2.9108,2.9342,2.8547,2.9383,2.9625,2.895,2.9679,3.0151,3.0232,3.0271,3.0359,3.0381,3.037,3.0381,3.0392,3.0381,3.0381,3.0381,3.0461,3.0505,3.0496,3.0433,3.0381,3.037,3.0413,3.0443,3.0424,3.0479,3.0505,3.0529,3.0529,3.0529,3.0529,3.0529,3.0529,3.0537,3.0545,3.0545,3.0545,3.0591,3.0591,3.0591,3.0591,3.0591,3.0591,3.0591,3.0591,3.0591,3.0591,3.0658,3.0706,3.0701,3.0739,3.0799,3.0796,3.0799,3.0806,3.0817,3.0818,3.0781,3.0818,3.0817,3.0813,3.0801,3.0785,3.0779,3.0715,3.0643,3.053,3.0342,3.0293,3.026,3.0087,2.9346,2.8912,2.8912,2.9398,2.9693,2.9693,2.881,2.8347,2.831,2.7345,2.6823,2.6748,2.6729,2.6284,1.2785,1.4633,0.0,0.0,1.9837,2.1621,2.2568,2.2823,2.3117,2.3943,2.405,2.4116,2.4513,2.4281,2.4214,2.4609,2.4538,2.4594,2.4863,2.5045,2.527,2.5618,2.6358,2.6868,2.6908,2.7436,2.77,2.7511,2.7695,2.7781,2.7607,2.8364,2.8817,2.8812,2.9472,2.9908,3.0084,3.008,3.0174,3.034,3.0254,3.0253,3.0266,3.037,3.0402,3.0337,3.0314,3.019,2.9992,3.0007,2.9946,2.9813,2.9855,2.9886,2.9916,3.0028,3.0042,3.0042,3.0042,3.0042,3.007,3.0177,3.0203,3.0227,3.0398,3.0419,3.0419,3.0419,3.0419,3.0419,3.0419,3.0419,3.0419,3.0419,3.0583,3.0697,3.0613,3.0715,3.0794,3.0728,3.0746,3.0801,3.0806,3.0806,3.0811,3.0781,3.082,3.0813,3.0801,3.0785,3.0754,3.0703,3.0637,3.0318,2.9689,2.9573,2.9255,2.8541,2.8289,2.8132,2.8132,2.8171,2.8173,2.8173,2.7913,2.778,2.778,2.7509,2.6994,2.6337,2.6172,2.5656,1.232,0.0,0.0,1.8013,0.0,2.0839,2.1069,2.1088,2.1191,2.1565,2.2276,2.2893,2.3035,2.2929,2.2893,2.3035,2.2921,2.2898,2.3225,2.3207,2.342,2.4007,2.4726,2.5314,2.5578,2.6351,2.6693,2.6321,2.6727,2.6889,2.658,2.7226,2.7676,2.7821,2.8683,2.9183,2.9276,2.9699,2.9937,3.0075,3.0053,3.0007,2.9953,3.0095,3.0109,2.9977,2.9977,2.9883,2.977,2.977,2.9735,2.9626,2.9697,2.9732,2.9767,2.9851,2.9921,2.9921,2.9921,2.9921,2.9899,2.9977,3.0007,3.0022,3.0133,3.0161,3.0161,3.0161,3.0161,3.0161,3.0161,3.0161,3.0174,3.0241,3.0414,3.0605,3.0568,3.067,3.0728,3.0681,3.0728,3.0796,3.0742,3.0791,3.0799,3.076,3.0774,3.082,3.0859,3.0468,3.0183,3.0131,2.9706,2.928,2.8818,2.8702,2.847,2.8014,2.7584,2.7325,2.7325,2.6892,2.6984,2.7699,2.723,2.6988,2.6988,2.6512,2.6091,2.5622,2.5513,2.5242,1.1922,0.0,1.5205,1.8065,1.9204,0.0,1.9479,1.9654,1.9762,1.9508,2.0565,2.1614,2.1652,2.1614,2.1614,2.1652,2.1424,2.1338,2.155,2.1311,2.1423,2.2207,2.298,2.363,2.412,2.5213,2.5643,2.4944,2.5721,2.6005,2.5497,2.608,2.6525,2.6747,2.7605,2.809,2.8108,2.882,2.9194,2.923,2.9362,2.9439,2.9476,2.9644,2.9644,2.9533,2.9514,2.9438,2.9399,2.9399,2.9418,2.9475,2.9457,2.9476,2.9532,2.966,2.9732,2.975,2.9822,2.9822,2.9839,2.9817,2.9834,2.9834,2.9905,2.9921,2.9921,2.9921,2.9921,2.9921,2.9921,2.9921,2.9915,3.0037,3.0215,3.0413,3.0482,3.0598,3.0681,3.0613,3.0691,3.0739,3.0701,3.0732,3.0707,3.052,3.0544,3.0521,3.0443,2.9779,2.933,2.9281,2.8629,2.8111,2.7915,2.783,2.7745,2.7582,2.6908,2.6475,2.6489,2.584,2.609,2.7297,2.6515,2.611,2.6098,2.5374,2.5018,2.4991,2.5004,2.5004,0.0,0.0,1.5169,0.0,1.8135,1.8571,0.0,0.0,1.9213,0.0,1.9516,1.9929,2.0212,2.0032,1.9929,2.0212,2.0223,2.0233,2.0268,2.0426,2.0699,2.1086,2.1642,2.2113,2.2398,2.3082,2.3413,2.3307,2.3647,2.3804,2.3718,2.4473,2.4905,2.4964,2.5791,2.6327,2.6505,2.6606,2.6769,2.6968,2.7672,2.8212,2.8662,2.8805,2.8986,2.9241,2.9138,2.8927,2.8638,2.8638,2.8591,2.85,2.8428,2.8417,2.8542,2.8842,2.9038,2.9163,2.939,2.9451,2.9471,2.9608,2.9626,2.9662,2.9872,2.9921,2.9921,2.9921,2.9921,2.9921,2.9921,2.9921,2.9883,2.9899,2.9946,3.0052,3.0367,3.0509,3.0605,3.0518,3.0583,3.0601,3.0594,3.0681,3.0481,2.9771,2.9663,2.9398,2.8653,2.8411,2.831,2.8389,2.8201,2.7811,2.713,2.7066,2.6723,2.595,2.5774,2.5648,2.5646,2.5569,2.56,2.5807,2.5552,2.5398,2.5362,2.5236,2.5118,2.4991,2.507,2.507,0.9651,1.1679,1.3891,0.0,1.6539,1.697,1.7598,1.7632,1.7571,1.7833,1.8031,1.8378,1.9339,1.9398,1.9325,1.9472,1.9508,1.9545,1.969,1.9839,2.0089,2.0534,2.0991,2.1364,2.1635,2.2146,2.2504,2.2504,2.2609,2.2813,2.3165,2.3362,2.3622,2.3909,2.4753,2.5278,2.5357,2.586,2.6064,2.5982,2.632,2.6525,2.6647,2.6552,2.7323,2.8676,2.8676,2.8554,2.8376,2.8376,2.8334,2.8174,2.8201,2.8228,2.8272,2.8478,2.8603,2.8688,2.8832,2.8902,2.8902,2.8979,2.8964,2.9045,2.9316,2.9397,2.9416,2.957,2.9608,2.9608,2.9608,2.9608,2.9626,2.9697,2.9715,2.9784,3.0075,3.0263,3.0414,3.0552,3.0552,3.0388,2.9885,2.992,2.968,2.8787,2.8701,2.8573,2.8179,2.7707,2.739,2.7405,2.6949,2.6505,2.6161,2.6132,2.5959,2.5562,2.5538,2.555,2.5561,2.5561,2.554,2.5493,2.5382,2.5303,2.5264,2.5214,2.5149,2.5118,2.5153,2.5153,0.0,0.0,1.186,1.3911,1.4679,1.523,0.0,0.0,1.6154,0.0,1.6791,1.7115,1.819,1.8569,1.8769,1.8769,1.8731,1.8766,1.8987,1.895,1.9116,1.9636,2.0058,2.0413,2.0702,2.1294,2.1661,2.1661,2.1807,2.209,2.2522,2.2459,2.2565,2.2972,2.3598,2.3964,2.3964,2.4605,2.4943,2.4936,2.4882,2.4898,2.499,2.4798,2.5692,2.7394,2.7495,2.7468,2.7394,2.7386,2.7295,2.7148,2.7148,2.7204,2.7288,2.7478,2.7609,2.7723,2.7814,2.7863,2.7899,2.8117,2.8189,2.8275,2.8724,2.8868,2.8879,2.8898,2.8904,2.8852,2.8709,2.8841,2.8977,2.8952,2.9064,2.9288,2.9531,2.9723,2.9817,2.9805,2.9738,2.9522,2.8867,2.8866,2.8683,2.7765,2.7675,2.7647,2.7453,2.6812,2.6449,2.6428,2.5846,2.5464,2.5507,2.5488,2.5506,2.5507,2.5545,2.558,2.5581,2.557,2.5551,2.5511,2.5415,2.5352,2.5321,2.5274,2.5234,2.5192,2.5214,2.5329,0.0,0.8109,0.0,1.1426,1.2483,0.0,0.0,0.0,1.5531,1.6126,1.6263,1.6263,1.6327,1.7183,1.7868,1.7868,1.7716,1.759,1.759,1.7434,1.7437,1.7706,1.8339,1.8801,1.9104,1.996,2.0503,2.0503,2.1022,2.1364,2.1395,2.1672,2.1823,2.1882,2.1915,2.1949,2.1949,2.1982,2.2408,2.3137,2.3137,2.3597,2.4425,2.4486,2.4645,2.4898,2.5161,2.5132,2.4868,2.4893,2.4769,2.456,2.4307,2.4464,2.4829,2.5079,2.5411,2.5796,2.6033,2.6128,2.6273,2.7042,2.7319,2.7513,2.8211,2.8478,2.8384,2.7683,2.7489,2.7391,2.6885,2.7316,2.7748,2.7175,2.7622,2.8297,2.8666,2.8761,2.8548,2.7704,2.7552,2.7552,2.7514,2.7711,2.7585,2.6708,2.6687,2.6482,2.5654,2.5464,2.5398,2.5484,2.5422,2.5413,2.5485,2.5496,2.5512,2.5507,2.5496,2.5503,2.5496,2.5506,2.5504,2.5503,2.5562,2.5479,2.5321,2.5412,2.5378,2.5192,2.5274,2.5697,0.0,0.0,0.0,1.0153,1.0807,1.1322,1.233,1.3058,1.3604,1.3836,1.4459,1.4967,1.5031,1.6015,1.6763,1.6763,1.6711,1.6683,1.6683,1.6775,1.6913,1.7015,1.7592,1.8157,1.8676,1.9189,1.9664,2.0124,2.0361,2.0565,2.0701,2.0862,2.1023,2.121,2.121,2.121,2.121,2.1397,2.156,2.1664,2.1915,2.2141,2.2278,2.2214,2.2214,2.2277,2.2493,2.3301,2.4489,2.4428,2.4303,2.4143,2.4047,2.4238,2.4547,2.4692,2.4988,2.5302,2.5429,2.5482,2.5517,2.5835,2.5932,2.6109,2.654,2.6713,2.6777,2.6656,2.6631,2.6581,2.6381,2.6549,2.6761,2.6696,2.7042,2.7251,2.6837,2.7257,2.7673,2.7456,2.7395,2.7243,2.6712,2.6694,2.6492,2.559,2.5523,2.5432,2.5115,2.5149,2.5182,2.5186,2.5284,2.5339,2.5374,2.5422,2.542,2.5441,2.5496,2.5517,2.5512,2.5516,2.5509,2.5492,2.5538,2.5505,2.5479,2.554,2.5511,2.5473,2.5492,2.5636,0.6092,0.0,0.0,0.0,0.0,0.9365,1.0418,1.1061,1.1529,1.1943,1.2738,1.3382,1.3435,1.4356,1.5256,1.5791,1.5684,1.5524,1.5667,1.5785,1.5949,1.605,1.6589,1.7177,1.7752,1.8157,1.8587,1.9036,1.9135,1.9398,1.979,1.9857,2.0118,2.0569,2.0569,2.0569,2.0569,2.0765,2.0797,2.0597,2.0861,2.0926,2.0795,2.0697,2.0697,2.0763,2.0862,2.1762,2.322,2.3253,2.319,2.2997,2.2932,2.3125,2.3407,2.3469,2.368,2.4007,2.4036,2.4064,2.4127,2.4488,2.4642,2.4788,2.5359,2.5561,2.5628,2.5566,2.5566,2.5494,2.5334,2.5397,2.5622,2.6078,2.6132,2.5949,2.5429,2.6019,2.6626,2.6456,2.645,2.6261,2.5718,2.5687,2.5489,2.4908,2.4874,2.4902,2.4902,2.4994,2.5043,2.5043,2.5115,2.516,2.516,2.5264,2.5283,2.5283,2.5368,2.5413,2.5413,2.5434,2.5473,2.5484,2.5503,2.5512,2.5586,2.5533,2.5515,2.5515,2.5511,2.5712,0.0,0.0,0.0,0.0,0.0,0.0,0.947,0.0,0.9572,1.0548,1.1134,1.1486,1.1576,1.2275,1.3332,1.484,1.4523,1.4239,1.4594,1.4453,1.4429,1.4746,1.5314,1.5783,1.6134,1.6746,1.7185,1.7214,1.7419,1.7852,1.854,1.8808,1.9246,1.9909,1.994,1.994,1.997,1.997,2.0005,2.0005,2.0005,2.008,2.0158,2.0158,2.0261,2.0465,2.0261,2.0462,2.0893,2.1214,2.1246,2.1055,2.086,2.099,2.1277,2.1309,2.1526,2.1797,2.1797,2.1827,2.1986,2.3013,2.3425,2.3676,2.4802,2.5185,2.5092,2.4436,2.4286,2.4126,2.3613,2.3774,2.4317,2.5144,2.4894,2.4482,2.4482,2.5077,2.5411,2.4648,2.45,2.45,2.45,2.4596,2.4692,2.4692,2.479,2.4888,2.4888,2.4888,2.4902,2.4902,2.4902,2.4902,2.4902,2.5031,2.5103,2.5103,2.5203,2.5293,2.5293,2.5357,2.5406,2.5406,2.5441,2.5479,2.5479,2.5439,2.5386,2.5386,2.5386,2.5898,0.5945,0.0,0.0,0.0,0.0,0.0,0.0,0.0,0.9065,0.9461,1.0375,1.1097,1.1276,1.1463,1.1873,1.2749,1.3308,1.3711,1.3814,1.3953,1.4046,1.4144,1.4474,1.4976,1.5754,1.6014,1.6398,0.0,1.7282,1.7374,1.7583,1.768,1.8008,1.8685,1.8714,1.892,1.9362,1.9545,1.9654,1.9654,1.998,2.0085,2.0045,1.9945,1.9874,1.9767,1.9732,1.9767,1.9909,2.0254,2.0357,2.0323,2.046,2.0697,2.1023,2.1214,2.1526,2.1797,2.1797,2.1911,2.2147,2.2462,2.2781,2.3119,2.3432,2.3606,2.3673,2.3488,2.3418,2.3407,2.327,2.3458,2.3739,2.3956,2.4018,2.3979,2.3979,2.4162,2.4371,2.4484,2.45,2.45,2.45,2.4534,2.4568,2.4568,2.458,2.4613,2.4613,2.4707,2.4768,2.4768,2.4832,2.4902,2.4902,2.4942,2.4968,2.4968,2.4994,2.5019,2.5019,2.5099,2.5165,2.5165,2.5303,2.5348,2.5348,2.5409,2.5463,2.5463,2.5479,2.5628,0.0,0.0,0.0,0.0,0.0,0.0,0.692,0.7483,0.7993,0.0,0.9157,0.99,1.0293,1.0611,1.1032,1.1615,1.2321,1.2788,1.282,1.3123,1.3383,1.3576,1.4014,1.4603,1.529,1.5474,1.5773,1.634,1.643,1.6518,1.6779,1.704,1.7388,1.7766,1.7795,1.794,1.8317,1.8431,1.8538,1.8538,1.9086,1.9306,1.926,1.9426,1.9442,1.9332,1.9332,1.9332,1.9362,1.9545,1.9762,2.0005,2.015,2.0426,2.0697,2.0893,2.1119,2.137,2.137,2.1493,2.1642,2.1761,2.2027,2.2254,2.2419,2.2527,2.2634,2.2764,2.2952,2.3052,2.3052,2.3271,2.3504,2.3504,2.3646,2.3795,2.3795,2.3795,2.3878,2.4135,2.4284,2.4339,2.4339,2.4447,2.4465,2.4339,2.4339,2.4339,2.4339,2.4391,2.4476,2.4596,2.4692,2.4716,2.4716,2.4775,2.4804,2.4804,2.4874,2.4902,2.4902,2.4981,2.5031,2.5031,2.5091,2.5126,2.5126,2.5312,2.5421,2.5421,2.5464,2.5468,0.0,0.0,0.0,0.0,0.0,0.0,0.6969,0.6858,0.6745,0.0,0.7736,0.8264,0.8975,0.9716,1.037,1.0919,1.1249,1.158,1.1848,1.2188,1.2557,1.2988,1.3695,1.4277,1.4617,1.4945,1.5151,1.5211,1.5269,1.5531,1.6082,1.6663,1.704,1.7098,1.7098,1.7127,1.7214,1.7214,1.7214,1.7214,1.7795,1.8085,1.8114,1.8637,1.8927,1.9014,1.9014,1.9043,1.9101,1.9101,1.9398,1.9899,1.9935,2.008,2.0292,2.0361,2.0561,2.0761,2.0794,2.0827,2.0893,2.1183,2.134,2.1433,2.1794,2.1911,2.1969,2.2275,2.2599,2.2902,2.2902,2.3091,2.333,2.3353,2.3535,2.3689,2.371,2.371,2.3732,2.3732,2.3919,2.4078,2.4078,2.4266,2.4339,2.4135,2.4097,2.4078,2.4097,2.4097,2.4154,2.4412,2.443,2.443,2.443,2.453,2.4629,2.4645,2.4746,2.4832,2.4861,2.4874,2.4874,2.4874,2.4902,2.4902,2.4902,2.5138,2.5273,2.5273,2.533,2.5327,0.0,0.0,0.0,0.0,0.0,0.0,0.6242,0.631,0.6593,0.0,0.7026,0.7341,0.8242,0.8343,0.8488,0.8983,0.9242,0.9939,1.158,1.1857,1.1903,1.1994,1.2281,1.2601,1.295,1.3653,1.4198,1.4486,1.5008,1.5356,1.5472,1.5618,1.5908,1.6372,1.6401,1.6663,1.7214,1.7214,1.7214,1.7214,1.733,1.7417,1.7417,1.7534,1.7882,1.8375,1.8375,1.8666,1.9101,1.9101,1.9176,1.9288,1.9508,1.9624,1.9732,2.0224,2.0429,2.0527,2.0728,2.099,2.1214,2.1277,2.1526,2.1794,2.1882,2.194,2.1998,2.2084,2.2141,2.2198,2.2198,2.222,2.2358,2.2538,2.2669,2.2822,2.3091,2.3199,2.3247,2.3247,2.358,2.3858,2.3858,2.3899,2.3979,2.4097,2.3979,2.3919,2.4078,2.3959,2.3878,2.3919,2.3939,2.3939,2.3939,2.3959,2.4022,2.4211,2.4229,2.4355,2.4564,2.4692,2.4753,2.4753,2.4847,2.4902,2.4902,2.4955,2.4981,2.4981,2.4968,2.4981,0.0,0.0,0.0,0.7384,0.0,0.0,0.0,0.6351,0.6419,0.6911,0.6766,0.6892,0.805,0.7888,0.7768,0.83,0.8468,0.8895,0.9894,1.0756,1.1375,1.1521,1.1983,1.2426,1.2733,1.3262,1.3797,1.4254,1.4631,1.4862,1.5027,1.5056,1.5105,1.5262,1.523,1.5495,1.5998,1.5998,1.6096,1.6256,1.6576,1.6721,1.6721,1.7388,1.7882,1.823,1.8521,1.8811,1.9101,1.9101,1.9101,1.9101,1.925,1.9369,1.9515,1.9839,2.008,2.022,2.0357,2.0595,2.086,2.086,2.1055,2.1339,2.1339,2.1493,2.1645,2.1645,2.1794,2.194,2.194,2.1969,2.2056,2.2164,2.222,2.2303,2.2473,2.2527,2.2554,2.2554,2.2883,2.3271,2.3602,2.3732,2.3795,2.3795,2.371,2.3689,2.3795,2.371,2.3689,2.3795,2.3795,2.3795,2.3795,2.3795,2.3837,2.3959,2.3959,2.4019,2.4172,2.4211,2.4266,2.4266,2.4422,2.4456,2.4334,2.4456,2.4632,2.4902,2.4902,2.4902,0.0,0.0,0.0,0.0,0.0,0.7374,0.0,0.0,0.0,0.0,0.0,0.0,0.0,0.0,0.0,0.7889,0.0,0.0,0.0,0.9438,0.0,1.0768,1.1561,1.2181,1.2392,1.279,1.3324,1.3996,1.4054,1.4199,1.4614,1.4724,1.4714,1.4493,1.4493,1.462,1.4902,1.4902,1.5025,1.5327,1.5792,1.6024,1.6082,1.7272,1.7882,1.8056,1.8666,1.8985,1.9101,1.9101,1.9101,1.9101,1.9101,1.925,1.9406,1.9479,1.9726,2.0005,2.0076,2.0254,2.0494,2.0494,2.0628,2.0794,2.0794,2.099,2.1214,2.1214,2.1432,2.1675,2.1675,2.1735,2.1794,2.1853,2.1882,2.1911,2.1969,2.1998,2.1998,2.1998,2.222,2.2625,2.3212,2.3513,2.3624,2.3504,2.3435,2.3435,2.3458,2.3435,2.3481,2.3624,2.3667,2.3667,2.3667,2.3667,2.3689,2.3732,2.3732,2.3753,2.3795,2.3795,2.3795,2.3795,2.3959,2.3979,2.3795,2.3979,2.4265,2.4693,2.4723,2.4723,0.0,0.0,0.0,0.0,0.7675,0.0,0.0,0.0,0.643,0.6125,0.0,0.0,0.0,0.0,0.0,0.0,0.0,0.0,0.7493,0.8135,0.861,0.8654,0.9568,1.0212,1.0258,1.1148,1.212,1.3089,1.3093,1.3319,1.3968,1.453,1.4932,1.5178,1.5178,1.5178,1.5238,1.5238,1.5238,1.5298,1.5385,1.5414,1.5443,1.6111,1.675,1.7359,1.8027,1.8608,1.9101,1.9101,1.9101,1.9101,1.9101,1.9101,1.9176,1.9406,1.9726,2.0041,2.0289,2.0527,2.0761,2.0761,2.0794,2.0794,2.0794,2.0827,2.086,2.086,2.0893,2.0925,2.0925,2.0925,2.1023,2.1309,2.1401,2.1554,2.1853,2.1969,2.1998,2.1998,2.2027,2.2164,2.2538,2.2943,2.3223,2.3389,2.3223,2.3126,2.3319,2.3175,2.3052,2.3102,2.3151,2.3175,2.3175,2.3175,2.3295,2.3526,2.3549,2.3602,2.3795,2.3795,2.3795,2.3795,2.3816,2.3816,2.3795,2.3816,2.3878,2.3923,2.4099,2.408,0.0,0.0,0.0,0.0,0.0,0.0,0.6837,0.0,0.6478,0.0,0.0,0.0,0.0,0.0,0.0,0.0,0.6536,0.0,0.0,0.0,0.7403,0.851,0.0,0.0,1.0079,1.062,1.1392,1.2564,1.2281,1.2604,1.3769,1.4078,1.4384,1.4686,1.4714,1.4808,1.4994,1.4994,1.5117,1.5298,1.5298,1.5298,1.5356,1.6343,1.6924,1.7272,1.8288,1.8869,1.9101,1.9101,1.9101,1.9101,1.9101,1.9101,1.9101,1.925,1.9362,1.9472,1.9617,1.9803,2.0085,2.0289,2.0426,2.0595,2.0595,2.0695,2.0794,2.0794,2.0794,2.0794,2.0794,2.0794,2.0827,2.099,2.1023,2.1119,2.1214,2.1276,2.1308,2.1308,2.1493,2.1705,2.1849,2.2192,2.25,2.2573,2.2599,2.2678,2.2781,2.2867,2.2927,2.2927,2.2952,2.2977,2.2977,2.2977,2.3028,2.3151,2.3199,2.3247,2.333,2.3353,2.3376,2.3376,2.3535,2.3535,2.3376,2.3535,2.3535,2.3399,2.3774,2.3878,0.9857,0.0,0.0,0.0,0.0,0.0,0.0,0.0,0.0,0.0,0.0,0.0,0.0,0.0,0.0,0.0,0.0,0.6196,0.0,0.6146,0.0,0.0,0.0,0.0,0.0,1.0042,1.0467,1.1669,1.1353,1.1832,1.3488,1.3712,1.4044,1.456,1.4588,1.4683,1.4932,1.4932,1.4994,1.5147,1.5147,1.5233,1.5435,1.656,1.7199,1.7534,1.8637,1.9101,1.9101,1.9101,1.9101,1.9101,1.9101,1.9101,1.9101,1.9101,1.9139,1.9213,1.9213,1.9398,1.969,1.9935,2.0115,2.0323,2.0361,2.0561,2.0695,2.0794,2.0761,2.0695,2.0695,2.0695,2.0695,2.0695,2.0761,2.0794,2.0794,2.0794,2.0794,2.0794,2.1055,2.1246,2.1246,2.1675,2.1998,2.1969,2.2136,2.2275,2.2248,2.2473,2.2642,2.2642,2.2668,2.266,2.2738,2.2738,2.2799,2.2876,2.2927,2.2927,2.2816,2.2867,2.2867,2.279,2.2993,2.2993,2.279,2.2993,2.3017,2.2867,2.3445,2.3667,0.0,0.0,0.0,0.7543,0.0,0.0,0.0,0.0,0.7787,0.0,0.0,0.0,0.0,0.0,0.0,0.0,0.0,0.0,0.0,0.0,0.0,0.0,0.0,0.0,0.0,0.9046,0.9101,1.0088,1.0092,1.0922,1.2924,1.3516,1.4252,1.5238,1.5268,1.5268,1.5268,1.5268,1.5117,1.4839,1.4839,1.5121,1.5684,1.6394,1.7249,1.8201,1.884,1.9101,1.9101,1.9101,1.9101,1.9101,1.9101,1.9101,1.9101,1.9101,1.9258,1.9479,1.9479,1.9726,2.0005,2.0005,2.0005,2.0076,2.0323,2.0395,2.0494,2.0728,2.0628,2.0395,2.0395,2.0395,2.0395,2.0395,2.0628,2.0794,2.0794,2.0794,2.0794,2.0794,2.0827,2.0827,2.0827,2.1493,2.1969,2.1911,2.1911,2.1882,2.1857,2.1915,2.1911,2.1911,2.1998,2.2108,2.2378,2.2439,2.2546,2.2876,2.2876,2.2738,2.2405,2.2439,2.2303,2.2056,2.2056,2.2056,2.2056,2.2056,2.2108,2.2248,2.3116,2.3365,0.0,0.0,1.0004,0.8851,0.0,0.0,0.0,0.0,0.0,0.0,0.0,0.0,0.0,0.0,0.0,0.0,0.0,0.0,0.0,0.0,0.0,0.0,0.0,0.0,0.0,0.0,0.0,1.0269,0.9991,1.0563,1.2503,1.3193,1.3853,1.4602,1.5066,1.5298,1.5298,1.5298,1.5238,1.5117,1.555,1.5837,1.6067,1.7188,1.7892,1.823,1.884,1.9101,1.9101,1.9101,1.9101,1.9101,1.9101,1.9101,1.9101,1.9101,1.9176,1.925,1.925,1.9325,1.9398,1.9398,1.9654,2.0041,2.0111,2.0392,2.0695,2.0761,2.0628,2.0429,2.0628,2.053,2.0395,2.0395,2.0462,2.0494,2.0289,2.0426,2.0561,2.0561,2.0695,2.0794,2.0794,2.1023,2.1182,2.1182,2.1339,2.1495,2.1464,2.1678,2.1823,2.1823,2.1823,2.1882,2.1998,2.1998,2.2056,2.2141,2.2198,2.2198,2.2084,2.2108,2.2079,2.1998,2.1998,2.1998,2.1998,2.1998,2.2027,2.2051,2.2358,2.2581,1.0365,1.0426,0.0,0.9469,0.9068,0.0,0.7964,0.0,0.8729,0.0,0.0,0.0,0.0,0.0,0.0,0.0,0.0,0.0,0.0,0.5473,0.0,0.0,0.0,0.0,0.0,0.0,0.8464,0.9725,0.9686,1.0326,0.0,1.2914,1.3699,1.4282,1.495,1.5298,1.5298,1.5531,1.5556,1.5432,1.6096,1.6432,1.6621,1.7555,1.8144,1.844,1.889,1.9101,1.9101,1.9101,1.9101,1.9101,1.9101,1.9101,1.9101,1.9101,1.9101,1.9101,1.9101,1.9101,1.9101,1.9101,1.9362,1.969,1.9797,2.008,2.0361,2.0494,2.0323,2.012,2.0292,2.0323,2.0254,2.012,2.0224,2.0323,2.0076,2.0115,2.0254,2.0254,2.0392,2.0527,2.0527,2.0527,2.0595,2.0761,2.099,2.1119,2.1119,2.1309,2.1432,2.1432,2.1432,2.1495,2.1617,2.1738,2.1797,2.1797,2.1857,2.1794,2.1675,2.1645,2.1552,2.143,2.1337,2.1275,2.1275,2.1368,2.1399,2.1336,2.146,2.1675]},{"header":{"parameterUnit":"m.s-1","parameterCategory":1,"la1":30.6,"la2":29.2853,"lo1":-89.7004,"lo2":-87.6739,"dy":0.0162,"dx":0.0183,"nx":112,"ny":82,"refTime":"2024-09-29T18:00:00:Z","depth":0,"parameterNumber":3,"parameterNumberName":"V-component_of_WINDS"},"data":[0.0,0.0,0.0,0.0,0.0,0.0,0.0,0.0,0.0,0.0,0.0,0.0,0.0,0.0,0.0,0.0,0.0,0.0,0.0,0.0,0.0,0.0,0.0,0.0,0.0,0.0,0.0,0.0,0.0,0.0,0.0,0.0,0.0,0.0,0.0,0.0,0.0,0.0,0.0,0.0,0.0,0.0,0.0,0.0,0.0,0.0,0.0,0.0,0.0,0.0,0.0,0.0,0.0,0.0,0.0,0.0,0.0,0.0,0.0,0.0,0.0,0.0,0.0,0.0,0.0,0.0,0.0,0.0,0.0,0.0,0.0,0.0,0.0,0.0,0.0,0.0,0.0,0.0,0.0,0.0,0.0,0.0,0.0,0.0,0.0,0.0,0.0,0.0,0.0,0.0,0.4646,0.5274,0.6078,0.6736,0.7202,0.7188,0.6575,0.5354,0.0,0.0,0.0,0.0,0.0,0.0,0.0,0.0,0.0,0.0,0.0,0.0,0.0,0.0,0.0,0.0,0.0,0.0,0.0,0.0,0.0,0.0,0.0,0.0,0.0,0.0,0.0,0.0,0.0,0.0,0.0,0.0,0.0,0.0,0.0,0.0,0.0,0.0,0.0,0.0,0.0,0.0,0.0,0.0,0.0,0.0,0.0,0.0,0.0,0.0,0.0,0.0,0.0,0.0,0.0,0.0,0.0,0.0,0.0,0.0,0.0,0.0,0.0,0.0,0.0,0.0,0.0,0.0,0.0,0.0,0.0,0.0,0.0,0.0,0.0,0.0,0.0,0.0,0.0,0.0,0.0,0.0,0.0,0.0,0.0,0.0,0.0,0.0,0.0,0.0,0.0,0.0,0.0,0.0,0.0,0.0,0.0,0.0,0.0,0.0,0.0,0.0,0.0,0.0,0.4636,0.5987,0.6407,0.6857,0.7371,0.7033,0.6432,0.5562,0.0,0.0,0.0,0.0,0.0,0.0,0.0,0.0,0.0,0.0,0.0,0.0,0.0,0.0,0.0,0.0,0.0,0.0,0.0,0.0,0.0,0.0,0.0,0.0,0.0,0.0,0.0,0.0,0.0,0.0,0.0,0.0,0.0,0.0,0.0,0.0,0.0,0.0,0.0,0.0,0.0,0.0,0.0,0.0,0.0,0.0,0.0,0.0,0.0,0.0,0.0,0.0,0.0,0.0,0.0,0.0,0.0,0.0,0.0,0.0,0.0,0.0,0.0,0.0,0.0,0.0,0.0,0.0,0.0,0.0,0.0,0.0,0.0,0.0,0.0,0.0,0.0,0.0,0.0,0.0,0.0,0.0,0.0,0.0,0.0,0.0,0.0,0.0,0.0,0.0,0.0,0.0,0.0,0.0,0.0,0.0,0.0,0.0,0.0,0.0,0.0,0.0,0.0,0.3744,0.4457,0.5813,0.5976,0.6479,0.7403,0.7082,0.6489,0.5661,0.4849,0.0,0.0,0.0,0.0,0.0,0.0,0.0,0.0,0.0,0.0,0.0,0.0,0.0,0.0,0.0,0.0,0.0,0.0,0.0,0.0,0.0,0.0,0.0,0.0,0.0,0.0,0.0,0.0,0.0,0.0,0.0,0.0,0.0,0.0,0.0,0.0,0.0,0.0,0.0,0.0,0.0,0.0,0.0,0.0,0.0,0.0,0.0,0.0,0.0,0.0,0.0,0.0,0.0,0.0,0.0,0.0,0.0,0.0,0.0,0.0,0.0,0.0,0.0,0.0,0.0,0.0,0.0,0.0,0.0,0.0,0.0,0.0,0.0,0.0,0.0,0.0,0.0,0.0,0.0,0.0,0.0,0.0,0.0,0.0,0.0,0.0,0.0,0.0,0.0,0.0,0.0,0.0,0.0,0.0,0.0,0.0,0.0,0.0,0.0,0.0,0.0,0.0,0.3766,0.4161,0.5254,0.5544,0.6073,0.7118,0.6945,0.6465,0.5539,0.4605,0.0,0.0,0.0,0.0,0.0,0.0,0.0,0.0,0.0,0.0,0.0,0.0,0.0,0.0,0.0,0.0,0.0,0.0,0.0,0.0,0.0,0.0,0.0,0.0,0.0,0.0,0.0,0.0,0.0,0.0,0.0,0.0,0.0,0.0,0.0,0.0,0.0,0.0,0.0,0.0,0.0,0.0,0.0,0.0,0.0,0.0,0.0,0.0,0.0,0.0,0.0,0.0,0.0,0.0,0.0,0.0,0.0,0.0,0.0,0.0,0.0,0.0,0.0,0.0,0.0,0.0,0.0,0.0,0.0,0.0,0.0,0.0,0.0,0.0,0.0,0.0,0.0,0.0,0.0,0.0,0.0,0.0,0.0,0.0,0.0,0.0,0.0,0.0,0.0,0.0,0.0,0.0,0.0,0.0,0.0,0.0,0.0,0.0,0.0,0.0,0.0,0.0,0.3549,0.3838,0.467,0.524,0.5803,0.635,0.6324,0.5949,0.5165,0.4126,0.0,0.0,0.0,0.0,0.0,0.0,0.0,0.0,0.0,0.0,0.0,0.0,0.0,0.0,0.0,0.0,0.0,0.0,0.0,0.0,0.0,0.0,0.0,0.0,0.0,0.0,0.0,0.0,0.0,0.0,0.0,0.0,0.0,0.0,0.0,0.0,0.0,0.0,0.0,0.0,0.0,0.0,0.0,0.0,0.0,0.0,0.0,0.0,0.0,0.0,0.0,0.0,0.0,0.0,0.0,0.0,0.0,0.0,0.0,0.0,0.0,0.0,0.0,0.0,0.0,0.0,0.0,0.0,0.0,0.0,0.0,0.0,0.0,0.0,0.0,0.0,0.0,0.0,0.0,0.0,0.0,0.0,0.0,0.0,0.0,0.0,0.0,0.0,0.0,0.0,0.0,0.0,0.0,0.0,0.0,0.0,0.0,0.0,0.0,0.0,0.0,0.0,0.3384,0.3656,0.0,0.4865,0.5179,0.5725,0.5555,0.5218,0.465,0.0,0.0,0.0,0.0,0.0,0.0,0.0,0.0,0.0,0.0,0.0,0.0,0.0,0.0,0.0,0.0,0.0,0.0,0.0,0.0,0.0,0.0,0.0,0.0,0.0,0.0,0.0,0.0,0.0,0.0,0.0,0.0,0.0,0.0,0.0,0.0,0.0,0.0,0.0,0.0,0.0,0.0,0.0,0.0,0.0,0.0,0.0,0.0,0.0,0.0,0.0,0.0,0.0,0.0,0.0,0.0,0.0,0.0,0.0,0.0,0.0,0.0,0.0,0.0,0.0,0.0,0.0,0.0,0.0,0.0,0.0,0.0,0.0,0.0,0.0,0.0,0.0,0.0,0.0,0.0,0.0,0.0,0.0,0.0,0.0,0.0,0.0,0.0,0.0,0.0,0.0,0.0,0.0,0.0,0.0,0.0,0.0,0.0,0.0,0.0,0.0,0.0,0.3281,0.3321,0.3517,0.0,0.4448,0.4683,0.5079,0.4882,0.4537,0.4086,0.0,0.0,0.0,0.0,0.0,0.0,0.0,0.0,0.0,0.0,0.0,0.0,0.0,0.0,0.0,0.0,0.0,0.0,0.0,0.0,0.0,0.0,0.0,0.0,0.0,0.0,0.0,0.0,0.0,0.0,0.0,0.0,0.0,0.0,0.0,0.0,0.0,0.0,0.0,0.0,0.0,0.0,0.0,0.0,0.0,0.0,0.0,0.0,0.0,0.0,0.0,0.0,0.0,0.0,0.0,0.0,0.0,0.0,0.0,0.0,0.0,0.0,0.0,0.0,0.0,0.0,0.0,0.0,0.0,0.0,0.0,0.0,0.0,0.0,0.0,0.0,0.0,0.0,0.0,0.0,0.0,0.0,0.0,0.0,0.0,0.0,0.0,0.0,0.0,0.0,0.0,0.0,0.0,0.0,0.0,0.0,0.0,0.0,0.0,0.0,0.0,0.0,0.2932,0.3214,0.3397,0.3491,0.3998,0.4308,0.4196,0.421,0.399,0.0,0.0,0.0,0.0,0.0,0.0,0.0,0.0,0.0,0.0,0.0,0.0,0.0,0.0,0.0,0.0,0.0,0.0,0.0,0.0,0.0,0.0,0.0,0.0,0.0,0.0,0.0,0.0,0.0,0.0,0.0,0.0,0.0,0.0,0.0,0.0,0.0,0.0,0.0,0.0,0.0,0.0,0.0,0.0,0.0,0.0,0.0,0.0,0.0,0.0,0.0,0.0,0.0,0.0,0.0,0.0,0.0,0.0,0.0,0.0,0.0,0.0,0.0,0.0,0.0,0.0,0.0,0.0,0.0,0.0,0.0,0.0,0.0,0.0,0.0,0.0,0.0,0.0,0.0,0.0,0.0,0.0,0.0,0.0,0.0,0.0,0.0,0.0,0.0,0.0,0.0,0.0,0.0,0.0,0.0,0.0,0.0,0.0,0.0,0.0,0.0,0.0,0.0,0.2932,0.3214,0.3397,0.3491,0.3581,0.367,0.3639,0.3471,0.3275,0.3003,0.0,0.0,0.0,0.0,0.0,0.0,0.0,0.0,0.0,0.0,0.0,0.0,0.0,0.0,0.0,0.0,0.0,0.0,0.0,0.0,0.0,0.0,0.0,0.0,0.0,0.0,0.0,0.0,0.0,0.0,0.0,0.0,0.0,0.0,0.0,0.0,0.0,0.0,0.0,0.0,0.0,0.0,0.0,0.0,0.0,0.0,0.0,0.0,0.0,0.0,0.0,0.0,0.0,0.0,0.0,0.0,0.0,0.0,0.0,0.0,0.0,0.0,0.0,0.0,0.0,0.0,0.0,0.0,0.0,0.0,0.0,0.0,0.0,0.0,0.0,0.0,0.0,0.0,0.0,0.0,0.0,0.0,0.0,0.0,0.0,0.0,0.0,0.0,0.0,0.0,0.0,0.0,0.0,0.0,0.0,0.0,0.0,0.0,0.0,0.0,0.0,0.0,0.2722,0.3096,0.3328,0.3385,0.334,0.3307,0.3307,0.3155,0.2917,0.2644,0.0,0.0,0.0,0.0,0.0,0.0,0.0,0.0,0.0,0.0,0.0,0.0,0.0,0.0,0.0,0.0,0.0,0.0,0.0,0.0,0.0,0.0,0.0,0.0,0.0,0.0,0.0,0.0,0.0,0.0,0.0,0.0,0.0,0.0,0.0,0.0,0.0,0.0,0.0,0.0,0.0,0.0,0.0,0.0,0.0,0.0,0.0,0.0,0.0,0.0,0.0,0.0,0.0,0.0,0.0,0.0,0.0,0.0,0.0,0.0,0.0,0.0,0.0,0.0,0.0,0.0,0.0,0.0,0.0,0.0,0.0,0.0,0.0,0.0,0.0,0.0,0.0,0.0,0.0,0.0,0.0,0.0,0.0,0.0,0.0,0.0,0.0,0.0,0.0,0.0,0.0,0.0,0.0,0.0,0.0,0.0,0.0,0.0,0.0,0.0,0.0,0.0,0.2393,0.2891,0.3226,0.3226,0.3226,0.3226,0.3226,0.3058,0.2805,0.2348,0.0,0.0,0.0,0.0,0.0,0.0,0.0,0.0,0.0,0.0,0.0,0.0,0.0,0.0,0.0,0.0,0.0,0.0,0.0,0.0,0.0,0.0,0.0,0.0,0.0,0.0,0.0,0.0,0.0,0.0,0.0,0.0,0.0,0.0,0.0,0.0,0.0,0.0,0.0,0.0,0.0,0.0,0.0,0.0,0.0,0.0,0.0,0.0,0.0,0.0,0.0,0.0,0.0,0.0,0.0,0.0,0.0,0.0,0.0,0.0,0.4369,0.402,0.0,0.0,0.0,0.0,0.0,0.0,0.0,0.0,0.0,0.0,0.0,0.0,0.0,0.0,0.0,0.0,0.0,0.0,0.0,0.0,0.0,0.0,0.0,0.0,0.0,0.0,0.0,0.0,0.0,0.0,0.0,0.0,0.0,0.0,0.0,0.0,0.0,0.0,0.0,0.0,0.2393,0.2891,0.3226,0.3226,0.3226,0.3226,0.3226,0.3058,0.2712,0.1959,0.1689,0.0,0.0,0.0,0.0,0.0,0.0,0.0,0.0,0.0,0.0,0.0,0.0,0.0,0.0,0.0,0.0,0.0,0.0,0.0,0.0,0.0,0.0,0.0,0.0,0.0,0.0,0.0,0.0,0.0,0.0,0.0,0.0,0.0,0.0,0.0,0.0,0.0,0.0,0.0,0.0,0.0,0.0,0.0,0.0,0.0,0.0,0.0,0.0,0.0,0.0,0.0,0.0,0.0,0.0,0.0,0.0,0.0,0.0,0.0,0.5092,0.4808,0.0,0.0,0.0,0.0,0.0,0.0,0.0,0.0,0.0,0.0,0.0,0.0,0.0,0.0,0.0,0.0,0.0,0.0,0.0,0.0,0.0,0.0,0.0,0.0,0.0,0.0,0.0,0.0,0.0,0.0,0.0,0.0,0.0,0.0,0.0,0.0,0.0,0.0,0.0,0.0,0.1944,0.2125,0.2217,0.2217,0.2217,0.2217,0.2217,0.2065,0.1824,0.1403,0.1063,0.0,0.0,0.0,0.0,0.0,0.0,0.0,0.0,0.0,0.0,0.0,0.0,0.0,0.0,0.0,0.0,0.0,0.0,0.0,0.0,0.0,0.0,0.0,0.0,0.0,0.0,0.0,0.0,0.0,0.0,0.0,0.0,0.0,0.0,0.0,0.0,0.0,0.0,0.0,0.0,0.0,0.0,0.0,0.0,0.0,0.0,0.0,0.0,0.0,0.0,0.0,0.0,0.0,0.6685,0.6623,0.6688,0.6316,0.6318,0.653,0.5876,0.5774,0.5888,0.5255,0.0,0.0,0.0,0.0,0.0,0.0,0.0,0.0,0.0,0.0,0.0,0.0,0.0,0.0,0.0,0.0,0.0,0.0,0.0,0.0,0.0,0.0,0.0,0.0,0.0283,0.0446,0.0667,0.0,0.0,0.0,0.0,0.0,0.0,0.0,0.0,0.0,0.0,0.0,0.1327,0.1232,0.1076,0.1076,0.1076,0.1076,0.1076,0.0982,0.088,0.0772,0.0489,0.0294,0.0,0.0,0.0,0.0,0.0,0.0,0.0,0.0,0.0,0.0,0.0,0.0,0.0,0.0,0.0,0.0,0.0,0.0,0.0,0.0,0.0,0.0,0.0,0.0,0.0,0.0,0.0,0.0,0.0,0.0,0.0,0.0,0.4358,0.4611,0.0,0.0,0.0,0.0,0.0,0.0,0.0,0.0,0.0,0.0,0.0,0.0,0.0,0.6709,0.6954,0.7438,0.7587,0.7471,0.7891,0.7868,0.7442,0.7381,0.7283,0.7114,0.7017,0.0,0.6154,0.5848,0.0,0.0,0.0,0.0,0.0,0.0,0.0,0.0,0.0,0.0,0.0,0.0,0.0,0.0,0.0,0.0,0.0,0.0,0.0,0.0,0.0,0.0,-0.0902,-0.0823,-0.0387,0.0065,0.0,0.0162,0.0279,0.035,0.0286,0.0,0.0,0.0,0.0,0.0,0.0,0.0,0.0771,0.0998,0.1076,0.1076,0.1076,0.1076,0.1076,0.0982,0.0698,0.0245,0.0115,-0.0,-0.0198,-0.0221,0.0,0.0,0.0,0.0,0.0,0.0,0.0,0.0,0.0,0.0,0.0,0.0,0.0,0.0,0.0,0.0,0.0,0.0,0.0,0.0,0.0,0.0,0.0,0.0,0.0,0.0,0.0,0.0,0.0,0.3872,0.4489,0.4751,0.4738,0.4523,0.0,0.0,0.0,0.0,0.0,0.0,0.0,0.0,0.0,0.7572,0.7815,0.8225,0.8915,0.9145,0.9165,0.9155,0.9145,0.8949,0.8513,0.8069,0.7825,0.7677,0.7147,0.6845,0.6733,0.6457,0.5848,0.4947,0.0,0.0,0.0,0.0,0.2731,0.2645,0.2274,0.1983,0.1619,0.1096,0.0,0.0,0.0,0.0,0.0,0.0,0.0,0.0,0.0,0.0,-0.1032,-0.1052,-0.08,-0.0603,-0.0661,-0.062,-0.04,0.0,0.0051,-0.0096,0.0122,0.0,0.0,0.0,0.0,0.0056,0.0118,-0.0,-0.0134,-0.0134,-0.0134,-0.0134,-0.0134,-0.0199,-0.0326,-0.0507,-0.0547,-0.0575,-0.0645,-0.064,-0.0574,0.0,0.0,0.0,0.0,0.0,0.0,0.0,0.0,0.0,0.0,0.0,0.0,0.0,0.0,0.0,0.0,0.0,0.0,0.0,0.0,0.0,0.0,0.0,0.0,0.0,0.0,0.0,0.0,0.431,0.4849,0.5108,0.5266,0.5191,0.0,0.0,0.0,0.0,0.0,0.0,0.6929,0.736,0.8007,0.8831,0.9145,0.9616,1.0379,1.0379,1.0379,1.0379,1.0053,0.9703,0.9259,0.8644,0.8154,0.7642,0.6949,0.6645,0.6813,0.6666,0.6135,0.5345,0.4877,0.4134,0.3241,0.3177,0.2918,0.247,0.2144,0.1798,0.1386,0.0752,0.0239,-0.017,-0.0367,0.0,0.0,0.0,0.0,-0.1486,-0.1546,-0.1578,-0.1595,-0.1597,-0.1477,-0.1343,-0.1343,-0.121,-0.0851,0.0,-0.0236,-0.0454,-0.0143,0.0,0.0,0.0,0.0,-0.0543,-0.0498,-0.0849,-0.1076,-0.1076,-0.1076,-0.1076,-0.1076,-0.1076,-0.1066,-0.1046,-0.1072,-0.1028,-0.0981,-0.0962,-0.0971,-0.0987,0.0,0.0,0.0,0.0,0.0,0.0,0.0,0.0,0.0,0.0,0.0,0.0,0.0,0.0,0.0,0.0,0.0,0.0,0.0,0.0,0.0,0.0,0.0,0.0,0.0,0.0,0.0,0.0,0.0,0.6096,0.6536,0.0,0.0,0.0,0.0,0.6431,0.6973,0.7558,0.8109,0.8692,0.9228,0.9788,1.0247,1.0503,1.0616,1.0616,1.0616,1.0616,1.0536,1.0018,0.9094,0.9094,0.8199,0.6641,0.6641,0.6247,0.5681,0.6139,0.6115,0.5693,0.5254,0.4552,0.3799,0.35,0.284,0.2154,0.2149,0.123,0.0,0.0,-0.0395,-0.0922,-0.0977,-0.1433,0.0,0.0,-0.2554,-0.3075,-0.3111,-0.3068,-0.3072,-0.308,-0.2549,-0.208,-0.208,-0.1544,-0.1066,0.0,-0.0942,-0.0913,-0.0877,0.0,-0.0845,-0.0811,-0.0902,-0.0997,-0.0964,-0.1058,-0.1076,-0.1076,-0.1076,-0.1076,-0.1076,-0.1076,-0.1074,-0.1073,-0.1147,-0.1172,-0.1169,-0.1123,-0.1109,-0.1163,-0.0984,0.0,0.0,0.0,0.0,0.0,0.0,0.0,0.0,0.0,0.0,0.0,0.0,0.0,0.0,0.0,0.0,0.0,0.0,0.0,0.0,0.0,0.0,0.0,0.0,0.0,0.0,0.0,0.0,0.6563,0.7131,0.0,0.705,0.7456,0.7785,0.7936,0.8638,0.9185,0.95,0.9882,1.02,1.0595,1.0767,1.0939,1.1006,1.1016,1.1015,1.0853,1.0274,0.9673,0.9094,0.8057,0.7171,0.6472,0.5705,0.5473,0.5616,0.5343,0.5196,0.5035,0.4876,0.4312,0.3623,0.2877,0.2466,0.2131,0.1095,0.0368,-0.0223,-0.1231,-0.167,-0.1882,-0.2532,-0.2729,-0.2774,-0.292,-0.3057,-0.3177,-0.3209,-0.3218,-0.3218,-0.3218,-0.3017,-0.2817,-0.2817,-0.2616,-0.2476,-0.2451,-0.1707,-0.1029,-0.098,-0.0994,-0.1003,-0.0976,-0.1013,-0.1048,-0.1059,-0.1069,-0.1277,-0.1678,-0.1745,-0.1946,-0.2415,-0.2482,-0.2397,-0.2357,-0.2453,-0.2417,-0.2148,-0.2138,-0.2141,-0.2187,-0.201,-0.189,0.0,0.0,0.0,0.0,0.0,0.0,0.0,0.0,0.0,0.0,0.0,0.0,0.0,0.0,0.0,0.0,0.0,0.0,0.0,0.0,0.0,0.0,0.0,0.0,0.0,0.0,0.6938,0.715,0.7855,0.8255,0.8038,0.8623,0.9124,0.928,0.9787,1.0239,1.0401,1.0627,1.0821,1.0982,1.1069,1.1017,1.0819,1.0819,1.0575,1.0159,0.9563,0.9043,0.8567,0.745,0.6617,0.6074,0.5179,0.4929,0.5085,0.4618,0.4389,0.438,0.4538,0.4051,0.313,0.2553,0.2037,0.1374,-0.0,-0.0451,-0.0604,-0.2003,-0.2391,-0.2417,-0.3403,-0.3688,-0.3733,-0.3802,-0.3954,-0.4006,-0.4006,-0.3981,-0.3951,-0.3951,-0.3751,-0.3551,-0.3551,-0.3351,-0.3218,-0.3218,-0.2415,-0.1791,-0.1727,-0.1768,-0.1723,-0.1406,-0.164,-0.1745,-0.1477,-0.1678,-0.1946,-0.2415,-0.2482,-0.2683,-0.3151,-0.316,-0.3051,-0.3027,-0.3036,-0.3003,-0.2794,-0.2693,-0.2632,-0.2701,-0.2654,-0.2618,-0.2634,0.0,0.0,0.0,0.0,0.0,0.0,0.0,0.0,0.0,0.0,0.0,0.0,0.0,0.0,0.0,0.0,0.0,0.0,0.0,0.0,0.0,0.0,0.0,0.6271,0.7044,0.7712,0.7904,0.8709,0.917,0.8816,0.9669,1.0226,1.0236,1.0439,1.0568,1.0497,1.0792,1.091,1.091,1.1145,1.0819,0.9854,0.9854,0.9419,0.8544,0.8456,0.8194,0.7595,0.7431,0.6614,0.5428,0.514,0.4623,0.4077,0.3843,0.3765,0.3843,0.4389,0.3761,0.251,0.2431,0.1411,-0.0157,-0.102,-0.1238,-0.1365,-0.2271,-0.253,-0.2623,-0.3499,-0.4215,-0.4709,-0.4715,-0.5133,-0.5589,-0.5589,-0.5474,-0.5425,-0.5425,-0.4821,-0.4356,-0.4356,-0.3751,-0.3284,-0.3284,-0.3284,-0.3284,-0.3218,-0.3218,-0.295,-0.2214,-0.275,0.0,-0.2214,-0.275,-0.3218,-0.3218,-0.3213,-0.3213,-0.3284,-0.3054,-0.2989,-0.3075,-0.2976,-0.2965,-0.2947,-0.2718,-0.2609,-0.2781,-0.2835,-0.3169,-0.3766,0.0,0.0,0.0,0.0,0.0,0.0,0.0,0.0,0.0,0.0,0.0,0.0,0.0,0.0,0.0,0.0,0.0,0.0,0.0,0.0,0.0,0.6464,0.7115,0.6993,0.8117,0.8895,0.8945,0.9097,0.919,0.9075,0.8729,0.8556,0.8778,0.884,0.8928,0.9077,0.913,0.9165,0.9165,0.9218,0.9157,0.8894,0.8894,0.8719,0.8456,0.7841,0.741,0.7168,0.619,0.5549,0.5031,0.4673,0.4377,0.3999,0.3214,0.2823,0.2901,0.3057,0.2823,0.2353,0.1096,-0.0,-0.0942,-0.1178,-0.1642,-0.2252,-0.3179,-0.3734,-0.4343,-0.5266,-0.5532,-0.5532,-0.5635,-0.5636,-0.5589,-0.5589,-0.5474,-0.5425,-0.5425,-0.5226,-0.5093,-0.5093,-0.4954,-0.4821,-0.4821,-0.4821,-0.4489,-0.3418,-0.3218,-0.3151,-0.2947,-0.3084,0.0,-0.295,-0.3084,-0.3418,-0.3951,-0.3876,-0.4126,-0.4749,-0.4514,-0.4339,-0.4219,-0.4332,-0.422,-0.3984,-0.4016,-0.4168,-0.4413,-0.4277,-0.4478,0.0,0.0,0.0,0.0,0.0,0.0,0.0,0.0,0.0,0.0,0.0,0.0,0.0,0.0,0.0,0.0,0.0,0.0,0.0,0.0,0.0,0.0,0.7541,0.8118,0.7998,0.8592,0.9066,0.933,0.8999,0.8778,0.8778,0.8354,0.8191,0.8287,0.8295,0.8344,0.8536,0.8544,0.8544,0.8544,0.8544,0.8281,0.7929,0.7929,0.7753,0.7312,0.6789,0.6486,0.6405,0.5653,0.5304,0.509,0.4666,0.4192,0.3659,0.2756,0.2196,0.0,0.0,0.0,0.0,0.0,-0.0863,-0.1335,-0.1649,-0.2118,-0.2666,-0.3912,-0.4568,-0.5067,-0.5996,-0.6132,-0.5996,-0.6023,-0.5861,-0.5664,-0.5603,-0.5474,-0.5425,-0.5425,-0.5425,-0.5425,-0.5425,-0.5425,-0.5425,-0.5425,-0.5425,0.0,-0.4284,-0.4151,-0.4018,-0.3685,-0.3951,-0.4018,-0.3685,-0.3951,-0.4284,-0.4688,-0.4683,-0.4866,-0.5418,-0.515,0.0,0.0,0.0,-0.5224,-0.5184,-0.5271,0.0,0.0,0.0,0.0,0.0,0.0,0.0,0.0,-0.5921,-0.5796,0.0,0.0,0.0,0.0,0.0,0.0,0.0,0.0,0.0,0.0,0.0,0.0,0.0,0.0,0.0,0.0,0.8745,0.9289,0.8974,0.8686,0.8617,0.9064,0.8522,0.8044,0.8044,0.8099,0.8193,0.8193,0.8193,0.8193,0.8193,0.0,0.0,0.0,0.0,0.7753,0.6966,0.6966,0.6523,0.5735,0.5735,0.5735,0.573,0.5534,0.548,0.5454,0.5002,0.4245,0.316,0.2302,0.1571,0.1019,0.1096,0.0627,-0.0235,-0.102,-0.1335,-0.1571,-0.2275,0.0,0.0,-0.4535,-0.5079,-0.5318,-0.6099,-0.6338,-0.6227,-0.6071,-0.5922,-0.5766,-0.563,-0.5474,-0.5425,-0.5425,-0.5425,-0.5425,-0.5425,-0.5425,-0.5425,-0.5425,-0.5425,-0.5425,-0.5425,-0.5425,-0.516,-0.4556,-0.496,-0.516,-0.4489,-0.5027,-0.5425,-0.5425,0.0,0.0,-0.5617,-0.5269,-0.5449,-0.6284,-0.6064,-0.6056,-0.6426,-0.6484,-0.6484,-0.6556,-0.6761,-0.7189,-0.7846,-0.8329,-0.8673,-0.8871,-0.7341,-0.686,0.0,0.0,0.0,0.0,0.0,0.0,0.0,0.0,0.0,0.0,0.0,0.0,0.0,0.0,0.0,0.8163,0.9135,0.9647,0.945,0.8805,0.8305,0.8371,0.7778,0.7358,0.7358,0.6681,0.6263,0.6263,0.6263,0.6263,0.6263,0.6263,0.6263,0.6263,0.6263,0.6174,0.5997,0.5997,0.5908,0.5735,0.0,0.0,0.573,0.5708,0.5561,0.547,0.5165,0.4118,0.2518,0.1292,0.016,-0.0706,-0.0,-0.0314,-0.1099,-0.1257,-0.1728,-0.2275,-0.2431,-0.3366,-0.4535,-0.4924,-0.5473,-0.6106,-0.6261,-0.6338,0.0,-0.6071,-0.5922,-0.5766,-0.563,-0.5474,-0.5425,-0.5425,-0.5425,-0.5425,-0.5425,-0.5425,-0.5425,-0.5425,-0.5425,-0.5425,-0.5425,-0.5425,-0.5359,-0.5226,-0.5292,-0.5359,-0.5226,-0.5292,-0.5425,-0.5425,-0.525,-0.5288,-0.5602,-0.5206,-0.5396,-0.6413,-0.6902,-0.7246,-0.7421,-0.7566,-0.78,-0.7973,-0.8063,-0.8342,-0.8908,-0.9013,-0.9227,-0.9499,-0.8924,-0.8685,0.0,0.0,0.0,0.0,0.0,0.0,0.0,0.0,0.0,0.0,0.0,0.6015,0.6617,0.0,0.8178,0.877,0.9119,0.9183,0.8451,0.7974,0.7628,0.7628,0.6919,0.6435,0.6435,0.5997,0.5735,0.5735,0.5735,0.5735,0.5735,0.5735,0.5735,0.5735,0.5735,0.5735,0.5735,0.5735,0.5735,0.5735,0.5735,0.5735,0.5741,0.5741,0.5625,0.5571,0.5426,0.4385,0.2519,0.041,-0.0802,-0.1257,-0.0785,-0.0942,-0.1335,-0.1728,-0.2118,-0.2588,-0.3444,-0.4302,-0.5079,-0.5473,-0.5944,-0.6247,-0.6166,-0.6146,-0.6098,-0.5874,-0.5752,-0.5664,-0.5515,-0.542,-0.5425,-0.5425,-0.5425,-0.5425,-0.5425,-0.5425,-0.5491,-0.5815,-0.5624,-0.5491,-0.5815,-0.5624,-0.5425,-0.5425,-0.5683,-0.5881,-0.5881,-0.621,-0.6408,-0.6408,-0.6327,-0.6367,-0.6785,-0.6849,-0.7045,-0.7532,-0.8094,-0.8534,-0.8706,-0.8783,-0.8899,-0.9048,-0.9189,-0.9382,-0.9673,-0.9833,-0.998,-1.0174,-0.9967,-0.982,0.0,0.0,0.0,0.0,0.0,0.0,0.0,0.0,0.5578,0.5718,0.6667,0.7564,0.7966,0.874,0.9298,0.9182,0.9135,0.8725,0.7298,0.7143,0.7054,0.6877,0.6174,0.5735,0.5735,0.5735,0.5735,0.5735,0.5735,0.5735,0.5735,0.5735,0.5735,0.5735,0.5735,0.5735,0.5735,0.5735,0.5735,0.5735,0.5735,0.5741,0.5657,0.5295,0.5389,0.5668,0.4932,0.3736,0.2153,-0.0083,-0.1284,-0.1649,-0.1649,-0.1649,-0.1804,-0.2353,-0.2744,-0.3214,-0.4535,-0.5079,-0.5395,-0.6106,-0.6338,-0.624,-0.6112,-0.6125,-0.6191,-0.5916,-0.5956,-0.596,-0.5666,-0.5624,-0.5557,-0.5425,-0.5491,-0.5624,-0.5624,-0.569,-0.5947,-0.6465,-0.6145,-0.5947,-0.6531,-0.6145,-0.5756,-0.5624,-0.6079,-0.6465,-0.6597,-0.7055,-0.7391,-0.7391,-0.7391,-0.7512,-0.7837,-0.8502,-0.8827,-0.8691,-0.9246,-0.9682,-0.986,-0.986,-0.986,-0.986,-1.0087,-1.0207,-1.0207,-1.0559,-1.0744,-1.0807,-1.0933,-1.0733,0.5052,0.4897,0.4946,0.5555,0.5498,0.5554,0.0,0.0,0.7197,0.7212,0.8058,0.8637,0.8458,0.926,0.9764,0.9144,0.9429,0.9131,0.7312,0.7143,0.6789,0.5997,0.5735,0.5735,0.5735,0.5735,0.5735,0.5735,0.5735,0.5735,0.5735,0.5735,0.5735,0.5735,0.5735,0.5735,0.5735,0.5735,0.5735,0.5735,0.5741,0.5657,0.5657,0.3942,0.4133,0.5494,0.211,0.0516,0.0337,-0.0,-0.1203,-0.2747,-0.2747,-0.3057,-0.3441,-0.2744,-0.3444,-0.4768,-0.4924,-0.5473,-0.6183,-0.6261,-0.6338,-0.6254,-0.624,-0.6587,-0.6942,-0.6833,-0.7077,-0.7297,-0.6515,-0.6268,-0.6137,-0.5557,-0.5881,-0.6268,-0.6268,-0.6728,-0.7195,-0.726,-0.7251,-0.7195,-0.726,-0.7251,-0.699,-0.64,-0.6334,-0.6597,-0.7186,-0.7391,-0.7391,-0.7391,-0.7391,-0.7447,-0.7447,-0.8527,-0.9157,-0.8954,-0.9768,-1.0273,-1.0461,-1.0524,-1.0524,-1.0524,-1.0551,-1.0514,-1.0577,-1.1094,-1.1421,-1.1421,-1.2027,-1.195,0.5986,0.5961,0.5969,0.0,0.6473,0.6725,0.722,0.7693,0.8045,0.8061,0.9002,0.9766,0.9611,1.0221,1.0309,0.0,0.8931,0.8456,0.6523,0.6192,0.6057,0.5627,0.5567,0.5578,0.5719,0.5735,0.5735,0.5735,0.5735,0.5735,0.5735,0.5735,0.5735,0.5735,0.5735,0.5735,0.5741,0.5741,0.5746,0.5662,0.5662,0.5668,0.5673,0.4858,0.3774,0.2157,-0.169,-0.3332,-0.3261,-0.2595,-0.2864,-0.3762,-0.3313,-0.3756,-0.4457,-0.4068,-0.438,-0.5079,-0.555,-0.6022,-0.6338,-0.6338,-0.6338,-0.6395,-0.6677,-0.69,-0.7017,-0.732,-0.7468,-0.7428,-0.7082,-0.6662,-0.64,-0.6539,-0.6465,-0.6531,-0.6924,-0.7186,-0.7521,-0.7967,-0.7707,-0.7512,-0.7967,-0.7707,-0.7447,-0.7577,-0.7642,-0.7707,-0.8032,-0.8366,-0.8624,-0.8624,-0.8753,-0.8753,-0.8635,-0.9215,-0.96,-0.9588,-0.9919,-1.0238,-1.0555,-1.0933,-1.1122,-1.1122,-1.1483,-1.1717,-1.1717,-1.1965,-1.2089,-1.2089,-1.2397,-1.2581,0.6562,0.0,0.0,0.7028,0.7459,0.7785,0.7837,0.8505,0.8963,0.8937,0.98,1.049,1.0406,1.0624,1.0297,0.8645,0.8249,0.7577,0.5908,0.5627,0.5464,0.5464,0.5442,0.5442,0.5616,0.5665,0.5697,0.573,0.5763,0.5779,0.5779,0.5812,0.5817,0.5779,0.5784,0.5773,0.5657,0.5206,0.4938,0.4942,0.5489,0.5679,0.5684,0.4593,0.2065,-0.1708,-0.4504,-0.5703,-0.5664,-0.4761,-0.4564,-0.4784,-0.427,-0.4618,-0.5395,-0.5395,-0.5395,-0.5473,-0.6106,-0.6338,-0.6338,-0.6338,-0.6234,-0.6325,-0.6947,-0.7122,-0.7259,-0.7864,-0.8016,-0.7912,-0.7782,-0.7316,-0.7055,-0.7316,-0.7186,-0.712,-0.7577,-0.7847,-0.8107,-0.8689,-0.8366,-0.8172,-0.8689,-0.8366,-0.8172,-0.8689,-0.8753,-0.8753,-0.8753,-0.9215,-0.9484,-0.9484,-0.9676,-0.974,-0.9548,-0.9676,-0.9868,-0.9983,-0.9983,-1.0174,-1.0568,-1.117,-1.1483,-1.1483,-1.2151,-1.2504,-1.2504,-1.2704,-1.2765,-1.2765,-1.2948,-1.3329,0.0,0.0,0.7178,0.7988,0.8311,0.864,0.9442,0.9956,1.0278,0.9971,1.0539,1.0815,1.0396,0.9976,0.9292,0.8361,0.765,0.6789,0.5819,0.5627,0.5464,0.5464,0.5442,0.5371,0.0,0.5485,0.5518,0.5725,0.5833,0.5899,0.5899,0.6007,0.6024,0.5899,0.6001,0.586,0.5657,0.3853,0.2956,0.3045,0.4862,0.5684,0.5594,0.1887,-0.1887,-0.5505,-0.5684,-0.5703,-0.5659,-0.5447,-0.5653,-0.5996,-0.5774,-0.5951,-0.6261,-0.6261,-0.6261,-0.6261,-0.6261,-0.6338,-0.6338,-0.6338,-0.6159,-0.6186,-0.6908,-0.738,-0.7826,-0.8513,-0.9019,-0.9291,-0.8624,-0.842,-0.8291,-0.7577,-0.7902,-0.842,-0.8484,-0.8958,-0.942,-0.9484,-0.9484,-0.942,-0.9484,-0.9484,-0.942,-0.9484,-0.9484,-0.9484,-0.9484,-0.9484,-0.9484,-0.9484,-0.9676,-0.974,-0.9548,-0.9676,-0.9868,-0.9983,-0.9983,-1.0174,-1.0568,-1.117,-1.1483,-1.1483,-1.2151,-1.2504,-1.2504,-1.313,-1.345,-1.3511,-1.413,-1.4446,0.0,0.0,0.8145,0.8446,0.875,0.9119,0.9463,1.0028,1.0504,1.0274,1.0502,1.0539,0.9737,0.9385,0.8855,0.7492,0.714,0.6679,0.5808,0.5627,0.5523,0.5442,0.5393,0.0,0.0,0.0,0.0,0.5605,0.5725,0.5822,0.5899,0.6024,0.5978,0.5941,0.5871,0.5726,0.5694,0.5075,0.3506,0.0987,0.1618,0.0628,-0.1884,-0.3236,-0.3778,-0.395,-0.5126,-0.573,-0.5676,-0.5464,-0.5687,-0.6034,-0.5726,-0.5951,-0.6338,-0.6338,-0.6648,-0.7103,-0.7103,-0.7103,-0.7103,-0.7103,-0.7065,-0.7139,-0.7681,-0.7897,-0.8077,-0.9164,-0.9479,-0.942,-0.9215,-0.8818,-0.8549,-0.8753,-0.8624,-0.8624,-0.9087,-0.9344,-0.9484,-0.9484,-0.9484,-0.9484,-0.9484,-0.9484,-0.9484,-0.9484,-0.9484,-0.9484,-0.9484,-0.9484,-0.9484,-0.9484,-0.9548,-0.9548,-0.9484,-0.9548,-0.974,-0.9983,-1.0415,-1.0843,-1.117,-1.2228,-1.2826,-1.2826,-1.3511,-1.383,-1.383,-1.407,-1.413,-1.4189,-1.4387,-1.4506,0.8043,0.8638,0.9235,0.9544,0.9766,1.0014,1.0225,1.0562,1.0709,1.0408,1.0191,0.9744,0.9058,0.8471,0.768,0.6746,0.649,0.6153,0.5731,0.5561,0.5474,0.5436,0.5398,0.5371,0.0,0.0,0.0,0.5605,0.5679,0.5802,0.5969,0.6042,0.5823,0.5001,0.5581,0.5887,0.5665,0.4365,0.1706,-0.2067,-0.2067,-0.2967,-0.4678,-0.5405,-0.5037,-0.3942,-0.5206,-0.5657,-0.5725,-0.5474,-0.5616,-0.6007,-0.5738,-0.5873,-0.6338,-0.6641,-0.7026,-0.748,-0.748,-0.771,-0.7863,-0.7557,-0.7391,-0.741,-0.7724,-0.7788,-0.7962,-0.9097,-0.9474,-0.9484,-0.9484,-0.9151,-0.8958,-0.942,-0.9151,-0.8947,-0.942,-0.9484,-0.9484,-0.9484,-0.9484,-0.9484,-0.9484,-0.9484,-0.9484,-0.9484,-0.9484,-0.9484,-0.9484,-0.9484,-0.9484,-0.9484,-0.9484,-0.9484,-0.9484,-0.9548,-0.974,-0.9983,-1.073,-1.1219,-1.1483,-1.2781,-1.3511,-1.3511,-1.413,-1.4506,-1.4506,-1.4506,-1.4506,-1.4506,-1.4506,-1.4506,0.9007,0.9665,1.0367,1.1131,1.1162,1.1089,1.1515,1.1316,1.0896,1.0638,0.9642,0.8721,0.8417,0.7082,0.6119,0.6116,0.558,0.5279,0.5438,0.5464,0.5436,0.0,0.0,0.0,0.0,0.0,0.0,0.5557,0.0,0.5905,0.5821,0.6246,0.5513,0.3436,0.512,0.579,0.5203,0.1541,-0.2063,-0.5573,-0.5662,-0.4755,-0.3132,-0.4844,-0.5662,-0.5657,-0.5657,-0.5741,-0.5714,-0.5554,-0.5699,-0.6007,-0.5738,-0.5951,-0.6416,-0.718,-0.748,-0.7557,-0.7633,-0.8093,-0.8627,-0.7863,-0.7393,-0.7103,-0.7032,-0.7198,-0.7606,-0.8312,-0.8958,-0.9484,-0.9484,-0.9484,-0.9484,-0.9484,-0.9484,-0.9484,-0.9484,-0.9484,-0.9484,-0.9484,-0.9484,-0.9484,-0.9484,-0.9484,-0.9484,-0.9484,-0.9484,-0.9484,-0.9484,-0.9484,-0.9484,-0.9484,-0.9484,-0.9548,-0.9548,-0.974,-0.9868,-1.011,-1.0856,-1.1421,-1.1608,-1.2842,-1.3571,-1.3571,-1.4189,-1.4506,-1.4506,-1.4506,-1.4506,-1.4506,-1.4506,-1.4506,0.997,1.0639,1.1145,1.0971,1.1116,1.1141,1.0906,1.0816,1.0552,0.997,0.8959,0.7912,0.681,0.6135,0.5519,0.5158,0.5224,0.0,0.5654,0.573,0.0,0.5692,0.0,0.5786,0.5605,0.4298,0.0,0.0,0.4855,0.5002,0.3784,0.539,0.6168,0.5627,0.3052,0.0386,-0.2271,-0.3243,-0.357,-0.3333,-0.4799,-0.5271,-0.4816,-0.5349,-0.5571,-0.5735,-0.5735,-0.5735,-0.5714,-0.631,-0.6529,-0.642,-0.652,-0.6633,-0.6788,-0.7173,-0.7778,-0.8475,-0.9084,-0.9387,-0.9539,-0.9387,-0.9231,-0.9025,-0.8198,-0.826,-0.8638,-0.8673,-0.9029,-0.9484,-0.9484,-0.9484,-0.9484,-0.9484,-0.9484,-0.9484,-0.9484,-0.9484,-0.9484,-0.9484,-0.9484,-0.9484,-0.9484,-0.9484,-0.9484,-0.9484,-0.9484,-0.9484,-0.9484,-0.9484,-0.9484,-0.9484,-0.9484,-0.9792,-1.0401,-1.0047,-1.0364,-1.1655,-1.1903,-1.2336,-1.2948,-1.383,-1.4267,-1.4267,-1.4387,-1.4506,-1.4506,-1.4506,-1.4506,-1.4506,-1.4506,-1.4506,1.0869,1.1526,1.2066,1.1582,1.1497,1.1289,1.074,1.0342,0.9906,0.899,0.7917,0.676,0.5684,0.5114,0.4737,0.0,0.0,0.0,0.5534,0.5676,0.5763,0.0,0.5839,0.0,0.4585,0.4258,0.3823,0.0,0.4494,0.5088,0.4215,0.3801,0.3638,0.3638,-0.0197,-0.3052,-0.4972,-0.5015,-0.4605,-0.3779,-0.4797,-0.5363,-0.547,-0.547,-0.5796,-0.6169,-0.6169,-0.6346,-0.6675,-0.7147,-0.7267,-0.708,-0.7227,-0.7318,-0.7472,-0.7931,-0.8618,-0.9311,-1.0143,-1.0443,-1.0368,-0.9992,-0.9852,-0.9585,-0.819,-0.8165,-0.8393,-0.7933,-0.8149,-0.8624,-0.8958,-0.9087,-0.9151,-0.942,-0.9484,-0.9484,-0.9484,-0.9484,-0.9484,-0.9484,-0.9484,-0.9484,-0.9484,-0.9484,-0.9484,-0.9484,-0.9484,-0.9484,-0.9484,-0.9484,-0.9612,-0.9804,-0.9983,-1.0351,-1.1017,-1.0968,-1.1281,-1.2274,-1.2642,-1.3009,-1.3511,-1.413,-1.4506,-1.4506,-1.4506,-1.4506,-1.4506,-1.4506,-1.4506,-1.4506,-1.4506,-1.4625,1.166,1.2193,1.2651,1.2382,1.1962,1.1413,1.067,0.9916,0.9066,0.7935,0.0,0.5611,0.4849,0.4278,0.3941,0.4094,0.0,0.4963,0.5339,0.5496,0.5654,0.5877,0.5834,0.5139,0.3512,0.4771,0.4814,0.264,0.4016,0.4912,0.4937,0.1793,0.0,0.0,-0.3286,-0.4991,-0.5043,-0.5004,-0.5111,-0.5272,-0.5272,-0.5341,-0.5464,-0.5637,-0.6046,-0.6776,-0.6864,-0.7204,-0.7774,-0.8046,-0.8074,-0.7869,-0.7991,-0.8161,-0.8313,-0.9064,-0.9604,-0.9992,-1.0807,-1.1105,-1.0968,-1.0293,-0.9999,-0.9593,-0.8024,-0.7824,-0.7933,-0.7018,-0.714,-0.7642,-0.8226,-0.842,-0.8624,-0.9215,-0.942,-0.9484,-0.9484,-0.9484,-0.9484,-0.9484,-0.9484,-0.9484,-0.9484,-0.9484,-0.9484,-0.9484,-0.9484,-0.9484,-0.9548,-0.9548,-0.974,-1.0238,-1.0604,-1.1017,-1.164,-1.2074,-1.2397,-1.2581,-1.313,-1.3571,-1.3631,-1.4189,-1.4506,-1.4506,-1.4506,-1.4506,-1.4506,-1.4506,-1.4506,-1.4506,-1.4506,-1.4725,1.1753,1.2203,1.2371,1.193,1.1467,1.0875,0.997,0.9055,0.0,0.0,0.5958,0.4726,0.4455,0.3984,0.3746,0.4066,0.4523,0.4996,0.5453,0.5621,0.5757,0.0,0.6199,0.6189,0.5831,0.5746,0.0,0.0,0.0766,0.0972,0.1003,0.0391,0.0,0.0,-0.3218,-0.4984,-0.5004,-0.4966,-0.5062,-0.5219,-0.5219,-0.5339,-0.5551,-0.6153,-0.6567,-0.6864,-0.7394,0.0,-0.7625,-0.8752,-0.8891,-0.848,-0.9096,-0.9216,-0.915,-0.9442,-0.9679,-0.9992,-1.0807,-1.1105,-1.1117,-1.0956,-1.0858,-1.0627,-0.9458,-0.9428,-0.9513,-0.7942,-0.7873,-0.8226,-0.7707,-0.8032,-0.8549,-0.8624,-0.9087,-0.9484,-0.9484,-0.9484,-0.9484,-0.9484,-0.9484,-0.9484,-0.9484,-0.9484,-0.9484,-0.9484,-0.9484,-0.9548,-0.974,-0.9612,-0.974,-1.0238,-1.0604,-1.1267,-1.2458,-1.2397,-1.2826,-1.401,-1.3752,-1.3752,-1.4327,-1.4446,-1.4506,-1.4506,-1.4506,-1.4506,-1.4506,-1.4506,-1.4506,-1.4506,-1.4506,-1.4565,1.2066,1.231,1.2296,1.1822,1.1252,1.0487,0.9292,0.0,0.0,0.0,0.5205,0.4227,0.3785,0.3481,0.0,0.361,0.4105,0.4654,0.5197,0.5371,0.0,0.5974,0.5129,0.5092,0.0,0.4204,0.2004,0.0095,0.0,0.0,0.0,0.0,-0.0837,-0.2554,-0.3482,-0.435,-0.5136,-0.5157,-0.5202,-0.5284,-0.5284,-0.5377,-0.5551,-0.6233,-0.682,-0.7386,-0.8178,-0.8691,-0.8928,-0.9857,-0.9894,-0.9448,-0.9916,-0.9981,-0.9906,-1.0056,-1.0282,-1.0594,-1.0956,-1.0818,-1.0496,-1.0359,-1.0701,-1.0834,-0.9322,-0.9317,-0.9511,-0.8088,-0.7807,-0.7902,-0.7967,-0.8226,-0.8624,-0.8947,-0.9022,-0.8882,-0.8495,-0.8431,-0.8495,-0.8882,-0.8947,-0.9087,-0.942,-0.9484,-0.9484,-0.9484,-0.9484,-0.9548,-0.9612,-0.9676,-0.9919,-1.0744,-1.1031,-1.164,-1.2781,-1.3086,-1.3511,-1.4189,-1.407,-1.413,-1.4506,-1.4506,-1.4506,-1.4506,-1.4506,-1.4506,-1.4506,-1.4506,-1.4506,-1.4506,-1.4506,-1.4743,1.213,1.2202,1.2145,1.1661,1.1015,1.0121,0.8743,0.7806,0.0,0.0,0.4625,0.3864,0.333,0.0,0.3047,0.0,0.3697,0.4251,0.4855,0.5083,0.541,0.0,0.4093,0.0,0.4869,0.1964,0.0,0.0,0.0,0.0,0.0,0.0,-0.1553,-0.5073,-0.4027,-0.4038,-0.5299,-0.5371,-0.5382,-0.5409,-0.5409,-0.5474,-0.5589,-0.6251,-0.698,-0.7599,-0.8547,-0.9201,-0.9635,-1.0105,-1.0162,-1.0009,-1.0284,-1.0519,-1.0669,-1.0669,-1.0818,-1.1105,-1.1105,-1.0669,-1.0099,-0.9783,-1.0047,-1.0296,-0.8824,-0.8776,-0.9008,-0.8155,-0.7768,-0.7707,-0.8161,-0.8355,-0.8689,-0.9344,-0.9087,-0.856,-0.7977,-0.7717,-0.7837,-0.856,-0.8624,-0.8689,-0.942,-0.9548,-0.9548,-0.9548,-0.9612,-0.9612,-0.9676,-0.9804,-1.0174,-1.1185,-1.1406,-1.1903,-1.292,-1.3528,-1.395,-1.407,-1.4327,-1.4506,-1.4506,-1.4506,-1.4506,-1.4506,-1.4506,-1.4506,-1.4506,-1.4506,-1.4506,-1.4506,-1.4506,-1.4921,1.1375,1.1556,1.165,1.1165,1.0509,0.9669,0.8516,0.0,0.0,0.547,0.4452,0.3669,0.3419,0.3189,0.3074,0.0,0.0,0.4058,0.4676,0.4974,0.5289,0.5507,0.0,0.0,0.0702,0.0263,0.0,0.0,0.0,0.0,0.0,0.0,-0.1713,-0.5543,-0.5357,-0.5256,-0.5471,-0.5455,-0.5426,-0.5534,-0.5534,-0.56,-0.5714,-0.6294,-0.6668,-0.6761,-0.7605,-0.7861,0.0,-0.8392,-0.8892,-0.9408,-0.9776,-1.0368,-1.1031,-1.1031,-1.1031,-1.1105,-1.1105,-1.1043,-1.0846,-0.9845,-0.9197,-0.8772,-0.8838,-0.8883,-0.8885,-0.8516,-0.8441,-0.8226,-0.7642,-0.7967,-0.8689,-0.9344,-0.9484,-0.942,-0.9356,-0.8818,-0.8624,-0.928,-0.8882,-0.8689,-0.942,-0.9676,-0.9804,-0.9804,-0.9868,-1.0047,-1.0174,-1.0047,-1.0301,-1.1059,-1.1247,-1.1794,-1.2887,-1.3329,-1.383,-1.4446,-1.4446,-1.4506,-1.4506,-1.4506,-1.4506,-1.4506,-1.4506,-1.4506,-1.4506,-1.4506,-1.4506,-1.4506,-1.4506,-1.4565,1.1211,1.1388,1.1381,1.0896,1.0239,0.9367,0.8032,0.0,0.6148,0.5276,0.4347,0.3611,0.3331,0.3097,0.2972,0.0,0.3218,0.3566,0.4235,0.4518,0.4842,0.5466,0.4879,0.0,0.0,0.0,0.0,0.0,0.0,0.0,0.0,0.0,-0.121,-0.3958,-0.493,-0.5436,-0.546,-0.5442,-0.5502,-0.5464,-0.5464,-0.5491,-0.5616,-0.6348,-0.6622,-0.6692,-0.7682,-0.8133,0.0,-0.8407,-0.8922,-0.9469,-0.9617,-1.0042,-1.0659,-1.0816,-1.0876,-1.09,-1.1057,-1.0701,-1.0014,-0.9564,-0.8745,-0.8046,-0.8147,-0.8223,-0.8183,-0.7907,-0.7837,-0.7772,-0.7456,-0.7642,-0.7772,-0.7642,-0.7642,-0.7512,-0.7129,-0.6802,-0.6933,-0.8042,-0.8042,-0.8236,-0.9472,-0.974,-0.9804,-0.9932,-0.9983,-1.0047,-1.011,-1.0174,-1.0301,-1.0618,-1.087,-1.1296,-1.2104,-1.2413,-1.272,-1.2964,-1.3588,-1.389,-1.389,-1.4267,-1.4506,-1.4506,-1.4506,-1.4506,-1.4506,-1.4506,-1.4506,-1.4506,-1.4506,-1.4684,1.0677,1.0929,1.0832,1.0423,0.9841,0.9012,0.0,0.6794,0.6008,0.5061,0.435,0.3756,0.3274,0.3068,0.2941,0.0,0.2947,0.3222,0.392,0.4208,0.4549,0.0,0.0,0.4376,0.0,0.058,0.0,0.0,0.0,0.0,0.0,-0.1081,-0.202,-0.2854,-0.4605,-0.548,-0.5426,-0.5507,-0.5534,-0.5496,-0.5496,-0.5587,-0.5582,-0.6204,-0.647,-0.6456,-0.7263,-0.7634,0.0,-0.7829,-0.8254,-0.8784,-0.8784,-0.9122,-0.9718,-0.9967,-1.0013,-0.999,-1.0239,-0.9783,-0.9113,-0.8894,-0.8226,-0.7401,-0.7346,-0.7463,-0.7702,-0.769,-0.7577,-0.7391,-0.7391,-0.7391,-0.7251,-0.6793,-0.6728,-0.6597,-0.6079,-0.5888,-0.6145,-0.7251,-0.7381,-0.7707,-0.928,-0.96,-0.9728,-1.0047,-1.011,-1.0174,-1.0174,-1.0301,-1.0364,-1.0364,-1.0618,-1.0996,-1.1498,-1.1732,-1.2042,-1.2413,-1.3086,-1.3571,-1.3812,-1.4267,-1.4506,-1.4506,-1.4506,-1.4506,-1.4506,-1.4506,-1.4506,-1.4506,-1.4506,-1.4684,0.9734,0.9938,0.9884,0.9647,0.9227,0.856,0.0,0.6536,0.576,0.4813,0.4459,0.4081,0.334,0.3208,0.3073,0.2748,0.2881,0.3202,0.3743,0.4234,0.4474,0.0,0.0,0.5274,0.4967,0.1928,0.0,0.0,0.0,0.0,0.0,-0.3582,-0.4806,-0.2938,-0.4743,-0.5604,-0.5464,-0.5464,-0.5491,-0.5371,-0.5627,-0.571,-0.5705,-0.5816,-0.583,-0.5824,-0.5924,-0.586,0.0,-0.5956,-0.6449,-0.7007,-0.7007,-0.7495,-0.8231,-0.8452,-0.8394,-0.824,-0.8461,-0.8394,-0.8173,-0.7893,-0.7359,-0.678,-0.6523,-0.6859,-0.7587,-0.8291,-0.7967,-0.7391,-0.7391,-0.7391,-0.7391,-0.7381,-0.7381,-0.7381,-0.7381,-0.6999,-0.6868,-0.7577,-0.7251,-0.7381,-0.8753,-0.9139,-0.9524,-1.0174,-1.0491,-1.0555,-1.0555,-1.0618,-1.0618,-1.0618,-1.0618,-1.087,-1.1421,-1.1483,-1.2104,-1.339,-1.3511,-1.383,-1.4446,-1.4506,-1.4506,-1.4506,-1.4506,-1.4506,-1.4506,-1.4506,-1.4506,-1.4506,-1.4506,-1.4506,0.7916,0.8134,0.8123,0.7655,0.7527,0.7207,0.6149,0.5853,0.5567,0.4781,0.4459,0.4081,0.334,0.3208,0.3147,0.2937,0.2944,0.0,0.0,0.0,0.0,0.4452,0.3896,0.2898,0.0,0.0,0.0,0.0,0.0,0.0,0.0,-0.3641,-0.4859,-0.2915,-0.4552,-0.5395,-0.5426,-0.5344,-0.5284,-0.5246,-0.549,-0.5577,-0.5572,-0.5756,-0.5846,-0.5839,-0.5937,-0.5921,-0.5868,-0.5842,-0.6208,-0.6757,-0.6757,-0.7086,-0.7673,-0.795,-0.7979,-0.795,-0.8231,-0.8163,-0.7912,-0.7845,-0.753,-0.7211,-0.7082,-0.6605,-0.6079,-0.6342,-0.621,-0.6013,-0.6013,-0.6013,-0.6013,-0.6013,-0.6079,-0.6137,-0.6137,-0.6145,-0.635,-0.699,-0.699,-0.7251,-0.8301,-0.8495,-0.8818,-0.9652,-0.9779,-1.0034,-1.0555,-1.0618,-1.0618,-1.0618,-1.0618,-1.0681,-1.087,-1.087,-1.1059,-1.1483,-1.1919,-1.2228,-1.2413,-1.3329,-1.383,-1.383,-1.4267,-1.4506,-1.4506,-1.4506,-1.4506,-1.4506,-1.4506,-1.4684,0.0,0.6813,0.6813,0.6405,0.6401,0.6235,0.5446,0.5386,0.5273,0.4608,0.4394,0.4081,0.334,0.3208,0.3117,0.2853,0.2914,0.3164,0.0,0.0,0.0,0.4579,0.0,0.0,0.0,0.0,0.0,0.0,0.0,0.0,0.0,-0.2345,-0.318,-0.2003,-0.4043,-0.5219,-0.5325,-0.5167,-0.5185,-0.5217,-0.5372,-0.5532,-0.5526,-0.5746,-0.5852,-0.5852,-0.5909,-0.5915,0.0,-0.5759,-0.5908,-0.6173,-0.6173,-0.6372,-0.6696,-0.6874,-0.6967,-0.6933,-0.7121,-0.7061,-0.6907,-0.6907,-0.6764,-0.6671,-0.6671,-0.621,-0.5749,-0.5491,-0.5425,-0.5425,-0.5425,-0.5425,-0.5491,-0.5491,-0.5624,-0.5683,-0.5683,-0.5888,-0.6152,-0.6539,-0.6671,-0.6999,-0.7782,-0.8172,-0.8549,-0.9396,-0.9716,-1.0098,-1.0555,-1.0618,-1.0618,-1.0618,-1.0618,-1.0618,-1.0618,-1.0618,-1.0681,-1.0933,-1.1296,-1.1732,-1.2228,-1.3086,-1.3631,-1.389,-1.4267,-1.4506,-1.4506,-1.4506,-1.4506,-1.4506,-1.4506,-1.4666,0.0,0.573,0.575,0.572,0.5666,0.5538,0.5096,0.4966,0.0,0.4361,0.4253,0.4048,0.3373,0.3191,0.3036,0.2651,0.2762,0.3072,0.0,0.3822,0.0,0.0,0.4916,0.0,0.0677,0.0154,0.0,0.0,0.0,-0.0,-0.0076,-0.0377,-0.0532,-0.0623,-0.3344,-0.4854,-0.5052,-0.5116,-0.5126,-0.5225,-0.5375,-0.5519,-0.5519,-0.5734,-0.58,0.0,-0.5793,-0.5711,-0.5589,-0.5576,-0.5488,-0.5425,-0.5425,-0.5425,-0.5446,-0.5521,-0.5488,-0.5452,-0.5528,-0.5481,-0.5425,-0.5425,-0.5425,-0.5425,-0.5425,-0.5881,-0.6203,-0.5624,-0.5425,-0.5425,-0.5425,-0.5557,-0.5617,-0.5617,-0.5756,-0.5888,-0.5888,-0.6086,-0.621,-0.621,-0.6284,-0.6613,-0.7326,-0.7912,-0.8549,-0.9256,-0.997,-1.0491,-1.0491,-1.0555,-1.0618,-1.0618,-1.0618,-1.0618,-1.0618,-1.0618,-1.087,-1.1421,-1.1421,-1.1981,-1.3268,-1.3329,-1.3631,-1.4267,-1.4387,-1.4446,-1.4446,-1.4446,-1.4506,-1.4506,-1.4506,-1.4625,0.3759,0.0,0.4164,0.3917,0.4066,0.4197,0.0,0.4106,0.4207,0.3832,0.0,0.3702,0.3731,0.322,0.2968,0.3494,0.3346,0.3281,0.3737,0.0,0.0,0.4533,0.4759,0.4562,0.3747,0.1476,0.0,0.0,0.0,-0.0222,-0.0832,-0.0948,-0.1228,-0.1781,-0.25,-0.3371,-0.4448,-0.4956,-0.5183,-0.5225,-0.5375,-0.5519,-0.5519,-0.5734,-0.58,-0.5793,-0.5684,-0.5623,-0.5583,-0.546,-0.5459,-0.5425,-0.5425,-0.5425,-0.5432,-0.5399,-0.5459,-0.5432,-0.5466,-0.5459,-0.5425,-0.5425,-0.5491,-0.555,-0.555,-0.5683,-0.5749,-0.5617,-0.569,-0.5756,-0.5756,-0.5822,-0.5822,-0.5822,-0.5954,-0.6145,-0.6145,-0.6218,-0.635,-0.635,-0.635,-0.6482,-0.6613,-0.6811,-0.7129,-0.7847,-0.856,-0.9192,-0.9716,-1.0238,-1.0618,-1.0618,-1.0618,-1.0618,-1.0618,-1.0618,-1.0681,-1.0807,-1.0807,-1.0933,-1.1296,-1.1732,-1.2042,-1.2228,-1.3208,-1.3769,-1.3769,-1.4267,-1.4565,-1.4666,-1.4666,-1.4725,0.3208,0.3432,0.3657,0.3464,0.3669,0.3866,0.3752,0.0,0.0,0.0,0.0,0.376,0.384,0.3633,0.3544,0.3711,0.373,0.0,0.0,0.0,0.4469,0.4405,0.4512,0.4659,0.0,0.3056,0.1448,-0.0143,-0.0215,-0.043,-0.0791,-0.0979,-0.1318,-0.1689,-0.1981,-0.2676,-0.3723,-0.4026,-0.4415,-0.4763,-0.4902,-0.5117,-0.5464,-0.5603,-0.5596,-0.5596,-0.5515,-0.5488,-0.5481,-0.5459,-0.5425,-0.5425,-0.5425,-0.5425,-0.5425,-0.5425,-0.5425,-0.5425,-0.5425,-0.5425,-0.5425,-0.5425,-0.5425,-0.5484,-0.555,-0.5683,-0.5749,-0.5749,-0.5822,-0.5888,-0.5888,-0.5954,-0.602,-0.602,-0.6152,-0.6284,-0.6284,-0.635,-0.6416,-0.6416,-0.6416,-0.6416,-0.6416,-0.6679,-0.7073,-0.7456,-0.8107,-0.8613,-0.9,-0.9396,-0.9652,-0.9652,-0.9907,-1.011,-1.011,-1.0428,-1.0618,-1.0618,-1.0618,-1.0744,-1.0996,-1.1296,-1.167,-1.1965,-1.2765,-1.3208,-1.3208,-1.389,-1.4309,-1.4369,-1.4666,-1.4902,0.32,0.3605,0.3943,0.3695,0.3771,0.3948,0.3888,0.0,0.0,0.0,0.0,0.0,0.0,0.4186,0.0,0.0,0.0,0.0,0.4077,0.4384,0.4585,0.4314,0.4393,0.0,0.4247,0.4247,0.2992,0.0139,-0.0418,-0.0621,-0.0607,-0.0944,-0.108,-0.1078,-0.168,-0.2214,-0.2686,-0.2954,-0.3422,-0.4151,-0.4151,-0.4489,-0.5093,-0.5093,-0.5093,-0.5093,-0.5093,0.0,-0.5093,-0.5093,-0.5093,-0.5093,-0.5093,-0.5093,-0.5093,-0.5093,-0.5093,-0.5093,-0.5093,-0.5093,-0.5093,-0.5093,-0.516,-0.516,-0.5286,-0.5484,-0.569,-0.569,-0.5822,-0.5954,-0.5822,-0.5947,-0.6079,-0.5947,-0.6013,-0.6086,-0.6086,-0.6152,-0.6218,-0.6218,-0.635,-0.6416,-0.6416,-0.6942,-0.7326,-0.7326,-0.7912,-0.8366,-0.8366,-0.842,-0.8484,-0.8484,-0.9,-0.9332,-0.9332,-0.9907,-1.0301,-1.0301,-1.0491,-1.0807,-1.1358,-1.1358,-1.167,-1.2212,-1.252,-1.2704,-1.2704,-1.345,-1.389,-1.389,-1.4488,-1.4843,0.3167,0.4229,0.4967,0.3619,0.3517,0.3655,0.3389,0.0,0.0,0.0,0.0,0.0,0.0,0.436,0.3997,0.0,0.0,0.4445,0.0,0.0,0.5125,0.473,0.0,0.4209,0.3326,0.2991,0.2581,0.2099,0.0136,-0.1016,-0.1012,-0.108,-0.1078,-0.1076,-0.121,-0.1277,-0.1412,-0.2549,-0.3218,-0.3351,-0.3351,-0.3418,-0.3551,-0.3551,-0.3551,-0.3551,0.0,-0.3551,-0.3551,-0.3551,-0.3551,-0.3551,-0.3551,-0.3551,-0.3551,-0.3551,-0.3551,-0.3551,-0.3551,-0.3551,-0.3551,-0.3751,-0.3889,-0.409,-0.4217,-0.4417,-0.4556,-0.4556,-0.5418,-0.6218,-0.5617,-0.5477,-0.5345,-0.4749,-0.4616,-0.4616,-0.4616,-0.508,-0.5543,-0.5543,-0.6013,-0.6416,-0.6416,-0.6482,-0.6548,-0.6548,-0.7195,-0.7652,-0.7652,-0.8172,-0.8484,-0.8484,-0.8613,-0.8678,-0.8678,-0.8753,-0.8807,-0.8807,-0.9907,-1.0618,-1.0744,-1.087,-1.0996,-1.1045,-1.1732,-1.2104,-1.2104,-1.2826,-1.3268,-1.339,-1.3511,-1.3932,0.2982,0.3716,0.4368,0.4049,0.4839,0.5595,0.5318,0.0,0.0,0.0,0.0,0.0,0.0,0.0,0.5539,0.5984,0.0,0.482,0.5213,0.5359,0.5292,0.0,0.0,0.4289,0.3885,0.3355,0.2686,0.1879,0.0806,-0.0202,-0.1077,-0.1077,-0.1077,-0.1076,-0.1076,-0.1076,-0.1076,-0.1745,-0.2214,-0.2613,-0.2613,-0.3017,-0.3751,-0.3351,-0.3618,-0.4356,0.0,-0.3418,-0.3751,-0.3351,-0.3218,-0.3218,-0.3218,-0.3218,-0.3218,-0.3218,-0.3218,-0.3218,-0.3218,-0.3284,-0.3351,-0.3485,-0.3623,-0.3823,-0.3951,-0.4084,-0.4151,-0.4284,-0.4755,-0.5219,-0.4882,-0.4815,-0.4749,-0.4356,-0.4289,-0.4289,-0.4289,-0.455,-0.4815,-0.4815,-0.508,-0.5418,-0.5815,-0.5881,-0.6013,-0.635,-0.6679,-0.6942,-0.6942,-0.7195,-0.7391,-0.7391,-0.7717,-0.7977,-0.7977,-0.8291,-0.8678,-0.9192,-0.9843,-1.0351,-1.087,-1.0933,-1.0933,-1.0933,-1.1435,-1.1608,-1.1608,-1.2397,-1.2765,-1.2887,-1.3268,-1.3812,0.291,0.3432,0.4058,0.4643,0.5736,0.6729,0.6817,0.6715,0.0,0.0,0.0,0.0,0.0,0.6422,0.0,0.7159,0.6246,0.5484,0.5418,0.5557,0.5557,0.5286,0.4888,0.455,0.4489,0.3823,0.282,0.154,0.114,0.0469,-0.0807,-0.1008,-0.1076,-0.1076,-0.1076,-0.1076,-0.1076,-0.1076,-0.1343,-0.1879,-0.1879,-0.2482,-0.3551,-0.295,-0.3351,-0.4356,-0.3218,-0.3017,-0.3485,-0.295,-0.2683,-0.2683,-0.2683,-0.2683,-0.2683,-0.2683,-0.275,-0.275,-0.2613,-0.2683,-0.2883,-0.275,-0.295,-0.3222,-0.3351,-0.3485,-0.3551,-0.3618,-0.3618,-0.3685,-0.3951,-0.4018,-0.4018,-0.3823,-0.3823,-0.3823,-0.3823,-0.3956,-0.4018,-0.4018,-0.4151,-0.4483,-0.5014,-0.5147,-0.5345,-0.5815,-0.6086,-0.6152,-0.6152,-0.6284,-0.6416,-0.6416,-0.6876,-0.726,-0.7326,-0.7782,-0.8484,-0.9384,-0.9524,-0.9907,-1.0555,-1.0807,-1.0933,-1.0933,-1.1233,-1.1373,-1.1373,-1.1965,-1.2274,-1.2274,-1.2842,-1.339,0.3094,0.4147,0.5186,0.5312,0.4923,0.0,0.6136,0.6053,0.0,0.6887,0.0,0.0,0.0,0.7826,0.7747,0.7519,0.6981,0.6531,0.635,0.0,0.6218,0.5888,0.5617,0.5147,0.4135,0.3343,0.2613,0.1939,0.0738,0.0067,-0.0067,-0.074,-0.1076,-0.1076,-0.1076,-0.1076,-0.1076,-0.1076,-0.1143,-0.1143,-0.1143,-0.121,-0.1344,-0.1277,-0.1277,-0.1412,-0.1277,-0.1277,-0.1344,-0.1277,-0.1277,-0.1277,-0.1277,-0.1277,-0.1277,-0.1277,-0.1344,-0.1344,-0.0874,-0.0807,-0.0941,-0.0604,-0.0874,-0.1344,-0.1479,-0.1882,-0.222,-0.168,-0.1546,-0.1814,-0.295,-0.3284,-0.3151,-0.2488,-0.2354,-0.2354,-0.2354,-0.282,-0.3284,-0.3284,-0.3818,-0.4289,-0.4356,-0.4356,-0.4417,-0.4422,-0.5014,-0.5477,-0.5477,-0.6013,-0.6416,-0.6416,-0.6416,-0.6548,-0.6736,-0.6802,-0.726,-0.8236,-0.8753,-0.9075,-0.9139,-0.9894,-1.0338,-1.0338,-1.117,-1.156,-1.156,-1.1622,-1.1685,-1.1685,-1.1685,-1.2042,0.2829,0.373,0.4702,0.5375,0.5487,0.0,0.0,0.805,0.8214,0.8458,0.8522,0.0,0.0,0.0,0.8204,0.8645,0.8226,0.7642,0.7129,0.7064,0.6876,0.6284,0.5815,0.5411,0.5008,0.4411,0.368,0.2609,0.2075,0.1475,0.074,0.0403,0.0067,-0.0403,-0.0403,-0.0605,-0.1076,-0.1076,-0.1076,-0.1076,-0.1076,-0.1344,-0.1678,-0.1277,-0.1611,-0.2348,-0.1477,-0.1344,-0.1678,-0.1277,-0.1076,-0.1076,-0.1076,-0.1143,-0.121,-0.0874,-0.1076,-0.1412,-0.0874,-0.1008,-0.1479,-0.1344,-0.1546,-0.1749,-0.1412,-0.1479,-0.1546,-0.0941,-0.0807,-0.0941,-0.141,-0.1542,-0.1477,-0.121,-0.1143,-0.1143,-0.1143,-0.1613,-0.2013,-0.2013,-0.2552,-0.3155,-0.3551,-0.3618,-0.3751,-0.4223,-0.455,-0.4683,-0.4683,-0.4948,-0.5286,-0.5749,-0.6276,-0.6679,-0.6811,-0.6942,-0.7195,-0.7521,-0.8172,-0.8753,-0.9268,-0.964,-0.9831,-0.9831,-1.0161,-1.0478,-1.0933,-1.0933,-1.1185,-1.1622,-1.1622,-1.1919,0.334,0.4012,0.4856,0.5959,0.0,0.0,0.899,0.9463,0.9714,1.0208,1.0093,0.9884,0.9962,0.0,0.0,0.0,0.9128,0.8549,0.7912,0.7652,0.7326,0.6811,0.621,0.5881,0.5881,0.5352,0.4683,0.3813,0.3413,0.2746,0.1745,0.1477,0.1074,0.0336,0.0336,0.0134,-0.0403,-0.0403,-0.0403,-0.0403,-0.0403,-0.0873,-0.1745,-0.1074,-0.1276,-0.2144,-0.094,-0.0671,-0.1073,-0.0604,-0.0471,-0.0605,-0.074,-0.0807,-0.0874,-0.0471,-0.0672,-0.1143,-0.0605,-0.074,-0.121,-0.1008,-0.1143,-0.1344,-0.0941,-0.0941,-0.0941,-0.0403,-0.0269,-0.0201,-0.0067,-0.0269,-0.0471,-0.0471,-0.0471,-0.0471,-0.0471,-0.0807,-0.1076,-0.1076,-0.1412,-0.1882,-0.2482,-0.2616,-0.2817,-0.3556,-0.3818,-0.3951,-0.3951,-0.4151,-0.455,-0.5147,-0.5881,-0.6416,-0.6688,-0.6876,-0.7073,-0.7269,-0.7717,-0.8236,-0.8871,-0.9064,-0.9192,-0.9192,-0.9588,-1.0034,-1.0491,-1.073,-1.1122,-1.1622,-1.1622,-1.1735,0.4772,0.5237,0.592,0.0,0.0,0.0,1.0236,0.9919,0.9946,1.2035,1.1768,1.118,1.1487,1.0746,0.0,0.9603,0.9524,0.9256,0.8613,0.7977,0.7521,0.7521,0.6876,0.6416,0.6416,0.5947,0.5617,0.5617,0.4411,0.348,0.2947,0.2275,0.1674,0.1143,0.1143,0.1143,0.1076,0.1143,0.1143,0.1076,0.1143,0.0336,-0.1076,-0.0336,0.0,0.0067,0.0807,0.1076,0.1076,0.1143,0.0874,0.0471,0.0134,0.0,0.0,0.0,-0.0134,-0.0201,0.0336,0.0403,0.0403,0.0941,0.074,0.0336,0.0336,-0.0067,-0.0336,0.0201,0.0336,0.0471,0.1008,0.0336,-0.0471,-0.0471,-0.0471,-0.0471,-0.0471,-0.0471,-0.0471,-0.0471,-0.0471,-0.0672,-0.121,-0.1277,-0.1479,-0.2085,-0.2753,-0.3218,-0.3218,-0.3818,-0.4417,-0.4749,-0.5153,-0.569,-0.635,-0.6416,-0.6679,-0.7456,-0.7521,-0.7521,-0.7521,-0.8172,-0.8484,-0.8484,-0.9779,-1.0491,-1.0491,-1.1185,-1.156,-1.156,-1.156,-1.1385,0.4251,0.5273,0.0,0.7336,0.0,0.0,0.0,1.1536,0.0,0.0,1.2303,1.2088,1.2181,1.1997,0.0,1.1626,1.164,1.1205,1.0072,0.9755,0.9244,0.8291,0.7587,0.7195,0.7195,0.6539,0.602,0.5617,0.5279,0.4815,0.4278,0.4079,0.3609,0.2947,0.2947,0.2542,0.1674,0.2006,0.2006,0.1674,0.2072,0.1607,0.0471,0.0672,0.0807,0.0806,0.1408,0.1674,0.1674,0.2072,0.2139,0.2006,0.1808,0.1607,0.154,0.1808,0.154,0.1137,0.1674,0.154,0.1272,0.1406,0.1339,0.1272,0.1674,0.1674,0.1674,0.2211,0.2345,0.2345,0.2549,0.2345,0.1877,0.0873,0.0605,0.0605,0.0605,0.0336,0.0067,0.0067,-0.0269,-0.0538,-0.074,-0.074,-0.0941,-0.1479,-0.1747,-0.208,-0.2753,-0.3489,-0.4156,-0.4622,-0.5219,-0.5683,-0.602,-0.602,-0.6152,-0.635,-0.6736,-0.7129,-0.7456,-0.7717,-0.7782,-0.7782,-0.8161,-0.8613,-0.9064,-0.932,-0.9605,-0.9914,-1.0356,-1.0375,0.5455,0.6625,0.0,0.9091,1.0166,1.1501,1.3437,0.0,0.0,0.0,1.3679,1.3508,1.3605,1.3322,0.0,1.3168,1.2904,1.2342,1.154,1.0831,1.0045,0.9001,0.8406,0.7963,0.7708,0.7149,0.6645,0.6238,0.604,0.5654,0.5068,0.512,0.4815,0.4146,0.4146,0.3808,0.3072,0.3405,0.3405,0.3072,0.3405,0.3209,0.2546,0.2278,0.2144,0.2144,0.2809,0.3072,0.3072,0.3272,0.3272,0.3205,0.2943,0.2743,0.2542,0.2813,0.2609,0.2275,0.2609,0.2476,0.2206,0.2206,0.2206,0.2275,0.2609,0.2743,0.2813,0.308,0.3218,0.3218,0.3218,0.3218,0.3017,0.2147,0.1678,0.1477,0.1477,0.1007,0.0605,0.0605,0.0336,0.0067,-0.0134,-0.0201,-0.0336,-0.0874,-0.1008,-0.1277,-0.1949,-0.2619,-0.3288,-0.4095,-0.4761,-0.5226,-0.5557,-0.5557,-0.569,-0.5888,-0.6147,-0.6432,-0.6754,-0.7214,-0.7521,-0.7521,-0.7703,-0.7973,-0.8355,-0.8572,-0.8807,-0.9077,-0.9449,-0.9473,0.7544,0.8651,0.0,1.1716,1.2542,0.0,1.5071,1.5945,1.6392,1.6244,0.0,1.5024,1.5213,1.4601,1.411,1.4292,1.3593,1.298,1.2923,1.1557,1.0365,0.9792,0.9254,0.8749,0.822,0.7731,0.7452,0.725,0.6784,0.623,0.5627,0.5769,0.5588,0.5127,0.5134,0.508,0.4948,0.5014,0.4948,0.4882,0.4948,0.4948,0.4948,0.4146,0.3813,0.388,0.4616,0.4948,0.5014,0.4749,0.455,0.4411,0.4013,0.3813,0.3613,0.3613,0.3613,0.3613,0.3613,0.3613,0.3547,0.348,0.348,0.348,0.3418,0.3418,0.3418,0.3418,0.3418,0.3418,0.3418,0.3418,0.3418,0.3418,0.275,0.2147,0.2214,0.1611,0.1143,0.121,0.1143,0.0941,0.0471,0.0403,0.0201,-0.0336,-0.0471,-0.0672,-0.1076,-0.1479,-0.222,-0.3364,-0.3966,-0.4495,-0.4942,-0.5001,-0.52,-0.5712,-0.5638,-0.562,-0.562,-0.672,-0.7335,-0.7335,-0.7787,-0.7995,-0.7984,-0.8491,-0.8715,-0.8691,-0.8749,-0.8604,0.6906,0.8406,0.0,0.0,1.3826,1.5565,1.6322,1.6965,1.7027,1.5773,1.5321,1.5143,1.4948,1.4952,1.4911,1.4713,1.4526,1.4199,1.3641,1.2968,1.2257,1.1607,1.025,0.9317,0.92,0.8192,0.7552,0.75,0.7421,0.7249,0.714,0.7335,0.7453,0.7317,0.7416,0.7111,0.6326,0.6531,0.6276,0.5418,0.5881,0.6086,0.602,0.5014,0.4815,0.5213,0.5345,0.6005,0.6924,0.6859,0.712,0.7502,0.7167,0.7037,0.6907,0.6588,0.6523,0.6523,0.6523,0.6523,0.6392,0.5866,0.5734,0.5602,0.5087,0.4954,0.4954,0.4954,0.4954,0.4954,0.4954,0.4954,0.4954,0.4954,0.3485,0.2281,0.2813,0.2013,0.1277,0.1812,0.1477,0.1076,0.0941,0.0941,0.074,0.0201,-0.0202,-0.0672,-0.1076,-0.1479,-0.2016,-0.2686,-0.3694,-0.4328,-0.4305,-0.4288,-0.4307,-0.4329,-0.4671,-0.4897,-0.4897,-0.554,-0.5924,-0.5924,-0.638,-0.6605,-0.6605,-0.705,-0.717,-0.7057,-0.7505,-0.76,0.733,0.0,0.0,1.3087,0.0,1.6281,1.6684,1.6849,1.6781,1.6103,1.6259,1.6405,1.6204,1.6355,1.6405,1.6204,1.5753,1.53,1.4725,1.4013,1.3183,1.2166,1.1399,1.0745,1.0205,0.9138,0.848,0.8362,0.8108,0.7837,0.7496,0.7936,0.8067,0.7846,0.7954,0.7751,0.7232,0.7474,0.7326,0.6736,0.7007,0.7204,0.726,0.6465,0.64,0.699,0.699,0.7381,0.7977,0.7977,0.8107,0.8355,0.8096,0.7967,0.7837,0.7512,0.7391,0.7391,0.7391,0.7391,0.7316,0.699,0.6859,0.6793,0.6474,0.6342,0.6342,0.6342,0.6342,0.6342,0.6342,0.6342,0.6276,0.5947,0.4478,0.3284,0.3618,0.2616,0.1812,0.2482,0.1812,0.121,0.1544,0.1344,0.1143,0.1141,0.0671,0.0202,-0.0,-0.0266,-0.0856,-0.1975,-0.286,-0.353,-0.405,-0.4034,-0.4001,-0.3875,-0.4122,-0.4267,-0.4267,-0.45,-0.488,-0.551,-0.585,-0.6045,-0.6045,-0.6365,-0.6445,-0.6388,-0.6657,-0.6764,0.7891,0.0,1.1562,1.4499,1.5761,0.0,1.671,1.6565,1.6436,1.6735,1.718,1.7503,1.7456,1.7503,1.7503,1.7456,1.6738,1.608,1.5729,1.4922,1.3846,1.2628,1.2607,1.2301,1.1311,1.0379,0.9715,0.9575,0.9045,0.845,0.7856,0.8474,0.8619,0.8177,0.8308,0.8321,0.8259,0.8332,0.8302,0.8175,0.8281,0.8441,0.8731,0.8291,0.8291,0.8678,0.8742,0.886,0.8988,0.8988,0.8924,0.8871,0.8796,0.8592,0.8398,0.8086,0.7967,0.7902,0.7782,0.7782,0.7717,0.7642,0.7577,0.7577,0.7456,0.7391,0.7391,0.7391,0.7391,0.7391,0.7391,0.7391,0.7251,0.6728,0.5668,0.4749,0.4556,0.3351,0.2482,0.3218,0.2348,0.1611,0.2214,0.1745,0.1475,0.2,0.1601,0.1266,0.1263,0.1235,0.0576,-0.0959,-0.1563,-0.2274,-0.3428,-0.3479,-0.353,-0.357,-0.3602,-0.3603,-0.3782,-0.3632,-0.4074,-0.5121,-0.5455,-0.5669,-0.5726,-0.5916,-0.6064,-0.6173,-0.6119,-0.6119,0.0,0.0,1.2672,0.0,1.5696,1.6502,0.0,0.0,1.7073,0.0,1.6965,1.6722,1.6441,1.666,1.6722,1.6441,1.6303,1.6166,1.6122,1.5603,1.5039,1.456,1.3721,1.3025,1.2608,1.1571,1.098,1.093,1.0466,1.0104,1.0007,1.0325,1.0508,1.0468,1.0617,1.0437,0.9976,0.9816,0.948,0.9023,0.9259,0.9852,1.0788,1.0627,1.0123,0.936,0.9679,1.0173,1.085,1.085,1.119,1.1732,1.1703,1.1626,1.1315,1.064,1.0212,0.997,0.9408,0.9215,0.9151,0.856,0.8355,0.8226,0.7587,0.7391,0.7391,0.7391,0.7391,0.7391,0.7391,0.7391,0.7381,0.7316,0.712,0.6662,0.5491,0.4084,0.3284,0.4018,0.3485,0.2947,0.3013,0.2482,0.1998,0.2082,0.1944,0.1798,0.1815,0.1924,0.167,0.0743,0.0308,-0.0243,-0.1007,-0.1537,-0.1986,-0.2327,-0.2538,-0.2979,-0.3604,-0.3593,-0.3655,-0.3857,-0.4219,-0.465,-0.5045,-0.5077,-0.5454,-0.6173,-0.5845,-0.5845,0.7506,0.9843,1.2182,0.0,1.5023,1.5824,1.6411,1.666,1.6894,1.7297,1.7261,1.7063,1.6811,1.6863,1.6947,1.6778,1.6735,1.6693,1.6522,1.6281,1.5908,1.5264,1.463,1.4007,1.3585,1.2657,1.2092,1.2092,1.1895,1.1499,1.0864,1.1268,1.1267,1.0645,1.0763,1.073,1.0439,1.0448,1.0464,1.0563,1.0768,1.1191,1.1794,1.2101,1.1809,1.108,1.108,1.1392,1.1826,1.1826,1.2027,1.2397,1.2336,1.2274,1.2074,1.1578,1.1267,1.1156,1.078,1.0591,1.0591,1.0262,1.0186,1.0072,0.9384,0.9128,0.9064,0.8689,0.856,0.856,0.856,0.856,0.8495,0.8096,0.8032,0.7772,0.6736,0.5404,0.4207,0.3751,0.3751,0.3799,0.3736,0.3079,0.2727,0.3026,0.27,0.2374,0.2403,0.2424,0.2457,0.2277,0.153,0.0983,0.0742,-0.0228,-0.0963,-0.1116,-0.1562,-0.1955,-0.2293,-0.2293,-0.2516,-0.2961,-0.3793,-0.4291,-0.4512,-0.4787,-0.5117,-0.5454,-0.5289,-0.5289,0.0,0.0,1.0821,1.2803,1.387,1.4707,0.0,0.0,1.6438,0.0,1.7236,1.719,1.7036,1.7316,1.7503,1.7503,1.7315,1.7046,1.6798,1.6545,1.6111,1.541,1.5183,1.4967,1.4429,1.3829,1.347,1.347,1.3233,1.2754,1.1975,1.2258,1.2061,1.1266,1.1319,1.1366,1.1366,1.1473,1.1764,1.2229,1.2338,1.2482,1.2733,1.3186,1.3161,1.2701,1.2386,1.2446,1.2701,1.2625,1.2728,1.2949,1.2949,1.283,1.2652,1.2234,1.1933,1.1768,1.145,1.1328,1.1343,1.1431,1.1461,1.1352,1.0954,1.0793,1.0654,1.0021,0.9882,0.9794,0.9606,0.958,0.9415,0.8713,0.8609,0.8398,0.75,0.6521,0.5459,0.4322,0.4511,0.4874,0.4766,0.3993,0.3585,0.3964,0.3459,0.3028,0.3007,0.3114,0.3189,0.3362,0.2603,0.206,0.2007,0.1001,0.0334,0.0223,-0.0279,-0.0558,-0.0502,-0.0893,-0.1339,-0.1952,-0.2952,-0.3732,-0.4181,-0.4457,-0.4677,-0.4897,-0.4787,-0.4809,0.0,0.7628,0.0,1.1278,1.2321,0.0,0.0,0.0,1.5736,1.641,1.655,1.655,1.6542,1.7562,1.8422,1.8422,1.7639,1.6987,1.6987,1.6186,1.5427,1.5056,1.5457,1.5636,1.5264,1.5247,1.5241,1.5241,1.4516,1.4007,1.3961,1.3674,1.3505,1.3409,1.343,1.345,1.345,1.3471,1.3598,1.3902,1.3902,1.3969,1.4102,1.3995,1.3873,1.3659,1.3168,1.3223,1.3714,1.3586,1.373,1.418,1.4533,1.4267,1.3622,1.2986,1.2325,1.1688,1.105,1.0823,1.0883,1.127,1.1316,1.1256,1.1613,1.1578,1.1396,1.1044,1.0898,1.0721,0.9852,0.9807,0.9758,0.8895,0.8908,0.8719,0.7414,0.7038,0.692,0.6587,0.6551,0.6551,0.6542,0.5449,0.4616,0.4649,0.4048,0.3545,0.3548,0.4033,0.4193,0.3638,0.3516,0.3289,0.2679,0.2567,0.24,0.2007,0.1615,0.1504,0.1615,0.0278,-0.0445,-0.0501,-0.1116,-0.2341,-0.4181,-0.3855,-0.4076,-0.4897,-0.4457,-0.4531,0.0,0.0,0.0,1.0287,1.1339,1.2248,1.3338,1.4313,1.5242,1.6128,1.6415,1.6695,1.7368,1.7325,1.7208,1.7208,1.6931,1.6683,1.6683,1.62,1.5771,1.566,1.5428,1.5371,1.5602,1.547,1.5501,1.5864,1.5623,1.5287,1.4971,1.4812,1.4584,1.4239,1.4239,1.4239,1.4239,1.4029,1.4136,1.4544,1.4164,1.4173,1.4537,1.4564,1.4564,1.4467,1.4055,1.3932,1.4068,1.4174,1.4387,1.4578,1.4736,1.442,1.3888,1.3547,1.3077,1.2546,1.2197,1.2086,1.2103,1.2254,1.223,1.2036,1.1747,1.1546,1.1297,1.077,1.0625,1.0538,1.0193,1.0191,1.0072,0.9453,0.9048,0.8658,0.8013,0.7687,0.735,0.6782,0.6703,0.6666,0.6536,0.6102,0.5752,0.5673,0.5425,0.529,0.5281,0.5117,0.4952,0.4725,0.4401,0.407,0.3849,0.3516,0.3234,0.3067,0.2567,0.2345,0.24,0.1896,0.1393,0.089,0.0669,-0.039,-0.2341,-0.2516,-0.2794,-0.3128,-0.3583,-0.3946,0.6172,0.0,0.0,0.0,0.0,1.1111,1.2471,1.3359,1.4238,1.5355,1.5872,1.6306,1.6965,1.666,1.6432,1.6787,1.6673,1.6502,1.6366,1.5924,1.5537,1.5432,1.5201,1.513,1.5363,1.5371,1.5527,1.5903,1.5844,1.5708,1.5531,1.5444,1.5298,1.5151,1.5151,1.5151,1.5151,1.4949,1.4971,1.5311,1.4949,1.4858,1.504,1.5175,1.5175,1.5085,1.488,1.4679,1.4439,1.446,1.4561,1.4792,1.4892,1.4591,1.4134,1.4032,1.3672,1.3171,1.3118,1.3066,1.3032,1.302,1.2896,1.2698,1.2163,1.1919,1.1679,1.105,1.0852,1.0821,1.0494,1.0132,0.9771,0.9556,0.8934,0.8369,0.8201,0.8017,0.7761,0.7213,0.7087,0.7037,0.6951,0.6763,0.6592,0.65,0.6317,0.6209,0.6209,0.5828,0.5609,0.5609,0.5281,0.5062,0.5062,0.4512,0.4174,0.4174,0.3622,0.3289,0.3289,0.3123,0.279,0.2286,0.2063,0.1337,0.0056,-0.0836,-0.1281,-0.1281,-0.1952,-0.2363,0.0,0.0,0.0,0.0,0.0,0.0,1.2624,0.0,1.2645,1.4062,1.4843,1.5311,1.5292,1.5641,1.6245,1.7223,1.6929,1.6452,1.6137,1.5364,1.4683,1.4365,1.4789,1.4977,1.4655,1.5144,1.5474,1.55,1.5209,1.5247,1.5764,1.5504,1.5585,1.6194,1.6219,1.6219,1.6244,1.6244,1.62,1.62,1.62,1.6044,1.582,1.582,1.5688,1.5421,1.5688,1.549,1.4903,1.4444,1.4466,1.4743,1.5017,1.4834,1.4419,1.4373,1.4046,1.3621,1.3621,1.3573,1.3539,1.3421,1.3253,1.3124,1.2842,1.2694,1.2442,1.1918,1.178,1.1572,1.0637,0.9666,0.8911,0.9152,0.8572,0.7955,0.7955,0.8148,0.8257,0.7949,0.7901,0.7901,0.7901,0.7461,0.7139,0.7139,0.6642,0.6263,0.6263,0.6263,0.6209,0.6209,0.6209,0.6209,0.6209,0.5664,0.5336,0.5336,0.4842,0.4574,0.4574,0.3959,0.3627,0.3627,0.3067,0.2734,0.2734,0.1222,0.0499,0.0499,0.0499,0.017,0.6632,0.0,0.0,0.0,0.0,0.0,0.0,0.0,1.1655,1.2728,1.316,1.3582,1.424,1.4541,1.4663,1.4537,1.5242,1.5772,1.5682,1.5294,1.4996,1.4904,1.4858,1.491,1.495,1.513,1.5292,0.0,1.5424,1.5439,1.5556,1.5505,1.5723,1.6314,1.634,1.652,1.6905,1.6693,1.6565,1.6565,1.6107,1.5976,1.6088,1.6151,1.6238,1.6367,1.6411,1.6367,1.6194,1.5824,1.5691,1.5736,1.5558,1.5175,1.472,1.4512,1.4046,1.3621,1.3621,1.3362,1.3045,1.2969,1.2563,1.2099,1.2004,1.1834,1.161,1.1456,1.1422,1.1353,1.1099,1.0506,0.9955,1.0045,0.9582,0.9145,0.9145,0.9214,0.8991,0.8074,0.7901,0.7901,0.7901,0.7794,0.7687,0.7687,0.7515,0.7408,0.7408,0.7085,0.6869,0.6869,0.648,0.6209,0.6209,0.6046,0.5937,0.5937,0.5828,0.5719,0.5719,0.5164,0.4835,0.4835,0.4291,0.4015,0.4015,0.3007,0.2508,0.2508,0.3072,0.2807,0.0,0.0,0.0,0.0,0.0,0.0,0.9746,1.0159,1.0607,0.0,1.188,1.239,1.3175,1.3521,1.3685,1.3659,1.4237,1.4711,1.4683,1.4833,1.4863,1.4686,1.4704,1.4731,1.4701,1.4621,1.4645,1.4777,1.4794,1.4872,1.5108,1.5343,1.5657,1.5996,1.6023,1.6153,1.6493,1.6307,1.6186,1.6186,1.6086,1.6128,1.6304,1.6591,1.6752,1.6879,1.6879,1.6879,1.6905,1.6693,1.6436,1.62,1.5957,1.5603,1.5175,1.4971,1.4582,1.4212,1.4212,1.4025,1.3721,1.3532,1.317,1.2783,1.2491,1.2295,1.2098,1.185,1.1569,1.1368,1.1368,1.0913,1.0403,1.0403,0.9976,0.9614,0.9614,0.9614,0.9406,0.8725,0.8421,0.8262,0.8262,0.8062,0.8008,0.8262,0.8262,0.8262,0.8262,0.7984,0.7717,0.7461,0.7139,0.6912,0.6912,0.6696,0.6588,0.6588,0.6317,0.6209,0.6209,0.5882,0.5664,0.5664,0.5391,0.5226,0.5226,0.4236,0.3799,0.3799,0.4033,0.3749,0.0,0.0,0.0,0.0,0.0,0.0,1.0093,0.9932,0.9678,0.0,1.0796,1.1426,1.2019,1.2436,1.2864,1.3424,1.3406,1.338,1.351,1.4145,1.4446,1.4112,1.4306,1.4339,1.3992,1.3815,1.3762,1.3696,1.3749,1.3984,1.448,1.5003,1.5343,1.5395,1.5395,1.5421,1.55,1.55,1.55,1.55,1.6023,1.6284,1.631,1.6781,1.7042,1.712,1.712,1.7146,1.7199,1.7199,1.6863,1.6331,1.6287,1.6044,1.5712,1.5623,1.5424,1.5153,1.5108,1.5062,1.4971,1.4558,1.4326,1.4186,1.3552,1.3362,1.3266,1.2667,1.208,1.1669,1.1669,1.12,1.0694,1.0643,1.0233,0.9873,0.9821,0.9821,0.9769,0.9769,0.9302,0.8883,0.8883,0.8474,0.8262,0.8725,0.883,0.8883,0.883,0.883,0.8672,0.8168,0.8115,0.8115,0.8115,0.7676,0.7354,0.73,0.6804,0.648,0.6372,0.6317,0.6317,0.6317,0.6209,0.6209,0.6209,0.5171,0.4684,0.4684,0.4125,0.3898,0.0,0.0,0.0,0.0,0.0,0.0,0.9124,0.9267,0.9593,0.0,0.967,0.9875,1.0315,1.0583,1.0718,1.0564,1.1112,1.2057,1.338,1.376,1.3875,1.3797,1.3699,1.3513,1.3178,1.3359,1.3356,1.3101,1.3513,1.3827,1.3931,1.4062,1.4324,1.4742,1.4768,1.5003,1.55,1.55,1.55,1.55,1.5604,1.5683,1.5683,1.5787,1.6101,1.6545,1.6545,1.6807,1.7199,1.7199,1.7115,1.6989,1.6735,1.6539,1.6411,1.58,1.5534,1.5468,1.5198,1.4834,1.4512,1.4419,1.4046,1.3552,1.3409,1.3314,1.3218,1.3074,1.2977,1.288,1.288,1.2764,1.2521,1.211,1.1864,1.1566,1.12,1.1065,1.0964,1.0964,1.0131,0.9458,0.9458,0.9354,0.9145,0.883,0.9145,0.9302,0.8883,0.9197,0.9406,0.9302,0.9249,0.9249,0.9249,0.9197,0.8922,0.8514,0.8343,0.809,0.7568,0.7139,0.6923,0.6923,0.6426,0.6209,0.6209,0.5991,0.5882,0.5882,0.5764,0.571,0.0,0.0,0.0,0.9843,0.0,0.0,0.0,0.8904,0.9,0.9172,0.8939,0.8941,0.9766,0.9697,0.9593,0.9761,1.0181,1.0791,1.1636,1.2594,1.3144,1.2965,1.302,1.298,1.2678,1.2696,1.2754,1.2891,1.3173,1.3559,1.4013,1.404,1.4272,1.4674,1.4707,1.4769,1.4919,1.4919,1.4814,1.4637,1.4925,1.5055,1.5055,1.5657,1.6101,1.6415,1.6676,1.6937,1.7199,1.7199,1.7199,1.7199,1.7031,1.6837,1.6667,1.6281,1.6044,1.5869,1.5691,1.5379,1.5017,1.5017,1.4674,1.4258,1.4258,1.4025,1.3789,1.3789,1.3552,1.3314,1.3314,1.3266,1.3122,1.2861,1.2764,1.2618,1.2393,1.2295,1.2246,1.2246,1.1534,1.0728,1.0079,0.9769,0.9614,0.9614,0.9821,0.9873,0.9614,0.9821,0.9873,0.9614,0.9614,0.9614,0.9614,0.9614,0.951,0.9197,0.9197,0.904,0.8738,0.8514,0.8355,0.8355,0.7759,0.7652,0.7906,0.7652,0.7063,0.6209,0.6209,0.6209,0.0,0.0,0.0,0.0,0.0,0.9654,0.0,0.0,0.0,0.0,0.0,0.0,0.0,0.0,0.0,0.9443,0.0,0.0,0.0,1.11,0.0,1.1803,1.2077,1.2181,1.1967,1.1772,1.1997,1.2769,1.2821,1.3183,1.4051,1.4219,1.4397,1.462,1.462,1.4493,1.4203,1.4203,1.4072,1.3801,1.4219,1.4428,1.448,1.5552,1.6101,1.6258,1.6807,1.7094,1.7199,1.7199,1.7199,1.7199,1.7199,1.7031,1.6795,1.671,1.6479,1.62,1.6113,1.5824,1.5513,1.5513,1.5334,1.5108,1.5108,1.4834,1.4512,1.4512,1.4118,1.3742,1.3742,1.3647,1.3552,1.3457,1.3409,1.3362,1.3266,1.3218,1.3218,1.3218,1.2764,1.203,1.0947,1.0285,1.0028,1.0403,1.0557,1.0557,1.0506,1.0557,1.0454,1.0028,0.9925,0.9925,0.9925,0.9925,0.9873,0.9769,0.9769,0.9718,0.9614,0.9614,0.9614,0.9614,0.9197,0.9145,0.9614,0.9145,0.8237,0.6848,0.674,0.674,0.0,0.0,0.0,0.0,1.1596,0.0,0.0,0.0,0.9183,0.8586,0.0,0.0,0.0,0.0,0.0,0.0,0.0,0.0,0.901,0.9695,1.0215,1.0177,1.0306,1.0392,1.0348,1.0441,1.1057,1.2367,1.2534,1.2806,1.3371,1.397,1.417,1.3908,1.3908,1.3908,1.3841,1.3841,1.3841,1.3775,1.3853,1.3879,1.3905,1.4507,1.5082,1.563,1.6232,1.6754,1.7199,1.7199,1.7199,1.7199,1.7199,1.7199,1.7115,1.6795,1.6479,1.6156,1.578,1.5468,1.5153,1.5153,1.5108,1.5108,1.5108,1.5062,1.5017,1.5017,1.4971,1.4926,1.4926,1.4926,1.4789,1.4373,1.4165,1.3931,1.3457,1.3266,1.3218,1.3218,1.317,1.2861,1.211,1.1501,1.1015,1.0659,1.1015,1.1217,1.0812,1.1116,1.1368,1.1267,1.1167,1.1116,1.1116,1.1116,1.0863,1.0352,1.03,1.0079,0.9614,0.9614,0.9614,0.9614,0.9562,0.9562,0.9614,0.9562,0.9406,0.9183,0.8712,0.8764,0.0,0.0,0.0,0.0,0.0,0.0,0.9324,0.0,0.8715,0.0,0.0,0.0,0.0,0.0,0.0,0.0,0.7824,0.0,0.0,0.0,0.8367,0.9368,0.0,0.0,0.9862,0.986,1.0348,1.1614,1.1402,1.1857,1.3296,1.3595,1.3952,1.4369,1.4397,1.43,1.4105,1.4105,1.3974,1.3775,1.3775,1.3775,1.3827,1.4716,1.5238,1.5552,1.6467,1.699,1.7199,1.7199,1.7199,1.7199,1.7199,1.7199,1.7199,1.7031,1.6905,1.6778,1.6607,1.6324,1.5976,1.578,1.5603,1.5379,1.5379,1.5244,1.5108,1.5108,1.5108,1.5108,1.5108,1.5108,1.5062,1.4834,1.4789,1.4651,1.4444,1.4351,1.4305,1.4305,1.4025,1.3695,1.3389,1.2812,1.2344,1.2129,1.208,1.1931,1.1733,1.1651,1.1619,1.1619,1.1569,1.1519,1.1519,1.1519,1.1418,1.1167,1.1065,1.0964,1.0694,1.0643,1.0592,1.0592,1.0233,1.0233,1.0592,1.0233,1.0233,1.0541,0.9666,0.9406,1.2673,0.0,0.0,0.0,0.0,0.0,0.0,0.0,0.0,0.0,0.0,0.0,0.0,0.0,0.0,0.0,0.0,0.7191,0.0,0.6766,0.0,0.0,0.0,0.0,0.0,0.9162,0.9508,1.074,1.0449,1.1082,1.3025,1.3299,1.3741,1.4497,1.4525,1.4429,1.417,1.417,1.4105,1.3941,1.3941,1.402,1.4205,1.5174,1.5691,1.5787,1.6781,1.7199,1.7199,1.7199,1.7199,1.7199,1.7199,1.7199,1.7199,1.7199,1.7157,1.7073,1.7073,1.6863,1.6522,1.6287,1.6001,1.5736,1.5623,1.5424,1.5244,1.5108,1.5153,1.5244,1.5244,1.5244,1.5244,1.5244,1.5153,1.5108,1.5108,1.5108,1.5108,1.5108,1.4743,1.4466,1.4466,1.3742,1.3218,1.3266,1.2909,1.2667,1.2716,1.2393,1.2166,1.2166,1.2116,1.2049,1.19,1.19,1.1868,1.1719,1.1619,1.1619,1.1751,1.1651,1.1651,1.1801,1.1401,1.1401,1.1801,1.1401,1.1351,1.1651,1.0438,0.9925,0.0,0.0,0.0,1.145,0.0,0.0,0.0,0.0,0.9878,0.0,0.0,0.0,0.0,0.0,0.0,0.0,0.0,0.0,0.0,0.0,0.0,0.0,0.0,0.0,0.0,0.8109,0.8339,0.9741,0.9961,1.0733,1.2372,1.3052,1.3525,1.3841,1.3808,1.3808,1.3808,1.3808,1.3974,1.4268,1.4268,1.4539,1.508,1.5694,1.6155,1.6388,1.6963,1.7199,1.7199,1.7199,1.7199,1.7199,1.7199,1.7199,1.7199,1.7199,1.6964,1.671,1.671,1.6479,1.62,1.62,1.62,1.6113,1.5736,1.5579,1.5513,1.5198,1.5334,1.5579,1.5579,1.5579,1.5579,1.5579,1.5334,1.5108,1.5108,1.5108,1.5108,1.5108,1.5062,1.5062,1.5062,1.4025,1.3266,1.3362,1.3362,1.3409,1.3525,1.343,1.3362,1.3362,1.3218,1.2957,1.2404,1.2374,1.2178,1.1719,1.1719,1.19,1.2355,1.2374,1.2618,1.3122,1.3122,1.3122,1.3122,1.3122,1.2957,1.2716,1.115,1.071,0.0,0.0,1.5114,1.2351,0.0,0.0,0.0,0.0,0.0,0.0,0.0,0.0,0.0,0.0,0.0,0.0,0.0,0.0,0.0,0.0,0.0,0.0,0.0,0.0,0.0,0.0,0.0,0.9493,0.9276,0.9807,1.1507,1.2142,1.2694,1.3205,1.3566,1.3775,1.3775,1.3775,1.3841,1.3974,1.4311,1.4576,1.4787,1.5819,1.6323,1.6415,1.6963,1.7199,1.7199,1.7199,1.7199,1.7199,1.7199,1.7199,1.7199,1.7199,1.7115,1.7031,1.7031,1.6947,1.6863,1.6863,1.6565,1.6156,1.6069,1.5647,1.5244,1.5153,1.5334,1.5534,1.5334,1.54,1.5579,1.5579,1.549,1.5513,1.578,1.5603,1.5424,1.5424,1.5244,1.5108,1.5108,1.472,1.449,1.449,1.4258,1.4093,1.414,1.381,1.3505,1.3505,1.3505,1.3409,1.3218,1.3218,1.3122,1.2977,1.288,1.288,1.3074,1.2957,1.3006,1.3218,1.3218,1.3218,1.3218,1.3218,1.317,1.3054,1.2521,1.2197,1.5295,1.5678,0.0,1.3398,1.3011,0.0,1.0285,0.0,1.0925,0.0,0.0,0.0,0.0,0.0,0.0,0.0,0.0,0.0,0.0,0.5354,0.0,0.0,0.0,0.0,0.0,0.0,0.7588,0.8756,0.8683,0.9256,0.0,1.1577,1.2281,1.286,1.3461,1.3775,1.3775,1.3984,1.413,1.4265,1.4814,1.5256,1.5568,1.6228,1.6626,1.6823,1.7083,1.7199,1.7199,1.7199,1.7199,1.7199,1.7199,1.7199,1.7199,1.7199,1.7199,1.7199,1.7199,1.7199,1.7199,1.7199,1.6905,1.6522,1.6392,1.6044,1.5623,1.5513,1.5736,1.5932,1.5712,1.5736,1.5824,1.5932,1.58,1.5736,1.6113,1.6001,1.5824,1.5824,1.5647,1.5468,1.5468,1.5468,1.5379,1.5153,1.4834,1.4651,1.4651,1.4373,1.4118,1.4118,1.4118,1.4093,1.3905,1.3716,1.3621,1.3621,1.3525,1.3552,1.3742,1.3789,1.3862,1.405,1.419,1.4283,1.4283,1.4143,1.4097,1.4122,1.4003,1.3742]}]]